[[{"header":{"parameterUnit":"m.s-1","parameterCategory":1,"la1":31.0,"la2":29.5877,"lo1":-88.7671,"lo2":-86.6584,"dy":0.0162,"dx":0.0185,"nx":115,"ny":88,"refTime":"2023-04-20T18:00:00:Z","depth":0,"parameterNumber":2,"parameterNumberName":"U-component_of_WINDS"},"data":[0.0,0.0,0.0,0.0,0.0,0.0,0.0,0.0,0.0,0.0,0.0,0.0,0.0,0.0,0.0,0.0,0.0,0.0,0.0,0.0,0.0,0.0,0.0,0.0,0.0,0.0,0.0,0.0,0.0,0.0,0.0,0.0,0.0,0.0,0.0,0.0,0.0,0.0,0.0,0.0,0.0,0.0,0.0,0.0,0.0,0.0,0.0,0.0,0.0,0.0,0.0,0.0,0.0,0.0,0.0,0.0,0.0,0.0,0.0,0.0,0.0,0.0,0.0,0.0,0.0,0.0,0.0,0.0,0.0,0.0,0.0,0.0,0.0,0.0,0.0,0.0,0.0,0.0,0.0,0.0,0.0,0.0,0.0,0.0,0.0,0.0,0.0,0.0,0.0,0.0,0.0,0.0,0.0,0.0,0.0,0.0,0.0,0.0,0.0,0.0,0.0,0.0,0.0,0.0,0.0,0.0,0.0,0.0,0.0,0.0,0.0,0.0,0.0,0.0,0.0,0.0,0.0,0.0,0.0,0.0,0.0,0.0,0.0,0.0,0.0,0.0,0.0,0.0,0.0,0.0,0.0,0.0,0.0,0.0,0.0,0.0,0.0,0.0,0.0,0.0,0.0,0.0,0.0,0.0,0.0,0.0,0.0,0.0,0.0,0.0,0.0,0.0,0.0,0.0,0.0,0.0,0.0,0.0,0.0,0.0,0.0,0.0,0.0,0.0,0.0,0.0,0.0,0.0,0.0,0.0,0.0,0.0,0.0,0.0,0.0,0.0,0.0,0.0,0.0,0.0,0.0,0.0,0.0,0.0,0.0,0.0,0.0,0.0,0.0,0.0,0.0,0.0,0.0,0.0,0.0,0.0,0.0,0.0,0.0,0.0,0.0,0.0,0.0,0.0,0.0,0.0,0.0,0.0,0.0,0.0,0.0,0.0,0.0,0.0,0.0,0.0,0.0,0.0,0.0,0.0,0.0,0.0,0.0,0.0,0.0,0.0,0.0,0.0,0.0,0.0,0.0,0.0,0.0,0.0,0.0,0.0,0.0,0.0,0.0,0.0,0.0,0.0,0.0,0.0,0.0,0.0,0.0,0.0,0.0,0.0,0.0,0.0,0.0,0.0,0.0,0.0,0.0,0.0,0.0,0.0,0.0,0.0,0.0,0.0,0.0,0.0,0.0,0.0,0.0,0.0,0.0,0.0,0.0,0.0,0.0,0.0,0.0,0.0,0.0,0.0,0.0,0.0,0.0,0.0,0.0,0.0,0.0,0.0,0.0,0.0,0.0,0.0,0.0,0.0,0.0,0.0,0.0,0.0,0.0,0.0,0.0,0.0,0.0,0.0,0.0,0.0,0.0,0.0,0.0,0.0,0.0,0.0,0.0,0.0,0.0,0.0,0.0,0.0,0.0,0.0,0.0,0.0,0.0,0.0,0.0,0.0,0.0,0.0,0.0,0.0,0.0,0.0,0.0,0.0,0.0,0.0,0.0,0.0,0.0,0.0,0.0,0.0,0.0,0.0,0.0,0.0,0.0,0.0,0.0,0.0,0.0,0.0,0.0,0.0,0.0,0.0,0.0,0.0,0.0,0.0,0.0,0.0,0.0,0.0,0.0,0.0,0.0,0.0,0.0,0.0,0.0,0.0,0.0,0.0,0.0,0.0,0.0,0.0,0.0,0.0,0.0,0.0,0.0,0.0,0.0,0.0,0.0,0.0,0.0,0.0,0.0,0.0,0.0,0.0,0.0,0.0,0.0,0.0,0.0,0.0,0.0,0.0,0.0,0.0,0.0,0.0,0.0,0.0,0.0,0.0,0.0,0.0,0.0,0.0,0.0,0.0,0.0,0.0,0.0,0.0,0.0,0.0,0.0,0.0,0.0,0.0,0.0,0.0,0.0,0.0,0.0,0.0,0.0,0.0,0.0,0.0,0.0,0.0,0.0,0.0,0.0,0.0,0.0,0.0,0.0,0.0,0.0,0.0,0.0,0.0,0.0,0.0,0.0,0.0,0.0,0.0,0.0,0.0,0.0,0.0,0.0,0.0,0.0,0.0,0.0,0.0,0.0,0.0,0.0,0.0,0.0,0.0,0.0,0.0,0.0,0.0,0.0,0.0,0.0,0.0,0.0,0.0,0.0,0.0,0.0,0.0,0.0,0.0,0.0,0.0,0.0,0.0,0.0,0.0,0.0,0.0,0.0,0.0,0.0,0.0,0.0,0.0,0.0,0.0,0.0,0.0,0.0,0.0,0.0,0.0,0.0,0.0,0.0,0.0,0.0,0.0,0.0,0.0,0.0,0.0,0.0,0.0,0.0,0.0,0.0,0.0,0.0,0.0,0.0,0.0,0.0,0.0,0.0,0.0,0.0,0.0,0.0,0.0,0.0,0.0,0.0,0.0,0.0,0.0,0.0,0.0,0.0,0.0,0.0,0.0,0.0,0.0,0.0,0.0,0.0,0.0,0.0,0.0,0.0,0.0,0.0,0.0,0.0,0.0,0.0,0.0,0.0,0.0,0.0,0.0,0.0,0.0,0.0,0.0,0.0,0.0,0.0,0.0,0.0,0.0,0.0,0.0,0.0,0.0,0.0,0.0,0.0,0.0,0.0,0.0,0.0,0.0,0.0,0.0,0.0,0.0,0.0,0.0,0.0,0.0,0.0,0.0,0.0,0.0,0.0,0.0,0.0,0.0,0.0,0.0,0.0,0.0,0.0,0.0,0.0,0.0,0.0,0.0,0.0,0.0,0.0,0.0,0.0,0.0,0.0,0.0,0.0,0.0,0.0,0.0,0.0,0.0,0.0,0.0,0.0,0.0,0.0,0.0,0.0,0.0,0.0,0.0,0.0,0.0,0.0,0.0,0.0,0.0,0.0,0.0,0.0,0.0,0.0,0.0,0.0,0.0,0.0,0.0,0.0,0.0,0.0,0.0,0.0,0.0,0.0,0.0,0.0,0.0,0.0,0.0,0.0,0.0,0.0,0.0,0.0,0.0,0.0,0.0,0.0,0.0,0.0,0.0,0.0,0.0,0.0,0.0,0.0,0.0,0.0,0.0,0.0,0.0,0.0,0.0,0.0,0.0,0.0,0.0,0.0,0.0,0.0,0.0,0.0,0.0,0.0,0.0,0.0,0.0,0.0,0.0,0.0,0.0,0.0,0.0,0.0,0.0,0.0,0.0,0.0,0.0,0.0,0.0,0.0,0.0,0.0,0.0,0.0,0.0,0.0,0.0,0.0,0.0,0.0,0.0,0.0,0.0,0.0,0.0,0.0,0.0,0.0,0.0,0.0,0.0,0.0,0.0,0.0,0.0,0.0,0.0,0.0,0.0,0.0,0.0,0.0,0.0,0.0,0.0,0.0,0.0,0.0,0.0,0.0,0.0,0.0,0.0,0.0,0.0,0.0,0.0,0.0,0.0,0.0,0.0,0.0,0.0,0.0,0.0,0.0,0.0,0.0,0.0,0.0,0.0,0.0,0.0,0.0,0.0,0.0,0.0,0.0,0.0,0.0,0.0,0.0,0.0,0.0,0.0,0.0,0.0,0.0,0.0,0.0,0.0,0.0,0.0,0.0,0.0,0.0,0.0,0.0,0.0,0.0,0.0,0.0,0.0,0.0,0.0,0.0,0.0,0.0,0.0,0.0,0.0,0.0,0.0,0.0,0.0,0.0,0.0,0.0,0.0,0.0,0.0,0.0,0.0,0.0,0.0,0.0,0.0,0.0,0.0,0.0,0.0,0.0,0.0,0.0,0.0,0.0,0.0,0.0,0.0,0.0,0.0,0.0,0.0,0.0,0.0,0.0,0.0,0.0,0.0,0.0,0.0,0.0,0.0,0.0,0.0,0.0,0.0,0.0,0.0,0.0,0.0,0.0,0.0,0.0,0.0,0.0,0.0,0.0,0.0,0.0,0.0,0.0,0.0,0.0,0.0,0.0,0.0,0.0,0.0,0.0,0.0,0.0,0.0,0.0,0.0,0.0,0.0,0.0,0.0,0.0,0.0,0.0,0.0,0.0,0.0,0.0,0.0,0.0,0.0,0.0,0.0,0.0,0.0,0.0,0.0,0.0,0.0,0.0,0.0,0.0,0.0,0.0,0.0,0.0,0.0,0.0,0.0,0.0,0.0,0.0,0.0,0.0,0.0,0.0,0.0,0.0,0.0,0.0,0.0,0.0,0.0,0.0,0.0,0.0,0.0,0.0,0.0,0.0,0.0,0.0,0.0,0.0,0.0,0.0,0.0,0.0,0.0,0.0,0.0,0.0,0.0,0.0,0.0,-1.5466,0.0,0.0,0.0,0.0,0.0,0.0,0.0,0.0,0.0,0.0,0.0,0.0,0.0,0.0,0.0,0.0,0.0,0.0,0.0,0.0,0.0,0.0,0.0,0.0,0.0,0.0,0.0,0.0,0.0,0.0,0.0,0.0,0.0,0.0,0.0,0.0,0.0,0.0,0.0,0.0,0.0,0.0,0.0,0.0,0.0,0.0,0.0,0.0,0.0,0.0,0.0,0.0,0.0,0.0,0.0,0.0,0.0,0.0,0.0,0.0,0.0,0.0,0.0,0.0,0.0,0.0,0.0,0.0,0.0,0.0,0.0,0.0,0.0,0.0,0.0,0.0,0.0,0.0,0.0,0.0,0.0,0.0,0.0,0.0,0.0,0.0,0.0,0.0,0.0,0.0,0.0,0.0,0.0,0.0,0.0,0.0,0.0,0.0,0.0,0.0,0.0,0.0,0.0,0.0,0.0,0.0,0.0,0.0,0.0,0.0,-1.8493,-1.8258,-1.7957,-1.7496,-1.6955,0.0,0.0,0.0,0.0,0.0,0.0,0.0,0.0,0.0,0.0,0.0,0.0,0.0,0.0,0.0,0.0,0.0,0.0,0.0,0.0,0.0,0.0,0.0,0.0,0.0,0.0,0.0,0.0,0.0,0.0,0.0,0.0,0.0,0.0,0.0,0.0,0.0,0.0,0.0,0.0,0.0,0.0,0.0,0.0,0.0,0.0,0.0,0.0,0.0,0.0,0.0,0.0,0.0,0.0,0.0,0.0,0.0,0.0,0.0,0.0,0.0,0.0,0.0,0.0,0.0,0.0,0.0,0.0,0.0,0.0,0.0,0.0,0.0,0.0,0.0,0.0,0.0,0.0,0.0,0.0,0.0,0.0,0.0,0.0,0.0,0.0,0.0,0.0,0.0,0.0,0.0,0.0,0.0,0.0,0.0,0.0,0.0,0.0,0.0,0.0,0.0,0.0,0.0,0.0,0.0,0.0,0.0,0.0,0.0,0.0,0.0,0.0,-1.9435,-1.9078,-1.8348,0.0,0.0,0.0,0.0,0.0,0.0,0.0,0.0,0.0,0.0,0.0,0.0,0.0,0.0,0.0,0.0,0.0,0.0,0.0,0.0,0.0,0.0,0.0,0.0,0.0,0.0,0.0,0.0,0.0,0.0,0.0,0.0,0.0,0.0,0.0,0.0,0.0,0.0,0.0,0.0,0.0,0.0,0.0,0.0,0.0,0.0,0.0,0.0,0.0,0.0,0.0,0.0,0.0,0.0,0.0,0.0,0.0,0.0,0.0,0.0,0.0,0.0,0.0,0.0,0.0,0.0,0.0,0.0,0.0,0.0,0.0,0.0,0.0,0.0,0.0,0.0,0.0,0.0,0.0,0.0,0.0,0.0,0.0,0.0,0.0,0.0,0.0,0.0,0.0,0.0,0.0,0.0,0.0,0.0,0.0,0.0,0.0,0.0,0.0,0.0,0.0,0.0,0.0,0.0,0.0,0.0,0.0,0.0,0.0,0.0,-1.949,-1.9242,-1.9171,0.0,-1.8714,0.0,0.0,0.0,0.0,0.0,0.0,0.0,0.0,0.0,0.0,0.0,0.0,0.0,0.0,0.0,0.0,0.0,0.0,0.0,0.0,0.0,0.0,0.0,0.0,0.0,0.0,0.0,0.0,0.0,0.0,0.0,0.0,0.0,0.0,0.0,0.0,0.0,0.0,0.0,0.0,0.0,0.0,0.0,0.0,0.0,0.0,0.0,0.0,0.0,0.0,0.0,0.0,0.0,0.0,0.0,0.0,0.0,0.0,0.0,0.0,0.0,0.0,0.0,0.0,0.0,0.0,0.0,0.0,0.0,0.0,0.0,0.0,0.0,0.0,0.0,0.0,0.0,0.0,0.0,0.0,0.0,0.0,0.0,0.0,0.0,0.0,0.0,0.0,0.0,0.0,0.0,0.0,0.0,0.0,0.0,0.0,0.0,0.0,0.0,0.0,0.0,0.0,0.0,0.0,0.0,0.0,0.0,0.0,0.0,0.0,-2.1019,-2.0687,-1.9704,-1.9108,0.0,0.0,0.0,0.0,0.0,0.0,0.0,0.0,0.0,0.0,0.0,0.0,0.0,0.0,0.0,0.0,0.0,0.0,0.0,0.0,0.0,0.0,0.0,0.0,0.0,0.0,0.0,0.0,0.0,0.0,0.0,0.0,0.0,0.0,0.0,0.0,0.0,0.0,0.0,0.0,0.0,0.0,0.0,0.0,0.0,0.0,0.0,0.0,0.0,0.0,0.0,0.0,0.0,0.0,0.0,0.0,0.0,0.0,0.0,0.0,0.0,0.0,0.0,0.0,0.0,0.0,0.0,0.0,0.0,0.0,0.0,0.0,0.0,0.0,0.0,0.0,0.0,0.0,0.0,0.0,0.0,0.0,0.0,0.0,0.0,0.0,0.0,0.0,0.0,0.0,0.0,0.0,0.0,0.0,0.0,0.0,0.0,0.0,0.0,0.0,0.0,0.0,0.0,0.0,0.0,0.0,0.0,0.0,0.0,0.0,-2.1891,-2.1789,-2.1283,-2.0056,-1.9379,-1.9331,0.0,0.0,0.0,0.0,0.0,0.0,0.0,0.0,0.0,0.0,0.0,0.0,0.0,0.0,0.0,0.0,0.0,0.0,0.0,0.0,0.0,0.0,0.0,0.0,0.0,0.0,0.0,0.0,0.0,0.0,0.0,0.0,0.0,0.0,0.0,0.0,0.0,0.0,0.0,0.0,0.0,0.0,0.0,0.0,0.0,0.0,0.0,0.0,0.0,0.0,0.0,0.0,0.0,0.0,0.0,0.0,0.0,0.0,0.0,0.0,0.0,0.0,0.0,0.0,0.0,0.0,0.0,0.0,0.0,0.0,0.0,0.0,0.0,0.0,0.0,0.0,0.0,0.0,0.0,0.0,0.0,0.0,0.0,0.0,0.0,0.0,0.0,0.0,0.0,0.0,0.0,0.0,0.0,0.0,0.0,0.0,0.0,0.0,0.0,0.0,0.0,0.0,0.0,0.0,0.0,0.0,0.0,0.0,-2.1678,-2.1405,-2.0956,-2.0416,-1.9962,-1.9719,0.0,0.0,0.0,0.0,0.0,0.0,0.0,0.0,0.0,0.0,0.0,0.0,0.0,0.0,0.0,0.0,0.0,0.0,0.0,0.0,0.0,0.0,0.0,0.0,0.0,0.0,0.0,0.0,0.0,0.0,0.0,0.0,0.0,0.0,0.0,0.0,0.0,0.0,0.0,0.0,0.0,0.0,0.0,0.0,0.0,0.0,0.0,0.0,0.0,0.0,0.0,0.0,0.0,0.0,0.0,0.0,0.0,0.0,0.0,0.0,0.0,0.0,0.0,0.0,0.0,0.0,0.0,0.0,0.0,0.0,0.0,0.0,0.0,0.0,0.0,0.0,0.0,0.0,0.0,0.0,0.0,0.0,0.0,0.0,0.0,0.0,0.0,0.0,0.0,0.0,0.0,0.0,0.0,0.0,0.0,0.0,0.0,0.0,0.0,0.0,0.0,0.0,0.0,0.0,0.0,0.0,0.0,0.0,0.0,-2.2851,-2.2246,-2.1748,-2.1381,-2.0279,-1.9629,0.0,0.0,0.0,0.0,0.0,0.0,0.0,0.0,0.0,0.0,0.0,0.0,0.0,0.0,0.0,0.0,0.0,0.0,0.0,0.0,0.0,0.0,0.0,0.0,0.0,0.0,0.0,0.0,0.0,0.0,0.0,0.0,0.0,0.0,0.0,0.0,0.0,0.0,0.0,0.0,0.0,0.0,0.0,0.0,0.0,0.0,0.0,0.0,0.0,0.0,0.0,0.0,0.0,0.0,0.0,0.0,0.0,0.0,0.0,0.0,0.0,0.0,0.0,0.0,0.0,0.0,0.0,0.0,0.0,0.0,0.0,0.0,0.0,0.0,0.0,0.0,0.0,0.0,0.0,0.0,0.0,0.0,0.0,0.0,0.0,0.0,0.0,0.0,0.0,0.0,0.0,0.0,0.0,0.0,0.0,0.0,0.0,0.0,0.0,0.0,0.0,0.0,0.0,0.0,0.0,0.0,0.0,0.0,0.0,-2.3043,0.0,-2.1891,-2.1664,-2.027,-1.9465,0.0,0.0,0.0,0.0,0.0,0.0,0.0,0.0,0.0,0.0,0.0,0.0,0.0,0.0,0.0,0.0,0.0,0.0,0.0,0.0,0.0,0.0,0.0,0.0,0.0,0.0,0.0,0.0,0.0,0.0,0.0,0.0,0.0,0.0,0.0,0.0,0.0,0.0,0.0,0.0,0.0,0.0,0.0,0.0,0.0,0.0,0.0,0.0,0.0,0.0,0.0,0.0,0.0,0.0,0.0,0.0,0.0,0.0,0.0,0.0,0.0,0.0,0.0,0.0,0.0,0.0,0.0,0.0,0.0,0.0,0.0,0.0,0.0,0.0,0.0,0.0,0.0,0.0,0.0,0.0,0.0,0.0,0.0,0.0,0.0,0.0,0.0,0.0,0.0,0.0,0.0,0.0,0.0,0.0,0.0,0.0,0.0,0.0,0.0,0.0,0.0,0.0,0.0,0.0,0.0,0.0,0.0,0.0,-2.2104,-2.2111,-2.1655,-2.1332,-2.1007,-2.0035,-1.9335,0.0,0.0,0.0,0.0,0.0,0.0,0.0,0.0,0.0,0.0,0.0,0.0,0.0,0.0,0.0,0.0,0.0,0.0,0.0,0.0,0.0,0.0,0.0,0.0,0.0,0.0,0.0,0.0,0.0,0.0,0.0,0.0,0.0,0.0,0.0,0.0,0.0,0.0,0.0,0.0,0.0,0.0,0.0,0.0,0.0,0.0,0.0,0.0,0.0,0.0,0.0,0.0,0.0,0.0,0.0,0.0,0.0,0.0,0.0,0.0,0.0,0.0,0.0,0.0,0.0,0.0,0.0,0.0,0.0,0.0,0.0,0.0,0.0,0.0,0.0,0.0,0.0,0.0,0.0,0.0,0.0,0.0,0.0,0.0,0.0,0.0,0.0,0.0,0.0,0.0,0.0,0.0,0.0,0.0,0.0,0.0,0.0,0.0,0.0,0.0,0.0,0.0,0.0,0.0,0.0,0.0,0.0,0.0,0.0,-2.3392,-2.2923,-2.2344,-2.1675,-2.0631,-1.9832,0.0,0.0,0.0,0.0,0.0,0.0,0.0,0.0,0.0,0.0,0.0,0.0,0.0,0.0,0.0,0.0,0.0,0.0,0.0,0.0,0.0,0.0,0.0,0.0,0.0,0.0,0.0,0.0,0.0,0.0,0.0,0.0,0.0,0.0,0.0,0.0,0.0,0.0,0.0,0.0,0.0,0.0,0.0,0.0,0.0,0.0,0.0,0.0,0.0,0.0,0.0,0.0,0.0,0.0,0.0,0.0,0.0,0.0,0.0,0.0,0.0,0.0,0.0,0.0,0.0,0.0,0.0,0.0,0.0,0.0,0.0,0.0,0.0,0.0,0.0,0.0,0.0,0.0,0.0,0.0,0.0,0.0,0.0,0.0,0.0,0.0,0.0,0.0,0.0,0.0,0.0,0.0,0.0,0.0,0.0,0.0,0.0,0.0,0.0,0.0,0.0,0.0,0.0,0.0,0.0,0.0,0.0,0.0,0.0,-2.4858,-2.4307,-2.357,-2.2697,-2.1436,-2.0391,-1.966,0.0,0.0,0.0,0.0,0.0,0.0,0.0,0.0,0.0,0.0,0.0,0.0,0.0,0.0,0.0,0.0,0.0,0.0,0.0,0.0,0.0,0.0,0.0,0.0,0.0,0.0,0.0,0.0,0.0,0.0,0.0,0.0,0.0,0.0,0.0,0.0,0.0,0.0,0.0,0.0,0.0,0.0,0.0,0.0,0.0,0.0,0.0,0.0,0.0,0.0,0.0,0.0,0.0,0.0,0.0,0.0,0.0,0.0,0.0,0.0,0.0,0.0,0.0,0.0,0.0,0.0,0.0,0.0,0.0,0.0,0.0,0.0,0.0,0.0,0.0,0.0,0.0,0.0,0.0,0.0,0.0,0.0,0.0,0.0,0.0,0.0,0.0,0.0,0.0,0.0,0.0,0.0,0.0,0.0,0.0,0.0,0.0,0.0,0.0,0.0,0.0,0.0,0.0,0.0,0.0,0.0,0.0,0.0,-2.6531,-2.583,-2.4959,-2.3863,-2.231,-2.1019,0.0,0.0,0.0,0.0,0.0,0.0,0.0,0.0,0.0,0.0,0.0,0.0,0.0,0.0,0.0,0.0,0.0,0.0,0.0,0.0,0.0,0.0,0.0,0.0,0.0,0.0,0.0,0.0,0.0,0.0,0.0,0.0,0.0,0.0,0.0,0.0,0.0,0.0,0.0,0.0,0.0,0.0,0.0,0.0,0.0,0.0,0.0,0.0,0.0,0.0,0.0,0.0,0.0,0.0,0.0,0.0,0.0,0.0,0.0,0.0,0.0,0.0,0.0,0.0,0.0,0.0,0.0,0.0,0.0,0.0,0.0,0.0,0.0,0.0,0.0,0.0,0.0,0.0,0.0,0.0,0.0,0.0,0.0,0.0,0.0,0.0,0.0,0.0,0.0,0.0,0.0,0.0,0.0,0.0,0.0,0.0,0.0,0.0,0.0,0.0,0.0,0.0,0.0,0.0,0.0,0.0,0.0,0.0,0.0,-2.8302,-2.8536,-2.7297,-2.4634,-2.2974,-2.151,0.0,0.0,0.0,0.0,0.0,0.0,0.0,0.0,0.0,0.0,0.0,0.0,0.0,0.0,0.0,0.0,0.0,0.0,0.0,0.0,0.0,0.0,0.0,0.0,0.0,0.0,0.0,0.0,0.0,0.0,0.0,0.0,0.0,0.0,0.0,0.0,0.0,0.0,0.0,0.0,0.0,0.0,0.0,0.0,0.0,0.0,0.0,0.0,0.0,0.0,0.0,0.0,0.0,0.0,0.0,0.0,0.0,0.0,0.0,0.0,0.0,0.0,0.0,0.0,0.0,0.0,0.0,0.0,0.0,0.0,0.0,0.0,0.0,0.0,0.0,0.0,0.0,0.0,0.0,0.0,0.0,0.0,0.0,0.0,0.0,0.0,0.0,0.0,0.0,0.0,0.0,0.0,0.0,0.0,0.0,0.0,0.0,0.0,0.0,0.0,0.0,0.0,0.0,0.0,0.0,0.0,0.0,0.0,-2.7316,-2.9299,-2.9652,-2.8824,-2.6849,-2.4667,-2.271,0.0,0.0,0.0,0.0,0.0,0.0,0.0,0.0,0.0,0.0,0.0,0.0,0.0,0.0,0.0,0.0,0.0,0.0,0.0,0.0,0.0,0.0,0.0,0.0,0.0,0.0,0.0,0.0,0.0,0.0,0.0,0.0,0.0,0.0,0.0,0.0,0.0,0.0,0.0,0.0,0.0,0.0,0.0,0.0,0.0,0.0,0.0,0.0,0.0,0.0,0.0,0.0,0.0,0.0,0.0,0.0,0.0,0.0,0.0,0.0,0.0,0.0,0.0,0.0,0.0,0.0,0.0,0.0,0.0,0.0,0.0,0.0,0.0,0.0,0.0,0.0,0.0,0.0,0.0,0.0,0.0,0.0,0.0,0.0,0.0,0.0,0.0,0.0,0.0,0.0,0.0,0.0,0.0,0.0,0.0,0.0,0.0,0.0,0.0,0.0,0.0,0.0,0.0,0.0,0.0,0.0,0.0,0.0,-2.7479,-2.9847,-2.9937,-2.994,-2.9714,-2.6756,-2.4113,0.0,0.0,0.0,0.0,0.0,0.0,0.0,0.0,0.0,0.0,0.0,0.0,0.0,0.0,0.0,0.0,0.0,0.0,0.0,0.0,0.0,0.0,0.0,0.0,0.0,0.0,0.0,0.0,0.0,0.0,0.0,0.0,0.0,0.0,0.0,0.0,0.0,0.0,0.0,0.0,0.0,0.0,0.0,0.0,0.0,0.0,0.0,0.0,0.0,0.0,0.0,0.0,0.0,0.0,0.0,0.0,0.0,0.0,0.0,0.0,0.0,0.0,0.0,0.0,0.0,0.0,0.0,0.0,0.0,0.0,0.0,0.0,0.0,0.0,0.0,0.0,0.0,0.0,0.0,0.0,0.0,0.0,0.0,0.0,0.0,0.0,0.0,0.0,0.0,0.0,0.0,0.0,0.0,0.0,0.0,0.0,0.0,0.0,0.0,0.0,0.0,0.0,0.0,0.0,0.0,0.0,0.0,0.0,-2.869,-3.1199,-3.1177,-3.112,-3.1062,-2.7306,-2.4206,0.0,0.0,0.0,0.0,0.0,0.0,0.0,0.0,0.0,0.0,0.0,0.0,0.0,0.0,0.0,0.0,0.0,0.0,0.0,0.0,0.0,0.0,0.0,0.0,0.0,0.0,0.0,0.0,0.0,0.0,0.0,0.0,0.0,0.0,0.0,0.0,0.0,0.0,0.0,0.0,0.0,0.0,0.0,0.0,0.0,0.0,0.0,0.0,-1.3371,0.0,0.0,0.0,0.0,0.0,0.0,0.0,0.0,0.0,0.0,0.0,0.0,0.0,0.0,0.0,0.0,0.0,0.0,0.0,0.0,0.0,0.0,0.0,0.0,0.0,0.0,0.0,0.0,0.0,0.0,0.0,0.0,0.0,0.0,0.0,0.0,0.0,0.0,0.0,0.0,0.0,0.0,0.0,0.0,0.0,0.0,0.0,0.0,0.0,0.0,0.0,0.0,0.0,0.0,0.0,0.0,0.0,0.0,0.0,-2.9132,-3.1056,-3.136,-3.1212,-3.0552,-2.7747,-2.4969,0.0,0.0,0.0,0.0,0.0,0.0,0.0,0.0,0.0,0.0,0.0,0.0,0.0,0.0,0.0,0.0,0.0,0.0,0.0,0.0,0.0,0.0,0.0,0.0,0.0,0.0,0.0,0.0,0.0,0.0,0.0,0.0,0.0,0.0,0.0,0.0,0.0,0.0,0.0,0.0,0.0,0.0,0.0,0.0,0.0,0.0,0.0,0.0,0.0,0.0,0.0,0.0,0.0,0.0,0.0,0.0,0.0,0.0,0.0,0.0,0.0,0.0,0.0,0.0,0.0,0.0,0.0,0.0,0.0,0.0,0.0,0.0,0.0,0.0,0.0,0.0,0.0,0.0,0.0,0.0,0.0,0.0,0.0,0.0,0.0,0.0,0.0,0.0,0.0,0.0,0.0,0.0,0.0,0.0,0.0,0.0,0.0,0.0,0.0,0.0,0.0,0.0,0.0,0.0,0.0,0.0,0.0,-2.767,-2.9265,-3.0612,-3.1092,-3.0763,-2.9621,-2.7928,-2.5624,-2.2665,0.0,0.0,0.0,0.0,0.0,0.0,0.0,0.0,0.0,0.0,0.0,0.0,0.0,0.0,0.0,0.0,0.0,0.0,0.0,0.0,0.0,0.0,0.0,0.0,0.0,0.0,0.0,0.0,0.0,0.0,0.0,0.0,0.0,0.0,0.0,0.0,0.0,0.0,-1.6985,-1.7185,0.0,0.0,0.0,0.0,0.0,0.0,0.0,0.0,-1.339,0.0,0.0,0.0,0.0,0.0,0.0,0.0,0.0,0.0,0.0,0.0,0.0,0.0,0.0,0.0,0.0,0.0,0.0,0.0,0.0,0.0,0.0,0.0,0.0,0.0,0.0,0.0,0.0,0.0,0.0,0.0,0.0,0.0,0.0,0.0,0.0,0.0,0.0,0.0,0.0,0.0,0.0,0.0,0.0,0.0,0.0,0.0,0.0,0.0,0.0,0.0,0.0,0.0,0.0,0.0,0.0,-2.6471,-2.7859,-2.9505,-3.1271,-3.0883,-3.0313,-2.9564,-2.7432,-2.4878,-2.2017,0.0,0.0,0.0,0.0,0.0,0.0,0.0,0.0,0.0,0.0,0.0,0.0,0.0,0.0,0.0,0.0,0.0,0.0,0.0,0.0,0.0,0.0,0.0,0.0,0.0,0.0,0.0,0.0,0.0,0.0,0.0,0.0,0.0,0.0,0.0,0.0,0.0,0.0,0.0,-1.7913,-1.7462,0.0,0.0,0.0,0.0,0.0,0.0,0.0,0.0,-1.2848,0.0,0.0,0.0,0.0,0.0,0.0,0.0,0.0,0.0,0.0,0.0,0.0,0.0,0.0,0.0,0.0,0.0,0.0,0.0,0.0,0.0,0.0,0.0,0.0,0.0,0.0,0.0,0.0,0.0,0.0,0.0,0.0,0.0,0.0,0.0,0.0,0.0,0.0,0.0,0.0,0.0,0.0,0.0,0.0,0.0,0.0,0.0,0.0,0.0,0.0,0.0,0.0,0.0,0.0,0.0,-2.6177,-2.8068,-2.9564,-3.0492,-3.0522,-2.9864,-2.8577,-2.6959,-2.4586,0.0,0.0,0.0,0.0,0.0,0.0,0.0,0.0,0.0,0.0,0.0,0.0,0.0,0.0,0.0,0.0,0.0,0.0,0.0,0.0,0.0,0.0,0.0,0.0,0.0,0.0,0.0,0.0,0.0,0.0,0.0,0.0,0.0,0.0,0.0,0.0,0.0,0.0,0.0,0.0,-1.8535,-1.8012,-1.7564,0.0,0.0,0.0,0.0,0.0,0.0,-1.4074,-1.3417,0.0,0.0,0.0,0.0,0.0,0.0,0.0,0.0,0.0,0.0,0.0,0.0,0.0,0.0,0.0,0.0,0.0,0.0,0.0,0.0,0.0,0.0,0.0,0.0,0.0,0.0,0.0,0.0,0.0,0.0,0.0,0.0,0.0,0.0,0.0,0.0,0.0,0.0,0.0,0.0,0.0,0.0,0.0,0.0,0.0,0.0,0.0,0.0,0.0,0.0,0.0,0.0,0.0,0.0,0.0,-2.5884,-2.8308,-2.9621,-2.9594,-3.0073,-2.9385,-2.7465,-2.6376,-2.4276,0.0,0.0,0.0,0.0,0.0,0.0,0.0,0.0,0.0,0.0,0.0,0.0,0.0,0.0,0.0,0.0,0.0,0.0,0.0,0.0,0.0,0.0,0.0,0.0,0.0,0.0,0.0,0.0,0.0,0.0,0.0,0.0,0.0,0.0,0.0,0.0,0.0,0.0,0.0,0.0,0.0,-1.8589,-1.7892,-1.7617,0.0,0.0,0.0,0.0,-1.6221,-1.4951,0.0,0.0,0.0,0.0,0.0,0.0,0.0,0.0,0.0,0.0,0.0,0.0,0.0,0.0,0.0,0.0,0.0,0.0,0.0,0.0,0.0,0.0,0.0,0.0,0.0,0.0,0.0,0.0,0.0,0.0,0.0,0.0,0.0,0.0,0.0,0.0,0.0,0.0,0.0,0.0,0.0,0.0,0.0,0.0,0.0,0.0,0.0,0.0,0.0,0.0,0.0,0.0,0.0,0.0,0.0,0.0,-2.6566,-2.8543,-2.9621,-2.9621,-2.9681,-2.8727,-2.6782,-2.5629,-2.3693,0.0,0.0,0.0,0.0,0.0,0.0,0.0,0.0,0.0,0.0,0.0,0.0,0.0,0.0,0.0,0.0,0.0,0.0,0.0,0.0,0.0,0.0,0.0,0.0,0.0,0.0,0.0,0.0,0.0,0.0,0.0,0.0,0.0,0.0,0.0,0.0,0.0,0.0,0.0,0.0,0.0,-1.8959,-1.8846,-1.8108,-1.7601,0.0,0.0,0.0,-1.6287,-1.5306,0.0,0.0,0.0,0.0,0.0,0.0,0.0,0.0,0.0,0.0,0.0,0.0,0.0,0.0,0.0,0.0,0.0,0.0,0.0,0.0,0.0,0.0,0.0,0.0,0.0,0.0,0.0,0.0,0.0,0.0,0.0,0.0,0.0,0.0,0.0,0.0,0.0,0.0,0.0,0.0,0.0,0.0,0.0,0.0,0.0,0.0,0.0,0.0,0.0,0.0,0.0,0.0,0.0,0.0,0.0,-2.629,-2.6093,-2.8008,-2.9026,-2.8996,-2.8663,-2.7884,-2.6632,-2.4852,-2.3072,0.0,0.0,0.0,0.0,0.0,0.0,0.0,0.0,0.0,0.0,0.0,0.0,0.0,0.0,0.0,0.0,0.0,0.0,0.0,0.0,0.0,0.0,0.0,0.0,0.0,0.0,0.0,0.0,0.0,0.0,0.0,0.0,0.0,0.0,0.0,0.0,0.0,0.0,0.0,0.0,0.0,0.0,-1.8992,-1.8187,0.0,0.0,0.0,-1.6519,-1.6767,0.0,0.0,0.0,0.0,0.0,0.0,0.0,0.0,0.0,0.0,0.0,0.0,0.0,0.0,0.0,0.0,0.0,0.0,0.0,0.0,0.0,0.0,0.0,0.0,0.0,0.0,0.0,0.0,0.0,0.0,0.0,0.0,0.0,0.0,0.0,0.0,0.0,0.0,0.0,0.0,0.0,0.0,0.0,0.0,0.0,0.0,0.0,0.0,0.0,0.0,0.0,0.0,0.0,0.0,0.0,0.0,0.0,-2.5914,-2.7679,-2.8517,-2.8338,-2.7854,-2.7106,-2.6093,-2.4161,0.0,0.0,0.0,0.0,0.0,0.0,0.0,0.0,0.0,0.0,0.0,0.0,0.0,0.0,0.0,0.0,0.0,0.0,0.0,0.0,0.0,0.0,0.0,0.0,0.0,0.0,0.0,-1.8386,0.0,0.0,0.0,0.0,0.0,0.0,0.0,0.0,0.0,0.0,0.0,0.0,0.0,0.0,-2.0027,-1.9283,-1.8444,-1.7848,0.0,0.0,-1.6817,-1.717,-1.6401,-1.592,0.0,0.0,0.0,0.0,0.0,0.0,0.0,0.0,0.0,0.0,0.0,0.0,0.0,0.0,0.0,0.0,0.0,0.0,0.0,0.0,0.0,0.0,0.0,0.0,0.0,0.0,0.0,0.0,0.0,0.0,0.0,0.0,0.0,0.0,0.0,0.0,0.0,0.0,0.0,0.0,0.0,0.0,0.0,0.0,0.0,0.0,0.0,0.0,0.0,0.0,0.0,0.0,0.0,0.0,0.0,-2.6596,-2.7889,-2.8304,-2.7705,-2.7615,-2.6716,-2.4814,-2.3695,-2.244,0.0,0.0,0.0,0.0,0.0,0.0,0.0,0.0,0.0,0.0,0.0,0.0,0.0,0.0,0.0,0.0,0.0,0.0,0.0,0.0,0.0,0.0,0.0,0.0,0.0,0.0,0.0,0.0,0.0,0.0,0.0,0.0,0.0,0.0,0.0,0.0,0.0,0.0,0.0,0.0,0.0,-2.0679,-2.0035,-1.9243,-1.8478,0.0,0.0,-1.7417,-1.732,-1.6869,-1.6494,-1.6409,0.0,0.0,0.0,0.0,0.0,0.0,0.0,0.0,0.0,0.0,0.0,0.0,0.0,0.0,0.0,0.0,0.0,0.0,0.0,0.0,0.0,0.0,0.0,0.0,0.0,0.0,0.0,0.0,0.0,0.0,0.0,0.0,0.0,0.0,0.0,0.0,0.0,0.0,0.0,0.0,0.0,0.0,0.0,0.0,0.0,0.0,0.0,0.0,0.0,0.0,0.0,0.0,0.0,-2.7065,-2.6602,-2.7525,-2.7854,-2.7585,-2.6806,-2.6004,-2.5232,-2.3592,-2.2555,0.0,0.0,0.0,0.0,0.0,0.0,0.0,0.0,0.0,0.0,0.0,0.0,0.0,0.0,0.0,0.0,0.0,0.0,0.0,0.0,0.0,0.0,0.0,0.0,0.0,0.0,0.0,0.0,-1.7874,-1.7345,-1.6747,0.0,0.0,0.0,0.0,0.0,0.0,0.0,0.0,0.0,0.0,-2.0694,-2.0464,-1.9462,0.0,0.0,-1.7843,-1.738,-1.7248,-1.6863,-1.661,-1.6596,-1.6436,0.0,0.0,0.0,0.0,0.0,0.0,0.0,0.0,0.0,0.0,0.0,0.0,0.0,0.0,0.0,0.0,0.0,0.0,0.0,0.0,0.0,0.0,0.0,0.0,0.0,0.0,0.0,0.0,0.0,0.0,0.0,0.0,0.0,0.0,0.0,0.0,0.0,0.0,0.0,0.0,0.0,0.0,0.0,0.0,0.0,0.0,0.0,0.0,0.0,0.0,0.0,0.0,-2.756,-2.6926,-2.7375,-2.7585,-2.7585,-2.6273,-2.5525,-2.5262,-2.3501,-2.2566,0.0,0.0,0.0,0.0,0.0,0.0,0.0,0.0,0.0,0.0,0.0,0.0,0.0,0.0,0.0,0.0,0.0,0.0,0.0,0.0,0.0,0.0,0.0,0.0,0.0,0.0,0.0,0.0,-1.8334,-1.7764,-1.7066,0.0,0.0,0.0,0.0,0.0,0.0,0.0,0.0,0.0,0.0,-2.0708,-2.0595,-1.9829,-1.9205,-1.9022,-1.8469,-1.7992,-1.7913,-1.7577,-1.7336,-1.7372,0.0,0.0,0.0,0.0,0.0,0.0,0.0,0.0,0.0,0.0,0.0,0.0,0.0,0.0,0.0,0.0,0.0,0.0,0.0,0.0,0.0,0.0,0.0,0.0,0.0,0.0,0.0,0.0,0.0,0.0,-3.3455,0.0,0.0,0.0,0.0,0.0,0.0,0.0,0.0,0.0,0.0,0.0,0.0,0.0,0.0,0.0,0.0,0.0,0.0,0.0,0.0,0.0,0.0,-2.8218,-2.7585,-2.7585,-2.7585,-2.7555,-2.6303,-2.5292,-2.4664,-2.3263,-2.2452,-2.2346,0.0,0.0,0.0,0.0,0.0,0.0,0.0,0.0,0.0,0.0,0.0,0.0,0.0,0.0,0.0,0.0,0.0,0.0,0.0,0.0,0.0,0.0,0.0,0.0,0.0,0.0,-1.9496,-1.9119,-1.8821,0.0,0.0,0.0,0.0,0.0,0.0,0.0,0.0,0.0,0.0,-2.1215,-2.0972,-2.0412,-2.0428,-2.0289,-1.9744,-1.9571,-1.9478,-1.9397,-1.9139,-1.8957,0.0,0.0,0.0,0.0,0.0,0.0,0.0,0.0,0.0,0.0,0.0,0.0,0.0,0.0,0.0,0.0,0.0,0.0,0.0,0.0,0.0,0.0,0.0,0.0,0.0,0.0,0.0,-3.516,-3.516,0.0,0.0,0.0,0.0,0.0,0.0,0.0,0.0,0.0,0.0,0.0,-3.1511,-3.1511,0.0,0.0,0.0,0.0,0.0,0.0,0.0,0.0,0.0,0.0,0.0,0.0,-2.8487,-2.8248,-2.7824,-2.7585,-2.7585,-2.6692,-2.5944,-2.5262,-2.4373,-2.3606,-2.2987,0.0,0.0,0.0,0.0,0.0,0.0,0.0,0.0,0.0,0.0,0.0,0.0,0.0,0.0,0.0,0.0,0.0,0.0,0.0,0.0,0.0,0.0,0.0,0.0,0.0,-1.9957,0.0,0.0,0.0,0.0,0.0,0.0,0.0,0.0,0.0,0.0,0.0,-2.0693,-2.0859,-2.0809,-2.0716,-2.0703,-2.0486,-2.0261,0.0,0.0,0.0,0.0,0.0,0.0,0.0,0.0,0.0,0.0,0.0,0.0,0.0,0.0,-1.8369,-1.7884,-1.7861,-1.7927,-1.8027,0.0,0.0,0.0,0.0,0.0,0.0,0.0,0.0,0.0,0.0,0.0,0.0,0.0,0.0,0.0,0.0,-3.5848,0.0,0.0,0.0,0.0,0.0,0.0,0.0,0.0,-3.2976,-3.2617,-3.2198,-3.2198,-3.2198,0.0,-3.2198,-3.1659,0.0,0.0,0.0,0.0,0.0,0.0,0.0,0.0,-2.9056,-2.8607,-2.8158,-2.7854,-2.7585,-2.6956,-2.6393,-2.5944,-2.5053,-2.4186,-2.3378,-2.3127,-2.2791,0.0,0.0,0.0,0.0,0.0,0.0,0.0,0.0,0.0,0.0,0.0,0.0,0.0,0.0,0.0,0.0,0.0,0.0,0.0,0.0,0.0,0.0,0.0,-2.0599,0.0,0.0,0.0,0.0,0.0,0.0,0.0,0.0,0.0,-2.0426,-2.0423,-2.0423,-2.0559,-2.0508,-2.051,-2.0713,0.0,0.0,0.0,0.0,0.0,0.0,0.0,-1.9666,-1.9771,-1.9117,-1.8869,-1.9722,-2.0043,-2.0256,-2.0321,0.0,0.0,-1.7986,-1.7839,-1.7905,-1.7961,-1.8048,-1.8102,-1.8147,-1.8089,-1.7951,0.0,0.0,0.0,0.0,0.0,0.0,0.0,0.0,-3.7434,-3.7105,0.0,-3.6537,0.0,0.0,0.0,0.0,0.0,0.0,0.0,0.0,-3.3814,-3.3514,-3.3484,-3.3455,-3.3484,-3.3514,-3.3455,-3.3125,-3.2467,-3.1869,0.0,0.0,0.0,0.0,0.0,0.0,-2.9894,-2.8727,-2.8637,-2.8278,-2.7645,-2.6986,-2.6602,-2.6542,-2.5322,-2.4291,-2.3599,-2.3547,-2.3297,-2.2775,-2.2558,0.0,0.0,0.0,0.0,0.0,0.0,0.0,0.0,0.0,0.0,0.0,0.0,0.0,0.0,0.0,0.0,0.0,0.0,0.0,0.0,-2.192,0.0,0.0,0.0,0.0,0.0,0.0,0.0,0.0,0.0,0.0,-2.0416,-2.0337,-2.0302,-2.032,0.0,0.0,0.0,0.0,-2.086,-2.1055,-2.1087,-2.1087,-2.1135,-2.0942,-2.0828,-2.1006,0.0,0.0,-2.0402,-2.0732,-2.0893,-2.0975,-2.0469,-1.9596,-1.8155,-1.7974,-1.7962,-1.7894,-1.7927,-1.7994,-1.7983,-1.7961,-1.7905,-4.1265,0.0,0.0,0.0,0.0,-3.9529,-3.926,-3.8811,-3.8302,-3.8033,-3.7823,-3.7345,0.0,0.0,0.0,0.0,0.0,0.0,-3.4951,-3.4503,-3.4324,-3.3994,-3.3514,-3.3514,-3.3514,-3.3514,-3.3514,-3.3395,-3.3215,-3.3036,-3.2467,-3.1511,0.0,0.0,0.0,0.0,-3.0313,-2.9924,-2.9056,-2.8517,-2.8308,-2.7675,-2.7076,-2.6602,-2.5764,-2.4993,-2.4291,-2.4223,-2.3948,-2.3378,-2.2994,0.0,0.0,0.0,0.0,0.0,0.0,0.0,0.0,0.0,0.0,0.0,0.0,0.0,0.0,0.0,0.0,0.0,0.0,0.0,-2.1794,-2.1774,-2.1833,0.0,0.0,0.0,0.0,0.0,0.0,0.0,0.0,0.0,-2.0704,-2.0261,-1.9993,0.0,0.0,-2.0181,-2.0405,-2.051,-2.0645,-2.0809,0.0,0.0,0.0,-2.0793,-2.0743,-2.0809,-2.0384,-2.018,-2.0519,-2.0746,-2.0893,-2.1009,-2.0921,-2.0534,-1.9575,-1.8956,-1.8472,-1.7975,-1.7828,-1.7861,-1.7873,-1.7816,-1.7816,-4.4137,-4.2851,-4.1803,-4.1332,-4.1175,-4.1175,-4.0965,-4.0546,-4.0157,-3.9529,-3.8781,-3.8392,-3.7704,-3.6836,-3.6866,0.0,0.0,0.0,-3.5908,-3.5312,-3.5312,-3.4921,-3.4322,-3.4292,-3.4292,-3.4292,-3.4292,-3.4143,-3.3873,-3.3904,-3.3365,-3.2288,0.0,0.0,-3.1869,-3.1241,-3.0761,-3.0492,-2.9744,-2.9116,-2.8607,-2.7944,-2.7285,-2.6602,-2.6213,-2.5704,-2.5023,-2.4977,-2.4529,-2.367,-2.3777,-2.3913,0.0,0.0,0.0,0.0,0.0,0.0,0.0,0.0,0.0,0.0,0.0,-2.1873,0.0,0.0,0.0,0.0,-2.3251,-2.2862,-2.2493,-2.2443,0.0,0.0,0.0,0.0,0.0,0.0,0.0,-2.2404,-2.1758,-2.1258,-2.1162,-2.0794,-2.0418,-2.0036,-1.994,-1.9975,-2.0216,0.0,-2.034,-2.0443,-2.0494,-2.0527,-2.0559,-2.0508,-2.0508,-2.0542,-2.0511,-2.0554,-2.0782,-2.1092,-2.1287,-2.1418,-2.1515,-2.138,-2.0589,-2.0094,-1.9464,-1.8471,-1.8234,-1.8166,-1.7884,-1.7772,-1.7772,-4.6531,-4.5155,-4.2731,-4.2081,-4.262,-4.262,-4.265,-4.262,-4.253,-4.1444,-3.9768,-3.9582,-3.8841,-3.7584,-3.7494,0.0,-3.7404,-3.7404,-3.7075,-3.6567,-3.6507,-3.6178,-3.5579,-3.5519,-3.5489,-3.5489,-3.5489,-3.519,-3.4593,-3.4593,-3.4294,-3.3664,-3.2976,-3.2617,-3.2467,-3.1899,-3.1241,-3.0612,-3.0522,-2.9894,-2.8697,-2.8034,-2.7375,-2.6782,-2.6692,-2.6363,-2.5734,-2.5674,-2.5106,-2.3939,-2.4842,-2.5473,-2.5597,0.0,0.0,0.0,0.0,0.0,0.0,0.0,0.0,0.0,0.0,0.0,0.0,0.0,0.0,0.0,-2.3699,0.0,-2.361,-2.364,0.0,0.0,0.0,-2.3915,-2.4052,-2.3445,-2.301,-2.2877,0.0,0.0,0.0,0.0,-2.1265,-2.011,-1.99,-1.9924,-2.0079,-2.0053,-2.001,-2.0098,-2.0098,-2.015,-2.0285,-2.0185,-2.0168,-2.0354,-2.0645,-2.091,-2.1166,-2.1569,-2.1882,-2.1979,-2.2161,-2.209,-2.138,-2.1258,-2.0818,-1.9396,-1.8978,-1.8674,-1.8087,-1.785,-1.7805,-4.683,-4.5992,-4.4855,-4.4436,-4.4586,-4.4616,-4.4616,-4.4496,-4.3539,-4.2781,-4.2303,-4.1354,-4.0187,-3.8865,-3.8392,-3.7883,-3.7404,-3.7404,-3.7315,-3.7165,-3.6716,-3.6417,-3.6237,-3.5759,-3.5489,-3.5489,-3.5489,-3.5429,-3.528,-3.525,-3.519,-3.5011,-3.4352,-3.3514,-3.2527,-3.2318,-3.1929,-3.1271,-3.0761,-3.0133,-2.9382,-2.8723,-2.8278,-2.8128,-2.7645,-2.7046,-2.6393,-2.6363,-2.6177,-2.5668,-2.5591,-2.567,-2.5896,-2.5355,0.0,0.0,0.0,0.0,0.0,0.0,0.0,0.0,0.0,-2.4558,-2.472,0.0,-2.5136,0.0,-2.4687,-2.4156,-2.364,-2.4036,0.0,0.0,-2.441,-2.441,-2.4455,-2.3876,-2.3434,-2.3413,-2.2873,-2.2484,-2.2463,-2.1994,-2.1595,-2.1265,-2.0843,-2.0605,-2.0716,-2.0309,-2.0005,-2.0023,-2.0041,-2.0041,-2.0076,-2.0058,-2.0111,-2.0354,-2.0561,-2.0908,-2.1293,-2.1617,-2.1886,-2.2109,-2.2223,-2.2212,-2.2057,-2.2057,-2.1684,-2.0784,-1.9735,-1.8855,-1.8674,-1.82,-1.7805,-4.7608,-4.6741,-4.6352,-4.6172,-4.6172,-4.5873,-4.5753,-4.5663,-4.4646,-4.3828,-4.323,-4.1953,-4.0965,-4.0247,-3.9589,-3.908,-3.8721,-3.8422,-3.8153,-3.7823,-3.7494,-3.7045,-3.651,-3.6118,-3.5789,-3.5489,-3.5489,-3.5489,-3.5489,-3.5489,-3.5489,-3.5489,-3.513,-3.4412,-3.3425,-3.3095,-3.2617,-3.1959,-3.0972,-3.0342,-2.9983,-2.9385,-2.8906,-2.8607,-2.8248,-2.7735,-2.7076,-2.7046,-2.6986,-2.6866,-2.6626,-2.6578,-2.6688,-2.6212,-2.6015,0.0,0.0,0.0,0.0,0.0,0.0,0.0,0.0,0.0,0.0,0.0,-2.5615,0.0,-2.5262,0.0,-2.4537,-2.4814,-2.5023,-2.5053,-2.5023,-2.4933,-2.4634,-2.4246,-2.3939,-2.364,-2.331,-2.3122,-2.3092,-2.2772,-2.2532,-2.2532,-2.2034,-2.1553,-2.128,-2.0737,-2.0315,-2.0315,-2.0062,-1.9851,-1.9851,-1.9851,-1.9957,-2.0202,-2.0443,-2.0778,-2.1277,-2.1617,-2.1886,-2.2157,-2.2271,-2.2313,-2.2313,-2.2313,-2.2144,-2.1684,-2.075,-1.9769,-1.9046,-1.8584,-1.8234,-4.8566,-4.7429,-4.7339,-4.7309,-4.7249,-4.6711,-4.6399,-4.6339,-4.5633,-4.4556,-4.32,-4.2132,-4.1602,-4.1474,-4.0905,-4.0576,-4.0367,-3.9798,-3.917,-3.8542,-3.8422,-3.7793,-3.6746,-3.6567,-3.6178,-3.5639,-3.5549,-3.5489,-3.5489,-3.5489,-3.5489,-3.5489,-3.5489,-3.522,-3.4653,-3.4023,-3.3335,-3.2527,-3.136,-3.0731,-3.0642,-3.0013,-2.9445,-2.8876,-2.8667,-2.8338,-2.7764,-2.7645,-2.7645,-2.7705,-2.7735,-2.7764,-2.7824,-2.7315,-2.7151,0.0,-2.7085,0.0,0.0,0.0,0.0,0.0,0.0,0.0,0.0,-2.5854,-2.5824,-2.5734,-2.5734,-2.5704,-2.5591,-2.5674,-2.5734,-2.5734,-2.5734,-2.5495,-2.4933,-2.4784,-2.4485,-2.3909,-2.3849,-2.3849,-2.3759,-2.3729,-2.3729,-2.352,-2.3092,-2.2583,-2.2044,-2.1325,-2.0797,-2.0718,-2.0139,-1.9726,-1.9726,-1.9708,-1.9815,-2.0063,-2.034,-2.0695,-2.1214,-2.1587,-2.1886,-2.2123,-2.2257,-2.2313,-2.2313,-2.2313,-2.2313,-2.2245,-2.1684,-2.0852,-1.9655,-1.9159,-1.8809,-4.885,-4.8057,-4.7519,-4.7309,-4.7309,-4.716,-4.713,-4.704,-4.5813,-4.4556,-4.329,-4.309,-4.2671,-4.2231,-4.2081,-4.1414,-4.0427,-4.0277,-3.9858,-3.92,-3.8661,-3.8272,-3.7973,-3.6956,-3.645,-3.6267,-3.5759,-3.5489,-3.5489,-3.5489,-3.5489,-3.5489,-3.5489,-3.5429,-3.531,0.0,0.0,0.0,-3.2258,-3.1839,-3.1301,-3.0672,-3.0253,-3.0133,-2.9146,0.0,-2.8397,-2.7884,-2.7854,-2.8368,-2.8397,0.0,0.0,0.0,0.0,0.0,0.0,0.0,0.0,0.0,0.0,0.0,-2.7325,-2.72,-2.7225,-2.7225,-2.7016,-2.6452,-2.6422,-2.6183,-2.5674,-2.6093,-2.6422,-2.6393,-2.6393,-2.6363,-2.6213,-2.5764,-2.5352,-2.5232,-2.5226,-2.5016,-2.4485,-2.4425,-2.4186,-2.3729,-2.349,-2.34,-2.3221,-2.2203,-2.1335,-2.0778,-2.0198,-1.9768,-1.9708,-1.9768,-1.9858,-2.0063,-2.0323,-2.0695,-2.1198,-2.1572,-2.1871,-2.2123,-2.2257,-2.2313,-2.2313,-2.2313,-2.2313,-2.2313,-2.2178,-2.182,-2.0953,-2.023,-1.9575,-4.9164,0.0,-4.7938,-4.7608,0.0,-4.7309,-4.7309,-4.7249,-4.6232,-4.5065,-4.3808,-4.3439,-4.311,-4.2821,-4.256,-4.2051,-4.1362,-4.0696,-4.0217,-3.9858,-3.92,-3.8721,-3.8362,-3.7734,-3.7105,-3.651,-3.6148,-3.5818,-3.5519,-3.5489,-3.5489,-3.5489,-3.5489,-3.5489,-3.5489,-3.5489,-3.4831,-3.3484,-3.3155,-3.2647,-3.2019,-3.1659,-3.118,-3.0522,0.0,0.0,0.0,0.0,0.0,0.0,0.0,0.0,0.0,0.0,0.0,-2.9116,-2.9412,-2.9322,-2.8663,-2.8933,-2.8963,-2.8603,-2.8603,-2.8304,-2.7645,-2.7585,-2.7465,-2.7136,-2.7106,-2.6956,-2.6656,-2.6926,-2.7106,-2.7106,-2.7106,-2.6986,-2.6656,-2.6303,-2.5974,-2.5674,-2.5615,-2.5465,-2.5143,-2.4784,-2.4485,-2.4126,-2.3789,-2.361,-2.352,-2.2802,-2.1954,-2.1306,-2.0946,-2.0696,-2.0666,-2.0348,-2.0291,-2.052,-2.0522,-2.0662,-2.1135,-2.148,-2.1816,-2.2032,-2.218,-2.2271,-2.2313,-2.2313,-2.2313,-2.2313,-2.2313,-2.2212,-2.1786,-2.1143,-2.0365,-4.9553,-4.8446,-4.8327,-4.7908,-4.7309,-4.7309,-4.7309,-4.7249,0.0,0.0,0.0,-4.3708,-4.3409,-4.326,-4.2791,-4.25,-4.2321,-4.1115,-4.0487,-4.0367,-3.9738,-3.911,-3.8571,-3.8452,-3.7853,-3.6836,-3.6596,-3.6207,-3.5699,-3.5579,-3.5489,-3.5489,-3.5489,-3.5489,-3.5489,-3.5489,-3.525,-3.4683,-3.4024,-3.3275,-3.2527,-3.2497,-3.1928,-3.0731,-3.0552,-3.0283,-2.9774,-2.9624,-2.9651,-2.9744,-2.9744,-2.9804,-2.9951,-2.9924,-2.9864,-2.9771,-2.9864,-2.9834,-2.9594,-2.9684,-2.9711,-2.9621,-2.9621,-2.9142,-2.8034,-2.7944,-2.7944,-2.7944,-2.7944,-2.7914,-2.7794,-2.7794,-2.7735,-2.7615,-2.7585,-2.7375,-2.6896,-2.6782,-2.6596,-2.6063,-2.6033,-2.5914,-2.577,-2.5322,-2.4814,-2.4575,-2.4126,-2.3699,-2.355,-2.3041,-2.2463,-2.1964,-2.1665,-2.1635,-2.1605,-2.1246,-2.0952,-2.0935,-2.0742,-2.07,-2.1006,-2.1357,-2.1617,-2.1915,-2.208,-2.2166,-2.2237,-2.2299,-2.2313,-2.2313,-2.2313,-2.2313,-2.2245,-2.182,-2.1143,-4.9793,-4.912,-4.8506,-4.7908,-4.7309,-4.7309,-4.7309,-4.7249,-4.6591,-4.5532,-4.4317,-4.4227,-4.3828,-4.329,-4.32,-4.288,-4.2351,-4.1602,-4.0935,0.0,-3.9709,-3.9313,-3.9194,-3.8661,-3.8302,-3.8033,-3.7015,-3.6447,-3.6297,-3.5789,-3.5489,-3.5489,-3.5489,-3.5489,-3.5489,-3.5489,-3.5459,-3.534,-3.4713,-3.3724,-3.2557,-3.2497,-3.2168,-3.1391,-3.0821,-3.0462,-3.0372,-2.9894,-2.9861,-3.0342,-3.0372,-3.0642,-3.1182,-3.1212,-3.1001,-3.0462,-3.0883,-3.0733,-2.9741,-3.0073,-3.0133,-2.9681,-2.9621,-2.9502,-2.9352,-2.9322,-2.9322,-2.9322,-2.9235,-2.9082,-2.8547,-2.8457,-2.8188,-2.7705,-2.7585,-2.7555,-2.7435,-2.7405,-2.7375,-2.7225,-2.7315,-2.7046,-2.6537,-2.6333,-2.5794,-2.4903,-2.4605,-2.4276,-2.3729,-2.3071,-2.2703,-2.2493,-2.2074,-2.1754,-2.1814,-2.1665,-2.1424,-2.0918,-2.1027,-2.1007,-2.0835,-2.1151,-2.1467,-2.1693,-2.1868,-2.2061,-2.218,-2.2285,-2.2313,-2.2313,-2.2313,-2.2313,-2.2313,-2.2144,-2.184,-5.0182,-4.9329,-4.897,-4.8237,-4.7309,-4.7309,-4.7309,-4.7279,-4.698,-4.6112,-4.4855,-4.4466,-4.3917,-4.3319,-4.329,-4.314,-4.2851,-4.2222,-4.1602,-4.0905,-4.0247,-3.9732,-3.9373,-3.911,-3.8751,-3.8362,-3.7823,-3.7199,-3.6507,-3.6178,-3.5878,-3.5519,-3.5489,-3.5489,-3.5489,-3.5489,-3.5489,-3.5489,-3.519,-3.4562,-3.3604,-3.3574,-3.3275,-3.2617,-3.2287,-3.2138,-3.2108,-3.1869,-3.1839,-3.2108,-3.1779,-3.169,-3.1989,-3.169,-3.1361,-3.1062,-3.1331,-3.1241,-3.0644,-3.0911,-3.0913,-3.0672,-3.0614,-3.0642,-3.0642,-2.9983,-2.9621,-2.9621,-2.9621,-2.9472,-2.9146,-2.8816,-2.8457,-2.8158,-2.7824,-2.7585,-2.7585,-2.7585,-2.7585,-2.7585,-2.7585,-2.7465,-2.7195,-2.6811,-2.6452,-2.5734,-2.5412,-2.4874,-2.4246,-2.3939,-2.358,-2.3272,-2.2921,-2.2772,-2.2712,-2.2433,-2.2174,-2.1923,-2.1736,-2.1504,-2.1157,-2.1346,-2.1504,-2.1545,-2.1753,-2.1959,-2.2137,-2.2257,-2.2299,-2.2313,-2.2313,-2.2313,-2.2313,-2.2313,-2.2178,-5.0331,-4.9299,-4.9149,-4.8386,-4.7339,-4.7309,-4.7309,-4.7279,-4.713,-4.6411,-4.5304,-4.4766,-4.4077,-4.3319,-4.329,-4.329,-4.32,-4.2641,-4.2111,-4.1572,-4.0786,-4.0127,-3.9649,-3.9463,-3.914,-3.8631,-3.8482,-3.7883,-3.6985,-3.6776,-3.6357,-3.5789,-3.5729,-3.5639,-3.5489,-3.5489,-3.5489,-3.5489,-3.5489,-3.516,-3.4533,-3.4503,-3.4204,-3.3544,-3.3484,-3.3514,-3.3514,-3.3514,-3.3514,-3.3484,-3.3006,-3.2736,-3.2706,-3.2228,-3.1959,-3.1929,-3.1929,-3.1869,-3.175,-3.172,-3.166,-3.1511,-3.1511,-3.1481,-3.1421,-3.0612,-3.0013,-3.0013,-3.0073,-2.9983,-2.9774,-2.9385,-2.8966,-2.8816,-2.8393,-2.8064,-2.7884,-2.7824,-2.7764,-2.7645,-2.7585,-2.7585,-2.7525,-2.7165,-2.6752,-2.6512,-2.6033,-2.5405,-2.4933,-2.4754,-2.4365,-2.3977,-2.3729,-2.355,-2.358,-2.3221,-2.2873,-2.2836,-2.2455,-2.2026,-2.1701,-2.1664,-2.1682,-2.1569,-2.167,-2.186,-2.208,-2.2223,-2.2299,-2.2313,-2.2313,-2.2313,-2.2313,-2.2313,-2.2279,-4.9912,-4.9269,-4.87,-4.7967,-4.7339,-4.7309,-4.7309,-4.7219,-4.6681,-4.5992,-4.5304,-4.5244,-4.4466,-4.3409,-4.329,-4.329,-4.323,-4.2671,-4.2381,-4.2171,-4.0965,-4.0367,-4.0217,-3.9709,-3.9379,-3.923,-3.8721,-3.8362,-3.8093,-3.7554,-3.6985,-3.6447,-3.642,-3.6088,-3.5579,-3.5519,-3.5519,-3.5489,-3.5489,-3.519,-3.4563,-3.4503,-3.4173,-3.3514,-3.3514,-3.3514,-3.3574,-3.3514,-3.3514,-3.3514,-3.3455,-3.3395,-3.3395,-3.3335,-3.3305,-3.3275,-3.3275,-3.3066,-3.2497,-3.2407,-3.2138,-3.157,-3.154,-3.1511,-3.1511,-3.1391,-3.1301,-3.1241,-3.1271,-3.0972,-3.0522,-3.0313,-2.9983,-2.9535,-2.9355,-2.9202,-2.8607,-2.8517,-2.8248,-2.7645,-2.7645,-2.7585,-2.7585,-2.7495,-2.7255,-2.6752,-2.6243,-2.5764,-2.5525,-2.5113,-2.4754,-2.4455,-2.4036,-2.3699,-2.361,-2.358,-2.3272,-2.2873,-2.2755,-2.2506,-2.2136,-2.1769,-2.1582,-2.1754,-2.1713,-2.1741,-2.1945,-2.2104,-2.2313,-2.2313,-2.2313,-2.2313,-2.2313,-2.2313,-2.2313,-4.9613,-4.8686,-4.8386,-4.7908,-4.7339,-4.7309,-4.7309,-4.7249,-4.6621,-4.5933,-4.5274,-4.4885,-4.4197,-4.3319,-4.329,-4.329,-4.326,-4.306,-4.2731,-4.2381,-4.1811,-4.1183,-4.0427,-4.0157,-3.9798,-3.9439,-3.911,-3.8781,-3.8332,-3.7734,-3.7285,-3.7075,-3.7045,-3.6716,-3.6118,-3.6088,-3.5908,-3.5519,-3.5489,-3.537,-3.513,-3.507,-3.4951,-3.4741,-3.4681,-3.4681,-3.4681,-3.4681,-3.4681,-3.4651,-3.4322,-3.4114,-3.4083,-3.3724,-3.3514,-3.3514,-3.3514,-3.3365,-3.3095,-3.3095,-3.2826,-3.2138,-3.2079,-3.1929,-3.154,-3.1511,-3.1511,-3.1511,-3.1511,-3.1361,-3.1092,-3.0761,-3.0402,-3.0133,-2.9831,-2.9475,-2.9235,-2.8846,-2.8457,-2.8188,-2.7854,-2.7615,-2.7585,-2.7585,-2.7495,-2.7225,-2.6901,-2.6602,-2.6243,-2.5944,-2.5644,-2.5262,-2.4933,-2.4418,-2.3849,-2.361,-2.346,-2.3332,-2.3263,-2.3086,-2.2596,-2.2136,-2.1886,-2.1862,-2.1681,-2.167,-2.1886,-2.208,-2.2257,-2.2285,-2.2313,-2.2313,-2.2313,-2.2313,-2.2313,-4.9314,-4.8327,-4.8087,-4.7758,-4.7309,-4.7309,-4.7189,-4.695,-4.6322,-4.5663,-4.4975,-4.4317,-4.3738,-4.3349,-4.329,-4.329,-4.329,-4.329,-4.309,-4.2641,-4.25,-4.1833,-4.0965,-4.0726,-4.0427,-4.0038,-3.9978,-3.9619,-3.8931,-3.8272,-3.7883,-3.7704,-3.7674,-3.7345,-3.6776,-3.6596,-3.6267,-3.5818,-3.5609,-3.5489,-3.5489,-3.5489,-3.5489,-3.5489,-3.5489,-3.5489,-3.5489,-3.5489,-3.5489,-3.5489,-3.5011,-3.4771,-3.4741,-3.4292,-3.4053,-3.4053,-3.4053,-3.3963,-3.3815,-3.3754,-3.3484,-3.2886,-3.2796,-3.2497,-3.1929,-3.178,-3.169,-3.1511,-3.1511,-3.1511,-3.1451,-3.1062,-3.0821,-3.0761,-3.0372,-3.0073,-2.9834,-2.9385,-2.9086,-2.8846,-2.8513,-2.8064,-2.7914,-2.7735,-2.7555,-2.7555,-2.7555,-2.7465,-2.6986,-2.6692,-2.6363,-2.5944,-2.5734,-2.5196,-2.4328,-2.4029,-2.3909,-2.3819,-2.3789,-2.3443,-2.3077,-2.2667,-2.2244,-2.2186,-2.1771,-2.1599,-2.1786,-2.2007,-2.2228,-2.2285,-2.2313,-2.2313,-2.2313,-2.2313,-2.2313,-4.8925,-4.8237,-4.7608,-4.7369,-4.7309,-4.7309,-4.695,-4.6441,-4.5693,-4.4975,-4.4407,-4.3718,-4.3349,-4.329,-4.329,-4.329,-4.329,-4.329,-4.326,-4.314,-4.2671,-4.2381,-4.2261,-4.1654,-4.1294,-4.1115,-4.1115,-4.0816,-4.0187,-3.9619,-3.899,-3.8392,-3.8362,-3.8033,-3.7404,-3.6866,-3.6507,-3.6387,-3.5878,-3.5519,-3.5519,-3.5519,-3.5489,-3.5489,-3.5489,-3.5489,-3.5489,-3.5489,-3.5489,-3.5489,-3.5429,-3.5429,-3.5429,-3.537,-3.531,-3.534,-3.537,-3.51,-3.4532,-3.4442,-3.4174,-3.3574,-3.3455,-3.3185,-3.2557,-3.2467,-3.2198,-3.16,-3.16,-3.157,-3.1511,-3.1421,-3.1361,-3.1361,-3.1391,-3.1062,-3.0522,-3.0342,-3.0133,-2.9684,-2.9412,-2.9082,-2.8607,-2.8004,-2.7824,-2.7735,-2.7675,-2.7615,-2.7525,-2.7046,-2.6686,-2.6482,-2.6123,-2.5591,-2.5442,-2.4926,-2.4605,-2.4365,-2.4029,-2.361,-2.3477,-2.3241,-2.2836,-2.253,-2.2301,-2.2085,-2.188,-2.1919,-2.2171,-2.2271,-2.2299,-2.2299,-2.2237,-2.2265,-2.2265,-4.867,-4.7638,-4.7399,-4.7309,-4.7309,-4.7309,-4.716,-4.683,-4.5753,-4.5155,-4.4766,-4.3768,-4.329,-4.329,-4.329,-4.329,-4.329,-4.329,-4.329,-4.329,-4.309,-4.2761,-4.2381,-4.2141,-4.1773,-4.1452,-4.1422,-4.1055,-4.0457,-4.0127,-3.9709,-3.914,-3.905,-3.8721,-3.8123,-3.7823,-3.7524,-3.7045,-3.6447,-3.6118,-3.6058,-3.5729,-3.5489,-3.5489,-3.5489,-3.5489,-3.5489,-3.5489,-3.5489,-3.5489,-3.5489,-3.5489,-3.5489,-3.5489,-3.5489,-3.5489,-3.5489,-3.54,-3.516,-3.513,-3.4831,-3.4233,-3.4174,-3.3844,-3.3275,-3.3125,-3.2886,-3.2288,-3.2138,-3.1989,-3.16,-3.1511,-3.1511,-3.1511,-3.1511,-3.1451,-3.1122,-3.0763,-3.0402,-3.0163,-2.9891,-2.9502,-2.9292,-2.9022,-2.8903,-2.8843,-2.8543,-2.8278,-2.8154,-2.7675,-2.7255,-2.7225,-2.7021,-2.6871,-2.6896,-2.5884,-2.5143,-2.4724,-2.4335,-2.3977,-2.3743,-2.3278,-2.2838,-2.2851,-2.2752,-2.2546,-2.2264,-2.2137,-2.2343,-2.2228,-2.2209,-2.2194,-2.2118,-2.2118,-2.2166,-4.8073,-4.7239,-4.7149,-4.7135,-4.7092,-4.7179,-4.706,-4.6834,-4.598,-4.5514,-4.5155,-4.4347,-4.3917,-4.3958,-4.3947,-4.3768,-4.3589,-4.3409,-4.329,-4.329,-4.329,-4.312,-4.2761,-4.271,-4.2462,-4.2043,-4.1811,-4.1444,-4.1025,-4.0606,-4.0187,-3.9768,-3.9529,-3.92,-3.8751,-3.8512,-3.8153,-3.7674,-3.7105,-3.6716,-3.6477,-3.6058,-3.5699,-3.5549,-3.5489,-3.5489,-3.5489,-3.5489,-3.5489,-3.5489,-3.5489,-3.5489,-3.5489,-3.5489,-3.5489,-3.5489,-3.5489,-3.5489,-3.5489,-3.5489,-3.531,-3.4893,-3.4833,-3.4532,-3.3903,-3.3814,-3.3484,-3.3006,-3.2826,-3.2617,-3.2287,-3.2138,-3.2049,-3.1869,-3.1809,-3.1809,-3.178,-3.145,-3.112,-3.0793,-3.0283,-2.9953,-2.9834,-2.9711,-2.9592,-2.9621,-2.9175,-2.8936,-2.8846,-2.8393,-2.7914,-2.7914,-2.7675,-2.7495,-2.7405,-2.6692,-2.6093,-2.5644,-2.4784,-2.4395,-2.3969,-2.3426,-2.3111,-2.3162,-2.3091,-2.2861,-2.2702,-2.2544,-2.2389,-2.2243,-2.2104,-2.2089,-2.1998,-2.194,-2.1959,-4.7165,-4.6887,-4.6931,-4.68,-4.6697,-4.6844,-4.6604,-4.6232,-4.6181,-4.5819,-4.5382,-4.5173,-4.5024,-4.5185,-4.5065,-4.4855,-4.4197,-4.3648,-4.3349,-4.329,-4.329,-4.329,-4.32,-4.32,-4.32,-4.305,-4.2641,-4.2381,-4.2171,-4.1145,-4.0546,-4.0307,-3.9858,-3.9589,-3.9409,-3.8901,-3.8512,-3.8272,-3.7764,-3.7165,-3.6596,-3.6477,-3.6148,-3.5606,-3.5487,-3.5424,-3.5457,-3.5489,-3.5489,-3.5489,-3.5489,-3.5489,-3.5489,-3.5489,-3.5489,-3.5489,-3.5489,-3.5489,-3.5489,-3.5489,-3.5489,-3.537,-3.5459,-3.513,-3.4622,-3.4503,-3.4234,-3.3634,-3.3484,-3.3455,-3.3395,-3.3305,-3.3095,-3.2647,-3.2527,-3.2497,-3.2497,-3.2497,-3.2228,-3.1511,-3.0853,-3.0552,-3.0402,-3.0163,-2.9894,-2.9864,-2.9711,-2.9592,-2.9505,-2.9026,-2.8667,-2.8427,-2.8128,-2.7854,-2.7705,-2.7525,-2.7136,-2.6656,-2.5585,-2.4814,-2.4448,-2.3974,-2.3571,-2.3518,-2.346,-2.3259,-2.3267,-2.3077,-2.2702,-2.2493,-2.2274,-2.1997,-2.1779,-2.169,-2.1705,-4.6668,-4.6417,-4.6624,-4.6535,-4.6358,-4.658,-4.6594,-4.6387,-4.6016,-4.5819,-4.5709,-4.5305,-4.518,-4.5263,-4.5274,-4.4945,-4.4317,-4.4077,-4.3738,-4.3379,-4.3319,-4.329,-4.329,-4.329,-4.329,-4.326,-4.315,-4.2791,-4.2381,-4.1961,-4.1602,-4.1115,-4.0876,-4.0516,-4.0098,-3.9858,-3.9589,-3.905,-3.8422,-3.7973,-3.7704,-3.6824,-3.622,-3.5948,-3.5433,-3.5067,-3.51,-3.5326,-3.5489,-3.5489,-3.5489,-3.5489,-3.5489,-3.5489,-3.5489,-3.5489,-3.5489,-3.5489,-3.5489,-3.5489,-3.5489,-3.5489,-3.5489,-3.5429,-3.522,-3.516,-3.4861,-3.4294,-3.4204,-3.4054,-3.3604,-3.3514,-3.3455,-3.3215,-3.3185,-3.3185,-3.3125,-3.2796,-3.2228,-3.166,-3.1331,-3.1212,-3.1152,-3.0911,-3.0821,-3.0763,-3.0492,-3.0223,-3.0133,-2.9684,-2.9056,-2.8697,-2.8338,-2.8094,-2.7884,-2.7705,-2.7405,-2.7046,-2.6243,-2.5442,-2.5016,-2.459,-2.416,-2.3851,-2.3802,-2.3721,-2.3729,-2.3554,-2.3193,-2.2778,-2.2548,-2.2126,-2.1626,-2.1449,-2.1449,-4.6001,-4.5656,-4.5821,-4.5821,-4.573,-4.5956,-4.609,-4.6151,-4.5859,-4.583,-4.5945,-4.575,-4.5713,-4.5896,-4.598,-4.5663,-4.5065,-4.4825,-4.4317,-4.3678,-4.3349,-4.329,-4.329,-4.329,-4.329,-4.329,-4.329,-4.312,-4.2731,-4.25,-4.2171,-4.1841,-4.1542,-4.1175,-4.0756,-4.0516,-4.0157,-3.9738,-3.9038,-3.8525,-3.8162,-3.7238,-3.6414,-3.5903,-3.5326,-3.4965,-3.4794,-3.5304,-3.5565,-3.5451,-3.5487,-3.5489,-3.5489,-3.5489,-3.5489,-3.5489,-3.5489,-3.5489,-3.5489,-3.5489,-3.5489,-3.5489,-3.5489,-3.5489,-3.5489,-3.5489,-3.525,-3.4951,-3.4861,-3.4681,-3.4352,-3.4262,-3.4233,-3.4262,-3.4023,-3.3873,-3.3784,-3.3275,-3.2647,-3.2108,-3.1869,-3.175,-3.157,-3.1511,-3.1511,-3.1421,-3.1152,-3.0853,-3.0761,-3.0313,-2.9774,-2.9205,-2.8786,-2.8457,-2.8094,-2.7854,-2.7615,-2.7285,-2.6841,-2.6243,-2.5734,-2.5285,-2.4845,-2.4446,-2.4287,-2.3998,-2.3943,-2.3976,-2.3746,-2.3307,-2.2785,-2.2199,-2.1665,-2.1199,-2.1119,-4.5092,-4.4648,-4.4648,-4.4723,-4.4769,-4.4954,-4.5155,-4.5413,-4.5537,-4.5705,-4.6003,-4.6211,-4.6506,-4.6828,-4.6897,-4.6668,-4.6219,-4.5633,-4.5005,-4.4377,-4.3868,-4.3559,-4.3469,-4.3469,-4.3409,-4.3319,-4.329,-4.329,-4.317,-4.2761,-4.244,-4.241,-4.1923,-4.1474,-4.1354,-4.0816,-4.0546,-4.021,-3.9556,-3.8852,-3.8216,-3.7621,-3.6807,-3.5526,-3.5305,-3.501,-3.4761,-3.5429,-3.5739,-3.5406,-3.5514,-3.5489,-3.5489,-3.5489,-3.5489,-3.5489,-3.5489,-3.5489,-3.5489,-3.5489,-3.5489,-3.5489,-3.5489,-3.5489,-3.5489,-3.5489,-3.5459,-3.54,-3.54,-3.54,-3.537,-3.534,-3.534,-3.537,-3.4861,-3.4562,-3.4444,-3.3873,-3.3305,-3.2736,-3.2497,-3.2288,-3.169,-3.16,-3.1511,-3.1481,-3.1421,-3.1361,-3.1271,-3.0911,-3.0612,-3.0073,-2.9445,-2.9086,-2.8753,-2.8188,-2.7979,-2.7824,-2.735,-2.6782,-2.6243,-2.5764,-2.5249,-2.4909,-2.4631,-2.4337,-2.4205,-2.4238,-2.4058,-2.3597,-2.298,-2.2315,-2.1718,-2.1251,-2.0869,-4.4288,-4.3662,-4.3776,-4.3899,-4.3946,-4.3993,-4.4106,-4.4369,-4.4462,-4.4712,-4.5127,-4.5566,-4.609,-4.6668,-4.6887,-4.6748,-4.6326,-4.61,-4.5693,-4.5095,-4.4885,-4.4466,-4.4137,-4.4047,-4.3768,-4.3409,-4.3439,-4.329,-4.329,-4.318,-4.306,-4.309,-4.2821,-4.2521,-4.2171,-4.1931,-4.1294,-4.0479,-4.0062,-3.9402,-3.8561,-3.7587,-3.6769,-3.6094,-3.5455,-3.5135,-3.5001,-3.5754,-3.6217,-3.6168,-3.5696,-3.5489,-3.5487,-3.5487,-3.5424,-3.5424,-3.5457,-3.5489,-3.5489,-3.5489,-3.5489,-3.5489,-3.5489,-3.5489,-3.5489,-3.5489,-3.5489,-3.5489,-3.5489,-3.5489,-3.5489,-3.5489,-3.5489,-3.5489,-3.528,-3.5011,-3.4623,-3.4354,-3.3963,-3.3335,-3.2856,-3.2497,-3.2228,-3.1869,-3.163,-3.16,-3.157,-3.157,-3.157,-3.1361,-3.1002,-3.0642,-3.0103,-2.9774,-2.9385,-2.8757,-2.8397,-2.8308,-2.7829,-2.7165,-2.6572,-2.6033,-2.5475,-2.4919,-2.4832,-2.4614,-2.4523,-2.4524,-2.4137,-2.3795,-2.3367,-2.2778,-2.1869,-2.1233,-2.0804,-4.3165,-4.2431,-4.2577,-4.2674,-4.2798,-4.2798,-4.2943,-4.3156,-4.33,-4.3634,-4.4153,-4.4787,-4.5429,-4.6135,-4.6417,-4.6549,-4.644,-4.6228,-4.5943,-4.5687,-4.5681,-4.5334,-4.4885,-4.4706,-4.4496,-4.4227,-4.4097,-4.3988,-4.3768,-4.3708,-4.3559,-4.3319,-4.329,-4.312,-4.2761,-4.247,-4.1974,-4.1083,-4.0388,-3.9601,-3.8806,-3.767,-3.6618,-3.5975,-3.5384,-3.532,-3.5629,-3.5918,-3.6218,-3.6364,-3.5967,-3.5548,-3.5518,-3.5281,-3.5162,-3.5192,-3.5294,-3.5359,-3.5392,-3.5424,-3.5489,-3.5489,-3.5489,-3.5489,-3.5489,-3.5489,-3.5489,-3.5489,-3.5489,-3.5489,-3.5489,-3.5489,-3.5489,-3.5489,-3.5489,-3.534,-3.4921,-3.4951,-3.4592,-3.4084,-3.3574,-3.3185,-3.2976,-3.2557,-3.2407,-3.2347,-3.2138,-3.2049,-3.1929,-3.169,-3.1392,-3.0974,-3.0614,-3.0283,-2.9953,-2.9415,-2.8697,-2.8577,-2.8158,-2.7525,-2.7016,-2.6422,-2.6051,-2.5551,-2.5213,-2.4893,-2.4787,-2.4627,-2.4275,-2.3942,-2.3677,-2.3165,-2.2279,-2.1486,-2.1039,-4.1974,-4.1222,-4.1222,-4.1372,-4.1647,-4.1597,-4.1769,-4.194,-4.2213,-4.2604,-4.3136,-4.3871,-4.4602,-4.5367,-4.5747,-4.6151,-4.6388,-4.6049,-4.6016,-4.5984,-4.6083,-4.5943,-4.558,-4.5412,-4.5274,-4.5125,-4.5244,-4.4915,-4.4466,-4.4347,-4.3947,-4.3559,-4.3409,-4.329,-4.3071,-4.2722,-4.2306,-4.1655,-4.0693,-3.9817,-3.9025,-3.8014,-3.6894,-3.5762,-3.5358,-3.5587,-3.5937,-3.6005,-3.6069,-3.6704,-3.6003,-3.5682,-3.5565,-3.5064,-3.4869,-3.494,-3.5174,-3.5344,-3.5228,-3.5392,-3.5489,-3.5489,-3.5489,-3.5457,-3.5457,-3.5424,-3.5392,-3.5326,-3.5392,-3.5326,-3.5294,-3.5359,-3.5326,-3.5326,-3.5359,-3.5424,-3.5424,-3.5457,-3.525,-3.4713,-3.4563,-3.4204,-3.3814,-3.3544,-3.3455,-3.2946,-3.2736,-3.2467,-3.2229,-3.1871,-3.1604,-3.1275,-3.0947,-3.0673,-3.0374,-3.0073,-2.9325,-2.8757,-2.8308,-2.7794,-2.7465,-2.6991,-2.6752,-2.6381,-2.5905,-2.5364,-2.4893,-2.4658,-2.4407,-2.4081,-2.3754,-2.3366,-2.2818,-2.21,-2.1538,-4.1673,-4.0643,-4.0694,-4.0846,-4.1047,-4.0846,-4.0896,-4.1121,-4.1222,-4.1571,-4.2115,-4.2846,-4.3614,-4.4369,-4.4833,-4.5247,-4.5685,-4.5647,-4.5752,-4.6153,-4.6197,-4.6402,-4.6367,-4.6152,-4.5771,-4.5514,-4.5304,-4.5214,-4.5035,-4.4635,-4.4216,-4.4037,-4.3549,-4.321,-4.3031,-4.2912,-4.2386,-4.1615,-4.1155,-4.035,-3.9333,-3.8473,-3.7426,-3.6252,-3.5507,-3.5399,-3.576,-3.5928,-3.6119,-3.6199,-3.602,-3.564,-3.5554,-3.5518,-3.5309,-3.5172,-3.5463,-3.5592,-3.5344,-3.5386,-3.5489,-3.5457,-3.5424,-3.5424,-3.5294,-3.5261,-3.5129,-3.4964,-3.4865,-3.4831,-3.4702,-3.4798,-3.4865,-3.4898,-3.4935,-3.5034,-3.5067,-3.5294,-3.5335,-3.5188,-3.4769,-3.4442,-3.4262,-3.3813,-3.3663,-3.3514,-3.3212,-3.2853,-3.2524,-3.2167,-3.1782,-3.1516,-3.1396,-3.1097,-3.0796,-3.0466,-2.9834,-2.9116,-2.8577,-2.8128,-2.7824,-2.7465,-2.7136,-2.6836,-2.6477,-2.5912,-2.5342,-2.4791,-2.4546,-2.4204,-2.3861,-2.3464,-2.3039,-2.2435,-2.2024,-4.115,-4.016,-4.0108,-4.0211,-4.0287,-4.0211,-4.0185,-4.0338,-4.0491,-4.0846,-4.1398,-4.2016,-4.2701,-4.3396,-4.3851,-4.4228,-4.4602,-4.4879,-4.5173,-4.5582,-4.5792,-4.5972,-4.6195,-4.6211,-4.6016,-4.6105,-4.6262,-4.607,-4.5627,-4.5186,-4.4727,-4.4091,-4.3715,-4.3348,-4.292,-4.285,-4.239,-4.1622,-4.1071,-4.0388,-3.9378,-3.8611,-3.7645,-3.6468,-3.5447,-3.4977,-3.5386,-3.5359,-3.544,-3.548,-3.5413,-3.5332,-3.5179,-3.5041,-3.4854,-3.4848,-3.541,-3.5508,-3.5312,-3.5444,-3.5555,-3.5258,-3.5228,-3.5162,-3.5034,-3.503,-3.4831,-3.4601,-3.4467,-3.4337,-3.4167,-3.4167,-3.4269,-3.4433,-3.4471,-3.4539,-3.4702,-3.4997,-3.5228,-3.5169,-3.4901,-3.4785,-3.4579,-3.4191,-3.4252,-3.431,-3.3613,-3.3252,-3.3105,-3.2719,-3.2071,-3.1808,-3.1782,-3.1575,-3.1188,-3.0798,-3.0313,-2.9624,-2.9026,-2.8607,-2.8218,-2.7854,-2.7465,-2.7136,-2.6836,-2.6477,-2.5918,-2.5348,-2.4777,-2.4379,-2.404,-2.3627,-2.3215,-2.2795,-2.2474,-4.0752,-3.9798,-3.9722,-3.9697,-3.9697,-3.9697,-3.9749,-3.9749,-3.9929,-4.0338,-4.0795,-4.1298,-4.1868,-4.2457,-4.2771,-4.306,-4.3348,-4.3729,-4.4125,-4.4591,-4.4759,-4.5064,-4.5264,-4.5479,-4.5855,-4.6887,-4.6783,-4.6429,-4.6046,-4.5809,-4.4988,-4.4091,-4.3773,-4.3366,-4.2831,-4.2526,-4.2099,-4.1321,-4.077,-4.0083,-3.9267,-3.853,-3.7659,-3.6377,-3.5358,-3.4884,-3.5136,-3.5042,-3.4853,-3.4695,-3.4653,-3.4627,-3.4487,-3.4347,-3.3966,-3.4235,-3.5125,-3.5366,-3.5231,-3.5479,-3.5649,-3.5096,-3.5192,-3.5188,-3.5184,-3.5039,-3.4708,-3.4266,-3.3974,-3.3589,-3.3555,-3.352,-3.3624,-3.3762,-3.3865,-3.4031,-3.4196,-3.4501,-3.4572,-3.4835,-3.4747,-3.4692,-3.4754,-3.4607,-3.485,-3.4909,-3.4145,-3.3602,-3.3427,-3.31,-3.2333,-3.1787,-3.1651,-3.1545,-3.122,-3.1128,-3.0617,-3.0078,-2.9421,-2.8996,-2.8547,-2.7949,-2.7555,-2.7465,-2.7165,-2.6806,-2.6417,-2.5871,-2.5309,-2.4754,-2.4276,-2.3931,-2.3541,-2.3182,-2.2882,-4.0899,-4.035,-3.9873,-3.9697,-3.9697,-3.9697,-3.9697,-3.9697,-3.9749,-3.9929,-4.0287,-4.0593,-4.0946,-4.1272,-4.1521,-4.1769,-4.2164,-4.2431,-4.2744,-4.3177,-4.3368,-4.3654,-4.4266,-4.4406,-4.4823,-4.5446,-4.5718,-4.5721,-4.5651,-4.5302,-4.4909,-4.4516,-4.3858,-4.316,-4.2647,-4.2103,-4.1524,-4.0858,-4.0361,-3.9873,-3.9175,-3.8537,-3.7779,-3.6469,-3.5513,-3.5226,-3.5278,-3.5259,-3.5061,-3.4624,-3.44,-3.4067,-3.3995,-3.4357,-3.454,-3.4524,-3.5091,-3.5376,-3.5105,-3.5503,-3.5905,-3.5967,-3.5927,-3.602,-3.588,-3.5568,-3.4825,-3.3964,-3.3143,-3.2516,-3.2417,-3.2596,-3.264,-3.2775,-3.2988,-3.3199,-3.3269,-3.3479,-3.3791,-3.4133,-3.4298,-3.4467,-3.4467,-3.4467,-3.4433,-3.4332,-3.3863,-3.335,-3.3054,-3.2753,-3.2278,-3.1785,-3.1438,-3.1326,-3.1132,-3.1131,-3.0921,-3.0385,-2.9788,-2.9298,-2.876,-2.8038,-2.7645,-2.7555,-2.7435,-2.7195,-2.6776,-2.6303,-2.5794,-2.5202,-2.4724,-2.4246,-2.3879,-2.349,-2.3182,-4.0974,-4.0475,-3.9923,-3.9697,-3.9697,-3.9697,-3.9697,-3.9697,-3.9697,-3.9852,-4.0083,-4.0236,-4.044,-4.0694,-4.0795,-4.1047,-4.1222,-4.1372,-4.1644,-4.199,-4.2186,-4.2431,-4.2985,-4.3081,-4.3225,-4.3511,-4.3748,-4.4359,-4.4961,-4.4869,-4.4464,-4.3946,-4.3525,-4.3197,-4.2577,-4.2147,-4.1331,-4.0592,-4.0011,-3.9473,-3.8729,-3.8078,-3.7157,-3.6549,-3.573,-3.529,-3.522,-3.5085,-3.4914,-3.4686,-3.4546,-3.4174,-3.402,-3.4153,-3.4497,-3.4316,-3.4821,-3.5162,-3.4915,-3.531,-3.5684,-3.5455,-3.5638,-3.5747,-3.5601,-3.5187,-3.465,-3.3796,-3.2969,-3.2256,-3.232,-3.2051,-3.19,-3.1982,-3.2164,-3.2309,-3.239,-3.2561,-3.2917,-3.3339,-3.3548,-3.3722,-3.3957,-3.3922,-3.3854,-3.3687,-3.3444,-3.3108,-3.2653,-3.2409,-3.2104,-3.1797,-3.1447,-3.1237,-3.1092,-3.1011,-3.0955,-3.0484,-3.0094,-2.9582,-2.9065,-2.8409,-2.7893,-2.7615,-2.7495,-2.7405,-2.7195,-2.6776,-2.6213,-2.5704,-2.5113,-2.4605,-2.4216,-2.3849,-2.355,-4.1025,-4.0573,-3.9973,-3.9697,-3.9697,-3.9697,-3.9697,-3.9697,-3.9697,-3.98,-3.9981,-4.0032,-4.0134,-4.0313,-4.0338,-4.044,-4.0643,-4.0643,-4.082,-4.1071,-4.1222,-4.1398,-4.1571,-4.172,-4.194,-4.211,-4.2137,-4.255,-4.3606,-4.3956,-4.3686,-4.3259,-4.3296,-4.3125,-4.2405,-4.189,-4.126,-4.0531,-3.9639,-3.8859,-3.7939,-3.7131,-3.6599,-3.6573,-3.5825,-3.5446,-3.5476,-3.534,-3.5123,-3.4997,-3.4826,-3.4625,-3.4173,-3.4224,-3.4197,-3.4067,-3.4486,-3.4548,-3.4661,-3.5056,-3.5361,-3.5134,-3.5197,-3.5282,-3.5151,-3.4865,-3.4136,-3.3485,-3.2761,-3.2302,-3.2146,-3.1724,-3.1461,-3.1468,-3.149,-3.1495,-3.1616,-3.1763,-3.1946,-3.2345,-3.2668,-3.2917,-3.3094,-3.3164,-3.3058,-3.2988,-3.2775,-3.2561,-3.2198,-3.2181,-3.1935,-3.1709,-3.1439,-3.1249,-3.106,-3.0816,-3.0678,-3.0334,-3.0046,-2.9688,-2.9267,-2.8812,-2.8356,-2.7897,-2.7615,-2.7495,-2.7345,-2.7225,-2.6746,-2.6183,-2.5525,-2.5076,-2.4837,-2.4418,-2.3999,-4.125,-4.11,-4.0124,-3.9697,-3.9697,-3.9697,-3.9697,-3.9697,-3.9697,-3.9697,-3.9775,-3.9724,-3.98,-3.9852,-3.9852,-3.9852,-3.9903,-3.9955,-4.0134,-4.0338,-4.0389,-4.0643,-4.092,-4.0997,-4.1121,-4.1222,-4.1322,-4.1693,-4.2257,-4.2625,-4.2771,-4.2506,-4.2412,-4.2273,-4.1984,-4.1517,-4.0869,-4.0241,-3.9301,-3.8283,-3.7371,-3.6841,-3.6722,-3.6603,-3.6341,-3.6125,-3.6074,-3.5977,-3.583,-3.5433,-3.5408,-3.5132,-3.4751,-3.4625,-3.46,-3.4515,-3.4417,-3.4189,-3.433,-3.4856,-3.5238,-3.5184,-3.5477,-3.5812,-3.538,-3.4606,-3.3793,-3.3049,-3.2452,-3.2223,-3.2134,-3.1576,-3.1345,-3.1216,-3.1215,-3.1057,-3.1003,-3.1408,-3.1532,-3.1421,-3.1763,-3.1982,-3.2164,-3.22,-3.2237,-3.2164,-3.2082,-3.1873,-3.1763,-3.1726,-3.1783,-3.1602,-3.1426,-3.1227,-3.0867,-3.0672,-3.0315,-3.0069,-2.9951,-2.9755,-2.9431,-2.9013,-2.8696,-2.8271,-2.7931,-2.7764,-2.7705,-2.7525,-2.7195,-2.6746,-2.6153,-2.5824,-2.5555,-2.5076,-2.4515,-4.0824,-4.0802,-4.0023,-3.9697,-3.9697,-3.9697,-3.9697,-3.9697,-3.9697,-3.9697,-3.9697,-3.9697,-3.9697,-3.9697,-3.9697,-3.9697,-3.9697,-3.9697,-3.9749,-3.9852,-3.9878,-4.0032,-4.0134,-4.0236,-4.0338,-4.044,-4.044,-4.044,-4.087,-4.1421,-4.1769,-4.1617,-4.1679,-4.1692,-4.1515,-4.1134,-4.0649,-3.9913,-3.8851,-3.765,-3.6934,-3.6593,-3.6521,-3.6521,-3.6452,-3.6405,-3.6405,-3.6405,-3.6329,-3.6031,-3.6006,-3.5755,-3.5282,-3.5107,-3.5077,-3.4675,-3.4546,-3.4532,-3.4699,-3.489,-3.5031,-3.5042,-3.5133,-3.4965,-3.4815,-3.4395,-3.384,-3.3409,-3.288,-3.2557,-3.2363,-3.1847,-3.1603,-3.1439,-3.1289,-3.1033,-3.0945,-3.1061,-3.1227,-3.1031,-3.0898,-3.1187,-3.1447,-3.1606,-3.1616,-3.1532,-3.1458,-3.1272,-3.1272,-3.131,-3.1378,-3.1512,-3.1343,-3.1198,-3.0747,-3.0416,-2.9964,-2.9743,-2.9891,-2.9684,-2.9493,-2.9144,-2.8956,-2.8756,-2.8502,-2.8342,-2.8158,-2.7769,-2.7375,-2.7106,-2.6841,-2.6512,-2.6153,-2.5644,-2.5196,-4.0425,-4.0275,-3.9873,-3.9697,-3.9697,-3.9697,-3.9697,-3.9697,-3.9697,-3.9697,-3.9697,-3.9697,-3.9697,-3.9697,-3.9697,-3.9697,-3.9697,-3.9697,-3.9697,-3.9697,-3.9697,-3.9749,-3.98,-3.9749,-3.9749,-3.9697,-3.9852,-3.9903,-4.0032,-4.044,-4.082,-4.0744,-4.1019,-4.1069,-4.1045,-4.0841,-4.0406,-3.9458,-3.8475,-3.7447,-3.6603,-3.6405,-3.6405,-3.6405,-3.6405,-3.6405,-3.6405,-3.6405,-3.6405,-3.638,-3.6355,-3.6081,-3.5805,-3.573,-3.5629,-3.5353,-3.5244,-3.5289,-3.5263,-3.5244,-3.4992,-3.4839,-3.4632,-3.4464,-3.4021,-3.392,-3.381,-3.3462,-3.3182,-3.2953,-3.28,-3.2228,-3.1934,-3.1741,-3.1655,-3.1377,-3.1189,-3.1326,-3.1214,-3.0984,-3.0817,-3.0649,-3.0889,-3.1075,-3.1086,-3.0898,-3.0748,-3.0672,-3.071,-3.0823,-3.0846,-3.0992,-3.1093,-3.085,-3.0397,-2.9995,-2.959,-2.9408,-2.9587,-2.9554,-2.9353,-2.9433,-2.9489,-2.9273,-2.9077,-2.8734,-2.8457,-2.8034,-2.7585,-2.7375,-2.7195,-2.7021,-2.6692,-2.6183,-2.5764,-4.0199,-3.9747,-3.9722,-3.9697,-3.9697,-3.9697,-3.9697,-3.9697,-3.9697,-3.9697,-3.9697,-3.9697,-3.9697,-3.9697,-3.9697,-3.9697,-3.9697,-3.9697,-3.9697,-3.9697,-3.9697,-3.9697,-3.9697,-3.9697,-3.9697,-3.9697,-3.9697,-3.9697,-3.9749,-3.9852,-4.0083,-4.0185,-4.044,-4.0542,-4.0542,-4.0465,-3.9853,-3.9065,-3.8309,-3.7604,-3.6804,-3.6455,-3.6405,-3.6405,-3.6405,-3.6405,-3.6405,-3.6405,-3.6405,-3.6405,-3.6405,-3.6405,-3.6182,-3.6157,-3.6056,-3.6006,-3.6028,-3.6003,-3.5991,-3.5476,-3.5111,-3.4971,-3.4696,-3.4221,-3.3743,-3.3522,-3.3368,-3.324,-3.3131,-3.3114,-3.292,-3.2608,-3.2298,-3.2198,-3.2047,-3.1744,-3.1584,-3.159,-3.1498,-3.1066,-3.0851,-3.0777,-3.0586,-3.0804,-3.075,-3.0572,-3.0432,-3.033,-3.0279,-3.0356,-3.0292,-3.0381,-3.0646,-3.0436,-2.9873,-2.9554,-2.9486,-2.9273,-2.9201,-2.9258,-2.9172,-2.9377,-2.9755,-2.9781,-2.9566,-2.9166,-2.8757,-2.8308,-2.7949,-2.7705,-2.7495,-2.7315,-2.7195,-2.6811,-2.6333,-3.9898,-3.9697,-3.9697,-3.9697,-3.9697,-3.9697,-3.9697,-3.9697,-3.9697,-3.9697,-3.9697,-3.9697,-3.9697,-3.9697,-3.9697,-3.9697,-3.9697,-3.9697,-3.9697,-3.9697,-3.9697,-3.9697,-3.9697,-3.9697,-3.9697,-3.9697,-3.9697,-3.9697,-3.9697,-3.9697,-3.9749,-3.9903,-4.0006,-4.0006,-4.0006,-4.0006,-3.9449,-3.8868,-3.8314,-3.7686,-3.7084,-3.6556,-3.6405,-3.6405,-3.6405,-3.6405,-3.6405,-3.6405,-3.6405,-3.6405,-3.6405,-3.6405,-3.6405,-3.6405,-3.6405,-3.6405,-3.6405,-3.6405,-3.6329,-3.5747,-3.5219,-3.4785,-3.4445,-3.4085,-3.3745,-3.3492,-3.3248,-3.3111,-3.3162,-3.3187,-3.3061,-3.291,-3.2784,-3.2692,-3.2491,-3.219,-3.2081,-3.2063,-3.1786,-3.1413,-3.1211,-3.1084,-3.0806,-3.0567,-3.0405,-3.0279,-3.0113,-3.0011,-3.0011,-3.0011,-3.0049,-3.0088,-3.0318,-3.0394,-2.9859,-2.9676,-2.9516,-2.9227,-2.8935,-2.8992,-2.9094,-2.9519,-2.9772,-2.9899,-3.0045,-2.977,-2.9342,-2.8734,-2.8278,-2.7919,-2.7705,-2.7555,-2.7435,-2.7315,-2.6961,-3.9697,-3.9697,-3.9697,-3.9697,-3.9697,-3.9697,-3.9697,-3.9697,-3.9697,-3.9697,-3.9697,-3.9697,-3.9697,-3.9697,-3.9697,-3.9697,-3.9697,-3.9697,-3.9697,-3.9697,-3.9697,-3.9697,-3.9697,-3.9697,-3.9697,-3.9697,-3.9697,-3.9697,-3.9697,-3.9697,-3.9697,-3.9749,-3.9697,-3.9749,-3.9749,-3.9672,-3.9421,-3.8868,-3.8492,-3.7965,-3.7437,-3.7111,-3.6958,-3.6933,-3.6832,-3.6707,-3.6656,-3.6581,-3.6405,-3.6405,-3.6405,-3.6405,-3.6405,-3.6405,-3.6405,-3.643,-3.6405,-3.6405,-3.6304,-3.6031,-3.5529,-3.5077,-3.4751,-3.4424,-3.4098,-3.3771,-3.3721,-3.3438,-3.3345,-3.3269,-3.3237,-3.3061,-3.2993,-3.2935,-3.296,-3.2734,-3.2566,-3.2508,-3.2156,-3.1779,-3.1628,-3.1477,-3.1065,-3.0752,-3.0363,-3.0188,-2.9997,-2.9895,-2.9895,-2.9895,-2.9934,-3.0011,-3.0088,-3.0088,-2.9999,-2.9796,-2.9566,-2.9244,-2.8995,-2.89,-2.9067,-2.9463,-2.9738,-2.9824,-2.9956,-3.0191,-2.9947,-2.9349,-2.8711,-2.8098,-2.7884,-2.7585,-2.7555,-2.7465,-2.7475,-3.9697,-3.9697,-3.9697,-3.9697,-3.9697,-3.9697,-3.9697,-3.9697,-3.9697,-3.9697,-3.9697,-3.9697,-3.9697,-3.9697,-3.9697,-3.9697,-3.9697,-3.9697,-3.9697,-3.9697,-3.9697,-3.9697,-3.9697,-3.9697,-3.9697,-3.9697,-3.9697,-3.9697,-3.9697,-3.9697,-3.9697,-3.9697,-3.9697,-3.9697,-3.9697,-3.9697,-3.9421,-3.902,-3.8919,-3.8442,-3.809,-3.7839,-3.7713,-3.7613,-3.7362,-3.7161,-3.7111,-3.6782,-3.6656,-3.6732,-3.6606,-3.6606,-3.6681,-3.6581,-3.6531,-3.6505,-3.643,-3.6405,-3.6405,-3.638,-3.6006,-3.5533,-3.5232,-3.5031,-3.4756,-3.453,-3.4304,-3.3922,-3.3872,-3.3621,-3.337,-3.3187,-3.3212,-3.3136,-3.3136,-3.3086,-3.296,-3.2867,-3.2491,-3.229,-3.219,-3.1989,-3.1461,-3.0959,-3.0432,-3.0145,-2.988,-2.9779,-2.9804,-2.9818,-2.9856,-2.9895,-2.9934,-2.9934,-2.9895,-2.9856,-2.9668,-2.9315,-2.9108,-2.9031,-2.9065,-2.9302,-2.9545,-2.9663,-2.9879,-3.0072,-3.0075,-2.9982,-2.9322,-2.8621,-2.7889,-2.7615,-2.7585,-2.756,-2.7514,-3.9697,-3.9697,-3.9697,-3.9697,-3.9697,-3.9697,-3.9697,-3.9697,-3.9697,-3.9697,-3.9697,-3.9697,-3.9697,-3.9697,-3.9697,-3.9697,-3.9697,-3.9697,-3.9697,-3.9697,-3.9697,-3.9697,-3.9697,-3.9697,-3.9697,-3.9697,-3.9697,-3.9697,-3.9697,-3.9697,-3.9697,-3.9697,-3.9697,-3.9697,-3.9697,-3.9697,-3.9546,-3.9371,-3.9094,-3.8793,-3.8542,-3.8241,-3.8065,-3.8065,-3.7864,-3.7739,-3.7688,-3.7186,-3.7109,-3.7211,-3.7111,-3.7061,-3.7186,-3.7161,-3.691,-3.6857,-3.6732,-3.6405,-3.6405,-3.638,-3.6329,-3.6031,-3.5755,-3.5483,-3.5232,-3.4856,-3.4605,-3.448,-3.4449,-3.4148,-3.3796,-3.3671,-3.3571,-3.3212,-3.3136,-3.3136,-3.3061,-3.3018,-3.2867,-3.2842,-3.2742,-3.2416,-3.1938,-3.1461,-3.0934,-3.0407,-3.0156,-2.988,-2.9804,-2.9804,-2.9818,-2.9818,-2.9818,-2.9818,-2.9779,-2.9779,-2.9779,-2.958,-2.9353,-2.9207,-2.9236,-2.93,-2.9194,-2.928,-2.9624,-2.9907,-2.9923,-2.99,-2.9687,-2.9169,-2.8416,-2.7949,-2.7914,-2.7718,-2.7386,-3.9697,-3.9697,-3.9697,-3.9697,-3.9697,-3.9697,-3.9697,-3.9697,-3.9697,-3.9697,-3.9697,-3.9697,-3.9697,-3.9697,-3.9697,-3.9697,-3.9697,-3.9697,-3.9697,-3.9697,-3.9697,-3.9697,-3.9697,-3.9697,-3.9697,-3.9697,-3.9697,-3.9697,-3.9697,-3.9697,-3.9697,-3.9697,-3.9697,-3.9697,-3.9697,-3.9697,-3.9672,-3.9546,-3.932,-3.9195,-3.9069,-3.8868,-3.8668,-3.8592,-3.8467,-3.8316,-3.814,-3.7914,-3.7638,-3.7814,-3.7789,-3.7663,-3.7814,-3.7739,-3.7462,-3.7312,-3.6985,-3.6757,-3.6732,-3.6455,-3.6405,-3.6355,-3.5981,-3.5855,-3.5805,-3.5579,-3.5278,-3.5102,-3.4981,-3.4675,-3.4324,-3.4198,-3.3822,-3.3395,-3.3212,-3.3237,-3.3111,-3.3068,-3.3068,-3.3111,-3.3061,-3.2692,-3.2365,-3.1964,-3.1486,-3.0959,-3.0432,-3.0156,-2.988,-2.9804,-2.9779,-2.9779,-2.9779,-2.9779,-2.9779,-2.9779,-2.9779,-2.9779,-2.9631,-2.9466,-2.9332,-2.935,-2.9109,-2.8951,-2.9236,-2.9521,-2.9723,-2.9719,-2.9638,-2.9364,-2.8907,-2.8535,-2.8308,-2.8029,-2.7731,-3.9697,-3.9697,-3.9697,-3.9697,-3.9697,-3.9697,-3.9697,-3.9697,-3.9697,-3.9697,-3.9697,-3.9697,-3.9697,-3.9697,-3.9697,-3.9697,-3.9697,-3.9697,-3.9697,-3.9697,-3.9697,-3.9697,-3.9697,-3.9697,-3.9697,-3.9697,-3.9697,-3.9697,-3.9697,-3.9697,-3.9697,-3.9697,-3.9697,-3.9697,-3.9697,-3.9697,-3.9697,-3.9647,-3.9597,-3.9521,-3.9446,-3.9521,-3.9396,-3.9295,-3.9094,-3.8919,-3.8718,-3.8391,-3.8191,-3.8165,-3.809,-3.809,-3.809,-3.8065,-3.804,-3.7839,-3.7437,-3.7262,-3.7059,-3.6707,-3.648,-3.643,-3.638,-3.638,-3.6304,-3.6153,-3.5881,-3.568,-3.5554,-3.5203,-3.4851,-3.4474,-3.4073,-3.3721,-3.3395,-3.3269,-3.3162,-3.3111,-3.3111,-3.3111,-3.3111,-3.2867,-3.2541,-3.219,-3.2014,-3.1562,-3.1035,-3.0557,-3.0256,-2.9829,-2.9804,-2.9779,-2.9779,-2.9779,-2.9779,-2.9779,-2.9779,-2.9779,-2.987,-2.9745,-2.9604,-2.942,-2.9186,-2.9022,-2.8989,-2.9104,-2.9295,-2.9497,-2.9636,-2.9377,-2.9283,-2.9117,-2.8925,-2.8707,-2.8402,-3.9697,-3.9697,-3.9697,-3.9697,-3.9697,-3.9697,-3.9697,-3.9697,-3.9697,-3.9697,-3.9697,-3.9697,-3.9697,-3.9697,-3.9697,-3.9697,-3.9697,-3.9697,-3.9697,-3.9697,-3.9697,-3.9697,-3.9697,-3.9697,-3.9697,-3.9697,-3.9697,-3.9697,-3.9697,-3.9697,-3.9697,-3.9697,-3.9697,-3.9697,-3.9697,-3.9697,-3.9697,-3.9697,-3.9697,-3.9697,-3.9697,-3.9697,-3.9697,-3.9597,-3.9521,-3.9371,-3.9245,-3.8894,-3.8768,-3.9069,-3.8768,-3.8743,-3.9195,-3.8843,-3.8542,-3.804,-3.7789,-3.7638,-3.7262,-3.7036,-3.6832,-3.6531,-3.643,-3.6405,-3.6405,-3.638,-3.6304,-3.6107,-3.6006,-3.568,-3.5378,-3.5002,-3.4575,-3.4173,-3.3847,-3.3646,-3.3495,-3.3395,-3.337,-3.3262,-3.3237,-3.3061,-3.2717,-3.2692,-3.2491,-3.2114,-3.1687,-3.116,-3.0658,-3.0231,-2.9829,-2.9804,-2.9779,-2.9779,-2.9779,-2.9779,-2.9779,-2.9779,-2.987,-2.9883,-2.9719,-2.9479,-2.9247,-2.9078,-2.8961,-2.8859,-2.8843,-2.908,-2.9492,-2.9889,-2.9928,-2.9752,-2.9537,-2.9227,-2.8769,-3.9697,-3.9697,-3.9697,-3.9697,-3.9697,-3.9697,-3.9697,-3.9697,-3.9697,-3.9697,-3.9697,-3.9697,-3.9697,-3.9697,-3.9697,-3.9697,-3.9697,-3.9697,-3.9697,-3.9697,-3.9697,-3.9697,-3.9697,-3.9697,-3.9697,-3.9697,-3.9697,-3.9697,-3.9697,-3.9697,-3.9697,-3.9697,-3.9697,-3.9697,-3.9697,-3.9697,-3.9697,-3.9697,-3.9697,-3.9697,-3.9697,-3.9697,-3.9697,-3.9697,-3.9697,-3.9697,-3.9672,-3.927,-3.9421,-3.9647,-3.927,-3.932,-3.9647,-3.932,-3.9145,-3.8718,-3.8442,-3.8266,-3.7939,-3.7387,-3.7061,-3.6782,-3.6556,-3.643,-3.6405,-3.6405,-3.638,-3.6329,-3.6329,-3.6254,-3.5931,-3.5558,-3.5127,-3.465,-3.4374,-3.4098,-3.3947,-3.3796,-3.3646,-3.3445,-3.3294,-3.3187,-3.3086,-3.3136,-3.3036,-3.2616,-3.224,-3.1838,-3.1235,-3.0683,-3.0156,-2.9829,-2.9804,-2.9779,-2.9779,-2.9779,-2.9779,-2.9779,-2.9818,-2.9793,-2.9742,-2.9668,-2.9441,-2.9156,-2.8872,-2.8786,-2.8719,-2.9046,-2.9421,-2.9782,-2.9896,-2.9595,-2.9461,-2.949,-2.8965,-3.9697,-3.9697,-3.9697,-3.9697,-3.9697,-3.9697,-3.9697,-3.9697,-3.9697,-3.9697,-3.9697,-3.9697,-3.9697,-3.9697,-3.9697,-3.9697,-3.9697,-3.9697,-3.9697,-3.9697,-3.9697,-3.9697,-3.9697,-3.9697,-3.9697,-3.9697,-3.9697,-3.9697,-3.9697,-3.9697,-3.9697,-3.9697,-3.9697,-3.9697,-3.9697,-3.9697,-3.9697,-3.9697,-3.9697,-3.9697,-3.9697,-3.9697,-3.9697,-3.9697,-3.9697,-3.9697,-3.9697,-3.9672,-3.9697,-3.9697,-3.9697,-3.9672,-3.9647,-3.9647,-3.9597,-3.9496,-3.912,-3.8843,-3.8492,-3.799,-3.7538,-3.7161,-3.6784,-3.6707,-3.6707,-3.648,-3.643,-3.6405,-3.638,-3.638,-3.6132,-3.5931,-3.5554,-3.5203,-3.4856,-3.458,-3.4374,-3.4274,-3.4173,-3.3922,-3.3596,-3.3445,-3.3294,-3.3319,-3.3136,-3.2935,-3.2717,-3.2365,-3.1863,-3.1235,-3.0683,-3.008,-2.9854,-2.9804,-2.9779,-2.9779,-2.9779,-2.9779,-2.9779,-2.9779,-2.9754,-2.9692,-2.963,-2.9264,-2.8901,-2.8727,-2.8751,-2.8932,-2.9038,-2.9159,-2.9251,-2.9208,-2.9195,-2.924,-2.892,-3.9697,-3.9697,-3.9697,-3.9697,-3.9697,-3.9697,-3.9697,-3.9697,-3.9697,-3.9697,-3.9697,-3.9697,-3.9697,-3.9697,-3.9697,-3.9697,-3.9697,-3.9697,-3.9697,-3.9697,-3.9697,-3.9697,-3.9697,-3.9697,-3.9697,-3.9697,-3.9697,-3.9697,-3.9697,-3.9697,-3.9697,-3.9697,-3.9697,-3.9697,-3.9697,-3.9722,-3.9772,-3.9722,-3.9772,-3.9747,-3.9697,-3.9697,-3.9697,-3.9697,-3.9697,-3.9697,-3.9697,-3.9697,-3.9697,-3.9697,-3.9697,-3.9697,-3.9697,-3.9697,-3.9697,-3.9672,-3.9521,-3.927,-3.8944,-3.8592,-3.8191,-3.7889,-3.7588,-3.7337,-3.7061,-3.6609,-3.643,-3.643,-3.6405,-3.6405,-3.638,-3.6182,-3.6006,-3.573,-3.5408,-3.5107,-3.4806,-3.4731,-3.47,-3.4374,-3.3997,-3.3796,-3.3646,-3.342,-3.3212,-3.3086,-3.3061,-3.2767,-3.2365,-3.1838,-3.1311,-3.0708,-3.0005,-2.9854,-2.9804,-2.9779,-2.9779,-2.9779,-2.9779,-2.9779,-2.9779,-2.9767,-2.9667,-2.9277,-2.8923,-2.8886,-2.8753,-2.8517,-2.8641,-2.8826,-2.8604,-2.8595,-2.8329,-2.826,-2.8206,-3.9697,-3.9697,-3.9697,-3.9697,-3.9697,-3.9697,-3.9697,-3.9697,-3.9697,-3.9697,-3.9697,-3.9697,-3.9697,-3.9697,-3.9697,-3.9697,-3.9697,-3.9697,-3.9697,-3.9697,-3.9697,-3.9697,-3.9697,-3.9697,-3.9697,-3.9697,-3.9697,-3.9697,-3.9697,-3.9697,-3.9697,-3.9697,-3.9697,-3.9722,-3.9747,-3.9873,-3.9923,-3.9722,-3.9923,-3.9898,-3.9772,-3.9697,-3.9697,-3.9697,-3.9697,-3.9697,-3.9697,-3.9697,-3.9697,-3.9697,-3.9697,-3.9697,-3.9697,-3.9697,-3.9697,-3.9697,-3.9647,-3.9572,-3.927,-3.8994,-3.8768,-3.8492,-3.809,-3.7713,-3.7638,-3.7236,-3.6784,-3.6782,-3.6455,-3.6405,-3.6405,-3.6304,-3.6254,-3.6031,-3.5956,-3.578,-3.5529,-3.5378,-3.5253,-3.5006,-3.463,-3.4324,-3.4123,-3.3822,-3.3571,-3.342,-3.337,-3.3136,-3.2717,-3.2365,-3.1863,-3.1336,-3.0608,-3.0005,-2.9804,-2.9779,-2.9779,-2.9779,-2.9779,-2.9779,-2.9779,-2.9779,-2.9654,-2.9416,-2.9265,-2.9226,-2.9054,-2.8723,-2.8653,-2.8874,-2.8428,-2.8009,-2.7735,-2.759,-2.7527,-3.9697,-3.9697,-3.9697,-3.9697,-3.9697,-3.9697,-3.9697,-3.9697,-3.9697,-3.9697,-3.9697,-3.9697,-3.9697,-3.9697,-3.9697,-3.9697,-3.9697,-3.9697,-3.9697,-3.9697,-3.9697,-3.9697,-3.9697,-3.9697,-3.9697,-3.9697,-3.9697,-3.9697,-3.9697,-3.9697,-3.9697,-3.9697,-3.9772,-3.9823,-3.9973,-4.0249,-4.0475,-4.0249,-4.0249,-4.0174,-3.9973,-3.9722,-3.9697,-3.9697,-3.9697,-3.9697,-3.9697,-3.9697,-3.9697,-3.9697,-3.9697,-3.9697,-3.9697,-3.9697,-3.9697,-3.9697,-3.9697,-3.9672,-3.9546,-3.927,-3.9094,-3.8843,-3.8417,-3.8216,-3.8165,-3.7889,-3.7437,-3.7061,-3.6782,-3.6505,-3.6505,-3.643,-3.6405,-3.6355,-3.6355,-3.6355,-3.6081,-3.5881,-3.5755,-3.5558,-3.5232,-3.4876,-3.4625,-3.4299,-3.4022,-3.3872,-3.3621,-3.3363,-3.3061,-3.2692,-3.2315,-3.1788,-3.116,-3.0608,-3.0055,-2.9779,-2.9779,-2.9779,-2.9779,-2.9779,-2.9779,-2.9779,-2.9779,-2.9754,-2.963,-2.953,-2.9366,-2.9073,-2.9039,-2.8965,-2.844,-2.7969,-2.7917,-2.7685,-2.7189,-3.9697,-3.9697,-3.9697,-3.9697,-3.9697,-3.9697,-3.9697,-3.9697,-3.9697,-3.9697,-3.9697,-3.9697,-3.9697,-3.9697,-3.9697,-3.9697,-3.9697,-3.9697,-3.9697,-3.9697,-3.9697,-3.9697,-3.9747,-3.9823,-3.9722,-3.9722,-3.9747,-3.9722,-3.9697,-3.9697,-3.9722,-3.9747,-4.0224,-4.035,-4.045,-4.0777,-4.1025,-4.0877,-4.0626,-4.0551,-4.03,-4.0023,-3.9722,-3.9697,-3.9697,-3.9697,-3.9697,-3.9697,-3.9697,-3.9697,-3.9697,-3.9697,-3.9697,-3.9697,-3.9697,-3.9697,-3.9697,-3.9697,-3.9597,-3.9496,-3.9396,-3.9396,-3.9069,-3.8969,-3.8868,-3.8743,-3.8241,-3.7789,-3.7387,-3.6908,-3.6757,-3.6581,-3.648,-3.643,-3.638,-3.638,-3.6279,-3.6254,-3.6157,-3.5956,-3.573,-3.5479,-3.5282,-3.4926,-3.4424,-3.4223,-3.3897,-3.3596,-3.3244,-3.2968,-3.2717,-3.2215,-3.1687,-3.1135,-3.0557,-2.993,-2.9779,-2.9779,-2.9779,-2.9779,-2.9779,-2.9779,-2.9779,-2.9779,-2.9779,-2.9692,-2.9529,-2.9366,-2.9164,-2.8985,-2.8456,-2.8055,-2.8041,-2.79,-2.7511]},{"header":{"parameterUnit":"m.s-1","parameterCategory":1,"la1":31.0,"la2":29.5877,"lo1":-88.7671,"lo2":-86.6584,"dy":0.0162,"dx":0.0185,"nx":115,"ny":88,"refTime":"2023-04-20T18:00:00:Z","depth":0,"parameterNumber":3,"parameterNumberName":"V-component_of_WINDS"},"data":[0.0,0.0,0.0,0.0,0.0,0.0,0.0,0.0,0.0,0.0,0.0,0.0,0.0,0.0,0.0,0.0,0.0,0.0,0.0,0.0,0.0,0.0,0.0,0.0,0.0,0.0,0.0,0.0,0.0,0.0,0.0,0.0,0.0,0.0,0.0,0.0,0.0,0.0,0.0,0.0,0.0,0.0,0.0,0.0,0.0,0.0,0.0,0.0,0.0,0.0,0.0,0.0,0.0,0.0,0.0,0.0,0.0,0.0,0.0,0.0,0.0,0.0,0.0,0.0,0.0,0.0,0.0,0.0,0.0,0.0,0.0,0.0,0.0,0.0,0.0,0.0,0.0,0.0,0.0,0.0,0.0,0.0,0.0,0.0,0.0,0.0,0.0,0.0,0.0,0.0,0.0,0.0,0.0,0.0,0.0,0.0,0.0,0.0,0.0,0.0,0.0,0.0,0.0,0.0,0.0,0.0,0.0,0.0,0.0,0.0,0.0,0.0,0.0,0.0,0.0,0.0,0.0,0.0,0.0,0.0,0.0,0.0,0.0,0.0,0.0,0.0,0.0,0.0,0.0,0.0,0.0,0.0,0.0,0.0,0.0,0.0,0.0,0.0,0.0,0.0,0.0,0.0,0.0,0.0,0.0,0.0,0.0,0.0,0.0,0.0,0.0,0.0,0.0,0.0,0.0,0.0,0.0,0.0,0.0,0.0,0.0,0.0,0.0,0.0,0.0,0.0,0.0,0.0,0.0,0.0,0.0,0.0,0.0,0.0,0.0,0.0,0.0,0.0,0.0,0.0,0.0,0.0,0.0,0.0,0.0,0.0,0.0,0.0,0.0,0.0,0.0,0.0,0.0,0.0,0.0,0.0,0.0,0.0,0.0,0.0,0.0,0.0,0.0,0.0,0.0,0.0,0.0,0.0,0.0,0.0,0.0,0.0,0.0,0.0,0.0,0.0,0.0,0.0,0.0,0.0,0.0,0.0,0.0,0.0,0.0,0.0,0.0,0.0,0.0,0.0,0.0,0.0,0.0,0.0,0.0,0.0,0.0,0.0,0.0,0.0,0.0,0.0,0.0,0.0,0.0,0.0,0.0,0.0,0.0,0.0,0.0,0.0,0.0,0.0,0.0,0.0,0.0,0.0,0.0,0.0,0.0,0.0,0.0,0.0,0.0,0.0,0.0,0.0,0.0,0.0,0.0,0.0,0.0,0.0,0.0,0.0,0.0,0.0,0.0,0.0,0.0,0.0,0.0,0.0,0.0,0.0,0.0,0.0,0.0,0.0,0.0,0.0,0.0,0.0,0.0,0.0,0.0,0.0,0.0,0.0,0.0,0.0,0.0,0.0,0.0,0.0,0.0,0.0,0.0,0.0,0.0,0.0,0.0,0.0,0.0,0.0,0.0,0.0,0.0,0.0,0.0,0.0,0.0,0.0,0.0,0.0,0.0,0.0,0.0,0.0,0.0,0.0,0.0,0.0,0.0,0.0,0.0,0.0,0.0,0.0,0.0,0.0,0.0,0.0,0.0,0.0,0.0,0.0,0.0,0.0,0.0,0.0,0.0,0.0,0.0,0.0,0.0,0.0,0.0,0.0,0.0,0.0,0.0,0.0,0.0,0.0,0.0,0.0,0.0,0.0,0.0,0.0,0.0,0.0,0.0,0.0,0.0,0.0,0.0,0.0,0.0,0.0,0.0,0.0,0.0,0.0,0.0,0.0,0.0,0.0,0.0,0.0,0.0,0.0,0.0,0.0,0.0,0.0,0.0,0.0,0.0,0.0,0.0,0.0,0.0,0.0,0.0,0.0,0.0,0.0,0.0,0.0,0.0,0.0,0.0,0.0,0.0,0.0,0.0,0.0,0.0,0.0,0.0,0.0,0.0,0.0,0.0,0.0,0.0,0.0,0.0,0.0,0.0,0.0,0.0,0.0,0.0,0.0,0.0,0.0,0.0,0.0,0.0,0.0,0.0,0.0,0.0,0.0,0.0,0.0,0.0,0.0,0.0,0.0,0.0,0.0,0.0,0.0,0.0,0.0,0.0,0.0,0.0,0.0,0.0,0.0,0.0,0.0,0.0,0.0,0.0,0.0,0.0,0.0,0.0,0.0,0.0,0.0,0.0,0.0,0.0,0.0,0.0,0.0,0.0,0.0,0.0,0.0,0.0,0.0,0.0,0.0,0.0,0.0,0.0,0.0,0.0,0.0,0.0,0.0,0.0,0.0,0.0,0.0,0.0,0.0,0.0,0.0,0.0,0.0,0.0,0.0,0.0,0.0,0.0,0.0,0.0,0.0,0.0,0.0,0.0,0.0,0.0,0.0,0.0,0.0,0.0,0.0,0.0,0.0,0.0,0.0,0.0,0.0,0.0,0.0,0.0,0.0,0.0,0.0,0.0,0.0,0.0,0.0,0.0,0.0,0.0,0.0,0.0,0.0,0.0,0.0,0.0,0.0,0.0,0.0,0.0,0.0,0.0,0.0,0.0,0.0,0.0,0.0,0.0,0.0,0.0,0.0,0.0,0.0,0.0,0.0,0.0,0.0,0.0,0.0,0.0,0.0,0.0,0.0,0.0,0.0,0.0,0.0,0.0,0.0,0.0,0.0,0.0,0.0,0.0,0.0,0.0,0.0,0.0,0.0,0.0,0.0,0.0,0.0,0.0,0.0,0.0,0.0,0.0,0.0,0.0,0.0,0.0,0.0,0.0,0.0,0.0,0.0,0.0,0.0,0.0,0.0,0.0,0.0,0.0,0.0,0.0,0.0,0.0,0.0,0.0,0.0,0.0,0.0,0.0,0.0,0.0,0.0,0.0,0.0,0.0,0.0,0.0,0.0,0.0,0.0,0.0,0.0,0.0,0.0,0.0,0.0,0.0,0.0,0.0,0.0,0.0,0.0,0.0,0.0,0.0,0.0,0.0,0.0,0.0,0.0,0.0,0.0,0.0,0.0,0.0,0.0,0.0,0.0,0.0,0.0,0.0,0.0,0.0,0.0,0.0,0.0,0.0,0.0,0.0,0.0,0.0,0.0,0.0,0.0,0.0,0.0,0.0,0.0,0.0,0.0,0.0,0.0,0.0,0.0,0.0,0.0,0.0,0.0,0.0,0.0,0.0,0.0,0.0,0.0,0.0,0.0,0.0,0.0,0.0,0.0,0.0,0.0,0.0,0.0,0.0,0.0,0.0,0.0,0.0,0.0,0.0,0.0,0.0,0.0,0.0,0.0,0.0,0.0,0.0,0.0,0.0,0.0,0.0,0.0,0.0,0.0,0.0,0.0,0.0,0.0,0.0,0.0,0.0,0.0,0.0,0.0,0.0,0.0,0.0,0.0,0.0,0.0,0.0,0.0,0.0,0.0,0.0,0.0,0.0,0.0,0.0,0.0,0.0,0.0,0.0,0.0,0.0,0.0,0.0,0.0,0.0,0.0,0.0,0.0,0.0,0.0,0.0,0.0,0.0,0.0,0.0,0.0,0.0,0.0,0.0,0.0,0.0,0.0,0.0,0.0,0.0,0.0,0.0,0.0,0.0,0.0,0.0,0.0,0.0,0.0,0.0,0.0,0.0,0.0,0.0,0.0,0.0,0.0,0.0,0.0,0.0,0.0,0.0,0.0,0.0,0.0,0.0,0.0,0.0,0.0,0.0,0.0,0.0,0.0,0.0,0.0,0.0,0.0,0.0,0.0,0.0,0.0,0.0,0.0,0.0,0.0,0.0,0.0,0.0,0.0,0.0,0.0,0.0,0.0,0.0,0.0,0.0,0.0,0.0,0.0,0.0,0.0,0.0,0.0,0.0,0.0,0.0,0.0,0.0,0.0,0.0,0.0,0.0,0.0,0.0,0.0,0.0,0.0,0.0,0.0,0.0,0.0,0.0,0.0,0.0,0.0,0.0,0.0,0.0,0.0,0.0,0.0,0.0,0.0,0.0,0.0,0.0,0.0,0.0,0.0,0.0,0.0,0.0,0.0,0.0,0.0,0.0,0.0,0.0,0.0,0.0,0.0,0.0,0.0,0.0,0.0,0.0,0.0,0.0,0.0,0.0,0.0,0.0,0.0,0.0,0.0,0.0,0.0,0.0,0.0,0.0,0.0,0.0,0.0,0.0,0.0,0.0,0.0,0.0,0.0,0.0,0.0,0.0,0.0,0.0,0.0,0.0,0.0,0.0,0.0,0.0,0.0,0.0,0.0,0.0,0.0,0.0,0.0,0.0,0.0,0.0,0.0,0.0,0.0,0.0,0.0,0.0,0.0,0.0,0.0,0.0,0.0,0.0,0.0,0.9224,0.0,0.0,0.0,0.0,0.0,0.0,0.0,0.0,0.0,0.0,0.0,0.0,0.0,0.0,0.0,0.0,0.0,0.0,0.0,0.0,0.0,0.0,0.0,0.0,0.0,0.0,0.0,0.0,0.0,0.0,0.0,0.0,0.0,0.0,0.0,0.0,0.0,0.0,0.0,0.0,0.0,0.0,0.0,0.0,0.0,0.0,0.0,0.0,0.0,0.0,0.0,0.0,0.0,0.0,0.0,0.0,0.0,0.0,0.0,0.0,0.0,0.0,0.0,0.0,0.0,0.0,0.0,0.0,0.0,0.0,0.0,0.0,0.0,0.0,0.0,0.0,0.0,0.0,0.0,0.0,0.0,0.0,0.0,0.0,0.0,0.0,0.0,0.0,0.0,0.0,0.0,0.0,0.0,0.0,0.0,0.0,0.0,0.0,0.0,0.0,0.0,0.0,0.0,0.0,0.0,0.0,0.0,0.0,0.0,0.0,1.0704,1.1025,1.0843,1.0774,1.0827,0.0,0.0,0.0,0.0,0.0,0.0,0.0,0.0,0.0,0.0,0.0,0.0,0.0,0.0,0.0,0.0,0.0,0.0,0.0,0.0,0.0,0.0,0.0,0.0,0.0,0.0,0.0,0.0,0.0,0.0,0.0,0.0,0.0,0.0,0.0,0.0,0.0,0.0,0.0,0.0,0.0,0.0,0.0,0.0,0.0,0.0,0.0,0.0,0.0,0.0,0.0,0.0,0.0,0.0,0.0,0.0,0.0,0.0,0.0,0.0,0.0,0.0,0.0,0.0,0.0,0.0,0.0,0.0,0.0,0.0,0.0,0.0,0.0,0.0,0.0,0.0,0.0,0.0,0.0,0.0,0.0,0.0,0.0,0.0,0.0,0.0,0.0,0.0,0.0,0.0,0.0,0.0,0.0,0.0,0.0,0.0,0.0,0.0,0.0,0.0,0.0,0.0,0.0,0.0,0.0,0.0,0.0,0.0,0.0,0.0,0.0,0.0,1.2531,1.2508,1.2405,0.0,0.0,0.0,0.0,0.0,0.0,0.0,0.0,0.0,0.0,0.0,0.0,0.0,0.0,0.0,0.0,0.0,0.0,0.0,0.0,0.0,0.0,0.0,0.0,0.0,0.0,0.0,0.0,0.0,0.0,0.0,0.0,0.0,0.0,0.0,0.0,0.0,0.0,0.0,0.0,0.0,0.0,0.0,0.0,0.0,0.0,0.0,0.0,0.0,0.0,0.0,0.0,0.0,0.0,0.0,0.0,0.0,0.0,0.0,0.0,0.0,0.0,0.0,0.0,0.0,0.0,0.0,0.0,0.0,0.0,0.0,0.0,0.0,0.0,0.0,0.0,0.0,0.0,0.0,0.0,0.0,0.0,0.0,0.0,0.0,0.0,0.0,0.0,0.0,0.0,0.0,0.0,0.0,0.0,0.0,0.0,0.0,0.0,0.0,0.0,0.0,0.0,0.0,0.0,0.0,0.0,0.0,0.0,0.0,0.0,1.2446,1.2827,1.2931,0.0,1.3318,0.0,0.0,0.0,0.0,0.0,0.0,0.0,0.0,0.0,0.0,0.0,0.0,0.0,0.0,0.0,0.0,0.0,0.0,0.0,0.0,0.0,0.0,0.0,0.0,0.0,0.0,0.0,0.0,0.0,0.0,0.0,0.0,0.0,0.0,0.0,0.0,0.0,0.0,0.0,0.0,0.0,0.0,0.0,0.0,0.0,0.0,0.0,0.0,0.0,0.0,0.0,0.0,0.0,0.0,0.0,0.0,0.0,0.0,0.0,0.0,0.0,0.0,0.0,0.0,0.0,0.0,0.0,0.0,0.0,0.0,0.0,0.0,0.0,0.0,0.0,0.0,0.0,0.0,0.0,0.0,0.0,0.0,0.0,0.0,0.0,0.0,0.0,0.0,0.0,0.0,0.0,0.0,0.0,0.0,0.0,0.0,0.0,0.0,0.0,0.0,0.0,0.0,0.0,0.0,0.0,0.0,0.0,0.0,0.0,0.0,1.4244,1.4722,1.4415,1.4301,0.0,0.0,0.0,0.0,0.0,0.0,0.0,0.0,0.0,0.0,0.0,0.0,0.0,0.0,0.0,0.0,0.0,0.0,0.0,0.0,0.0,0.0,0.0,0.0,0.0,0.0,0.0,0.0,0.0,0.0,0.0,0.0,0.0,0.0,0.0,0.0,0.0,0.0,0.0,0.0,0.0,0.0,0.0,0.0,0.0,0.0,0.0,0.0,0.0,0.0,0.0,0.0,0.0,0.0,0.0,0.0,0.0,0.0,0.0,0.0,0.0,0.0,0.0,0.0,0.0,0.0,0.0,0.0,0.0,0.0,0.0,0.0,0.0,0.0,0.0,0.0,0.0,0.0,0.0,0.0,0.0,0.0,0.0,0.0,0.0,0.0,0.0,0.0,0.0,0.0,0.0,0.0,0.0,0.0,0.0,0.0,0.0,0.0,0.0,0.0,0.0,0.0,0.0,0.0,0.0,0.0,0.0,0.0,0.0,0.0,1.4627,1.5328,1.5893,1.5634,1.5484,1.548,0.0,0.0,0.0,0.0,0.0,0.0,0.0,0.0,0.0,0.0,0.0,0.0,0.0,0.0,0.0,0.0,0.0,0.0,0.0,0.0,0.0,0.0,0.0,0.0,0.0,0.0,0.0,0.0,0.0,0.0,0.0,0.0,0.0,0.0,0.0,0.0,0.0,0.0,0.0,0.0,0.0,0.0,0.0,0.0,0.0,0.0,0.0,0.0,0.0,0.0,0.0,0.0,0.0,0.0,0.0,0.0,0.0,0.0,0.0,0.0,0.0,0.0,0.0,0.0,0.0,0.0,0.0,0.0,0.0,0.0,0.0,0.0,0.0,0.0,0.0,0.0,0.0,0.0,0.0,0.0,0.0,0.0,0.0,0.0,0.0,0.0,0.0,0.0,0.0,0.0,0.0,0.0,0.0,0.0,0.0,0.0,0.0,0.0,0.0,0.0,0.0,0.0,0.0,0.0,0.0,0.0,0.0,0.0,1.381,1.437,1.5017,1.5808,1.6129,1.6364,0.0,0.0,0.0,0.0,0.0,0.0,0.0,0.0,0.0,0.0,0.0,0.0,0.0,0.0,0.0,0.0,0.0,0.0,0.0,0.0,0.0,0.0,0.0,0.0,0.0,0.0,0.0,0.0,0.0,0.0,0.0,0.0,0.0,0.0,0.0,0.0,0.0,0.0,0.0,0.0,0.0,0.0,0.0,0.0,0.0,0.0,0.0,0.0,0.0,0.0,0.0,0.0,0.0,0.0,0.0,0.0,0.0,0.0,0.0,0.0,0.0,0.0,0.0,0.0,0.0,0.0,0.0,0.0,0.0,0.0,0.0,0.0,0.0,0.0,0.0,0.0,0.0,0.0,0.0,0.0,0.0,0.0,0.0,0.0,0.0,0.0,0.0,0.0,0.0,0.0,0.0,0.0,0.0,0.0,0.0,0.0,0.0,0.0,0.0,0.0,0.0,0.0,0.0,0.0,0.0,0.0,0.0,0.0,0.0,1.4875,1.5832,1.6575,1.7045,1.6791,1.6654,0.0,0.0,0.0,0.0,0.0,0.0,0.0,0.0,0.0,0.0,0.0,0.0,0.0,0.0,0.0,0.0,0.0,0.0,0.0,0.0,0.0,0.0,0.0,0.0,0.0,0.0,0.0,0.0,0.0,0.0,0.0,0.0,0.0,0.0,0.0,0.0,0.0,0.0,0.0,0.0,0.0,0.0,0.0,0.0,0.0,0.0,0.0,0.0,0.0,0.0,0.0,0.0,0.0,0.0,0.0,0.0,0.0,0.0,0.0,0.0,0.0,0.0,0.0,0.0,0.0,0.0,0.0,0.0,0.0,0.0,0.0,0.0,0.0,0.0,0.0,0.0,0.0,0.0,0.0,0.0,0.0,0.0,0.0,0.0,0.0,0.0,0.0,0.0,0.0,0.0,0.0,0.0,0.0,0.0,0.0,0.0,0.0,0.0,0.0,0.0,0.0,0.0,0.0,0.0,0.0,0.0,0.0,0.0,0.0,1.5434,0.0,1.7219,1.7504,1.7046,1.6846,0.0,0.0,0.0,0.0,0.0,0.0,0.0,0.0,0.0,0.0,0.0,0.0,0.0,0.0,0.0,0.0,0.0,0.0,0.0,0.0,0.0,0.0,0.0,0.0,0.0,0.0,0.0,0.0,0.0,0.0,0.0,0.0,0.0,0.0,0.0,0.0,0.0,0.0,0.0,0.0,0.0,0.0,0.0,0.0,0.0,0.0,0.0,0.0,0.0,0.0,0.0,0.0,0.0,0.0,0.0,0.0,0.0,0.0,0.0,0.0,0.0,0.0,0.0,0.0,0.0,0.0,0.0,0.0,0.0,0.0,0.0,0.0,0.0,0.0,0.0,0.0,0.0,0.0,0.0,0.0,0.0,0.0,0.0,0.0,0.0,0.0,0.0,0.0,0.0,0.0,0.0,0.0,0.0,0.0,0.0,0.0,0.0,0.0,0.0,0.0,0.0,0.0,0.0,0.0,0.0,0.0,0.0,0.0,1.4014,1.5482,1.6244,1.6855,1.7011,1.6961,1.6994,0.0,0.0,0.0,0.0,0.0,0.0,0.0,0.0,0.0,0.0,0.0,0.0,0.0,0.0,0.0,0.0,0.0,0.0,0.0,0.0,0.0,0.0,0.0,0.0,0.0,0.0,0.0,0.0,0.0,0.0,0.0,0.0,0.0,0.0,0.0,0.0,0.0,0.0,0.0,0.0,0.0,0.0,0.0,0.0,0.0,0.0,0.0,0.0,0.0,0.0,0.0,0.0,0.0,0.0,0.0,0.0,0.0,0.0,0.0,0.0,0.0,0.0,0.0,0.0,0.0,0.0,0.0,0.0,0.0,0.0,0.0,0.0,0.0,0.0,0.0,0.0,0.0,0.0,0.0,0.0,0.0,0.0,0.0,0.0,0.0,0.0,0.0,0.0,0.0,0.0,0.0,0.0,0.0,0.0,0.0,0.0,0.0,0.0,0.0,0.0,0.0,0.0,0.0,0.0,0.0,0.0,0.0,0.0,0.0,1.6647,1.7352,1.7654,1.7552,1.7465,1.7316,0.0,0.0,0.0,0.0,0.0,0.0,0.0,0.0,0.0,0.0,0.0,0.0,0.0,0.0,0.0,0.0,0.0,0.0,0.0,0.0,0.0,0.0,0.0,0.0,0.0,0.0,0.0,0.0,0.0,0.0,0.0,0.0,0.0,0.0,0.0,0.0,0.0,0.0,0.0,0.0,0.0,0.0,0.0,0.0,0.0,0.0,0.0,0.0,0.0,0.0,0.0,0.0,0.0,0.0,0.0,0.0,0.0,0.0,0.0,0.0,0.0,0.0,0.0,0.0,0.0,0.0,0.0,0.0,0.0,0.0,0.0,0.0,0.0,0.0,0.0,0.0,0.0,0.0,0.0,0.0,0.0,0.0,0.0,0.0,0.0,0.0,0.0,0.0,0.0,0.0,0.0,0.0,0.0,0.0,0.0,0.0,0.0,0.0,0.0,0.0,0.0,0.0,0.0,0.0,0.0,0.0,0.0,0.0,0.0,1.8352,1.8694,1.8748,1.8462,1.8147,1.7804,1.7394,0.0,0.0,0.0,0.0,0.0,0.0,0.0,0.0,0.0,0.0,0.0,0.0,0.0,0.0,0.0,0.0,0.0,0.0,0.0,0.0,0.0,0.0,0.0,0.0,0.0,0.0,0.0,0.0,0.0,0.0,0.0,0.0,0.0,0.0,0.0,0.0,0.0,0.0,0.0,0.0,0.0,0.0,0.0,0.0,0.0,0.0,0.0,0.0,0.0,0.0,0.0,0.0,0.0,0.0,0.0,0.0,0.0,0.0,0.0,0.0,0.0,0.0,0.0,0.0,0.0,0.0,0.0,0.0,0.0,0.0,0.0,0.0,0.0,0.0,0.0,0.0,0.0,0.0,0.0,0.0,0.0,0.0,0.0,0.0,0.0,0.0,0.0,0.0,0.0,0.0,0.0,0.0,0.0,0.0,0.0,0.0,0.0,0.0,0.0,0.0,0.0,0.0,0.0,0.0,0.0,0.0,0.0,0.0,2.0543,2.0362,2.0076,1.9628,1.8928,1.8392,0.0,0.0,0.0,0.0,0.0,0.0,0.0,0.0,0.0,0.0,0.0,0.0,0.0,0.0,0.0,0.0,0.0,0.0,0.0,0.0,0.0,0.0,0.0,0.0,0.0,0.0,0.0,0.0,0.0,0.0,0.0,0.0,0.0,0.0,0.0,0.0,0.0,0.0,0.0,0.0,0.0,0.0,0.0,0.0,0.0,0.0,0.0,0.0,0.0,0.0,0.0,0.0,0.0,0.0,0.0,0.0,0.0,0.0,0.0,0.0,0.0,0.0,0.0,0.0,0.0,0.0,0.0,0.0,0.0,0.0,0.0,0.0,0.0,0.0,0.0,0.0,0.0,0.0,0.0,0.0,0.0,0.0,0.0,0.0,0.0,0.0,0.0,0.0,0.0,0.0,0.0,0.0,0.0,0.0,0.0,0.0,0.0,0.0,0.0,0.0,0.0,0.0,0.0,0.0,0.0,0.0,0.0,0.0,0.0,2.2462,2.3108,2.2402,2.0352,1.9535,1.878,0.0,0.0,0.0,0.0,0.0,0.0,0.0,0.0,0.0,0.0,0.0,0.0,0.0,0.0,0.0,0.0,0.0,0.0,0.0,0.0,0.0,0.0,0.0,0.0,0.0,0.0,0.0,0.0,0.0,0.0,0.0,0.0,0.0,0.0,0.0,0.0,0.0,0.0,0.0,0.0,0.0,0.0,0.0,0.0,0.0,0.0,0.0,0.0,0.0,0.0,0.0,0.0,0.0,0.0,0.0,0.0,0.0,0.0,0.0,0.0,0.0,0.0,0.0,0.0,0.0,0.0,0.0,0.0,0.0,0.0,0.0,0.0,0.0,0.0,0.0,0.0,0.0,0.0,0.0,0.0,0.0,0.0,0.0,0.0,0.0,0.0,0.0,0.0,0.0,0.0,0.0,0.0,0.0,0.0,0.0,0.0,0.0,0.0,0.0,0.0,0.0,0.0,0.0,0.0,0.0,0.0,0.0,0.0,2.1631,2.3779,2.4335,2.3866,2.233,2.1161,1.996,0.0,0.0,0.0,0.0,0.0,0.0,0.0,0.0,0.0,0.0,0.0,0.0,0.0,0.0,0.0,0.0,0.0,0.0,0.0,0.0,0.0,0.0,0.0,0.0,0.0,0.0,0.0,0.0,0.0,0.0,0.0,0.0,0.0,0.0,0.0,0.0,0.0,0.0,0.0,0.0,0.0,0.0,0.0,0.0,0.0,0.0,0.0,0.0,0.0,0.0,0.0,0.0,0.0,0.0,0.0,0.0,0.0,0.0,0.0,0.0,0.0,0.0,0.0,0.0,0.0,0.0,0.0,0.0,0.0,0.0,0.0,0.0,0.0,0.0,0.0,0.0,0.0,0.0,0.0,0.0,0.0,0.0,0.0,0.0,0.0,0.0,0.0,0.0,0.0,0.0,0.0,0.0,0.0,0.0,0.0,0.0,0.0,0.0,0.0,0.0,0.0,0.0,0.0,0.0,0.0,0.0,0.0,0.0,2.2302,2.4713,2.4788,2.4845,2.4933,2.3105,2.138,0.0,0.0,0.0,0.0,0.0,0.0,0.0,0.0,0.0,0.0,0.0,0.0,0.0,0.0,0.0,0.0,0.0,0.0,0.0,0.0,0.0,0.0,0.0,0.0,0.0,0.0,0.0,0.0,0.0,0.0,0.0,0.0,0.0,0.0,0.0,0.0,0.0,0.0,0.0,0.0,0.0,0.0,0.0,0.0,0.0,0.0,0.0,0.0,0.0,0.0,0.0,0.0,0.0,0.0,0.0,0.0,0.0,0.0,0.0,0.0,0.0,0.0,0.0,0.0,0.0,0.0,0.0,0.0,0.0,0.0,0.0,0.0,0.0,0.0,0.0,0.0,0.0,0.0,0.0,0.0,0.0,0.0,0.0,0.0,0.0,0.0,0.0,0.0,0.0,0.0,0.0,0.0,0.0,0.0,0.0,0.0,0.0,0.0,0.0,0.0,0.0,0.0,0.0,0.0,0.0,0.0,0.0,0.0,2.3598,2.5775,2.6045,2.6113,2.6122,2.3424,2.1275,0.0,0.0,0.0,0.0,0.0,0.0,0.0,0.0,0.0,0.0,0.0,0.0,0.0,0.0,0.0,0.0,0.0,0.0,0.0,0.0,0.0,0.0,0.0,0.0,0.0,0.0,0.0,0.0,0.0,0.0,0.0,0.0,0.0,0.0,0.0,0.0,0.0,0.0,0.0,0.0,0.0,0.0,0.0,0.0,0.0,0.0,0.0,0.0,0.77,0.0,0.0,0.0,0.0,0.0,0.0,0.0,0.0,0.0,0.0,0.0,0.0,0.0,0.0,0.0,0.0,0.0,0.0,0.0,0.0,0.0,0.0,0.0,0.0,0.0,0.0,0.0,0.0,0.0,0.0,0.0,0.0,0.0,0.0,0.0,0.0,0.0,0.0,0.0,0.0,0.0,0.0,0.0,0.0,0.0,0.0,0.0,0.0,0.0,0.0,0.0,0.0,0.0,0.0,0.0,0.0,0.0,0.0,0.0,2.4229,2.5886,2.6314,2.6248,2.5636,2.375,2.1945,0.0,0.0,0.0,0.0,0.0,0.0,0.0,0.0,0.0,0.0,0.0,0.0,0.0,0.0,0.0,0.0,0.0,0.0,0.0,0.0,0.0,0.0,0.0,0.0,0.0,0.0,0.0,0.0,0.0,0.0,0.0,0.0,0.0,0.0,0.0,0.0,0.0,0.0,0.0,0.0,0.0,0.0,0.0,0.0,0.0,0.0,0.0,0.0,0.0,0.0,0.0,0.0,0.0,0.0,0.0,0.0,0.0,0.0,0.0,0.0,0.0,0.0,0.0,0.0,0.0,0.0,0.0,0.0,0.0,0.0,0.0,0.0,0.0,0.0,0.0,0.0,0.0,0.0,0.0,0.0,0.0,0.0,0.0,0.0,0.0,0.0,0.0,0.0,0.0,0.0,0.0,0.0,0.0,0.0,0.0,0.0,0.0,0.0,0.0,0.0,0.0,0.0,0.0,0.0,0.0,0.0,0.0,2.3115,2.4556,2.5686,2.6147,2.5871,2.48,2.3959,2.262,2.0769,0.0,0.0,0.0,0.0,0.0,0.0,0.0,0.0,0.0,0.0,0.0,0.0,0.0,0.0,0.0,0.0,0.0,0.0,0.0,0.0,0.0,0.0,0.0,0.0,0.0,0.0,0.0,0.0,0.0,0.0,0.0,0.0,0.0,0.0,0.0,0.0,0.0,0.0,0.9955,1.0608,0.0,0.0,0.0,0.0,0.0,0.0,0.0,0.0,0.8716,0.0,0.0,0.0,0.0,0.0,0.0,0.0,0.0,0.0,0.0,0.0,0.0,0.0,0.0,0.0,0.0,0.0,0.0,0.0,0.0,0.0,0.0,0.0,0.0,0.0,0.0,0.0,0.0,0.0,0.0,0.0,0.0,0.0,0.0,0.0,0.0,0.0,0.0,0.0,0.0,0.0,0.0,0.0,0.0,0.0,0.0,0.0,0.0,0.0,0.0,0.0,0.0,0.0,0.0,0.0,0.0,2.2113,2.3376,2.4757,2.6298,2.5971,2.5435,2.4808,2.3637,2.2107,2.0263,0.0,0.0,0.0,0.0,0.0,0.0,0.0,0.0,0.0,0.0,0.0,0.0,0.0,0.0,0.0,0.0,0.0,0.0,0.0,0.0,0.0,0.0,0.0,0.0,0.0,0.0,0.0,0.0,0.0,0.0,0.0,0.0,0.0,0.0,0.0,0.0,0.0,0.0,0.0,1.0763,1.0753,0.0,0.0,0.0,0.0,0.0,0.0,0.0,0.0,0.8892,0.0,0.0,0.0,0.0,0.0,0.0,0.0,0.0,0.0,0.0,0.0,0.0,0.0,0.0,0.0,0.0,0.0,0.0,0.0,0.0,0.0,0.0,0.0,0.0,0.0,0.0,0.0,0.0,0.0,0.0,0.0,0.0,0.0,0.0,0.0,0.0,0.0,0.0,0.0,0.0,0.0,0.0,0.0,0.0,0.0,0.0,0.0,0.0,0.0,0.0,0.0,0.0,0.0,0.0,0.0,2.1917,2.3552,2.4808,2.5586,2.5611,2.5059,2.3979,2.3229,2.1848,0.0,0.0,0.0,0.0,0.0,0.0,0.0,0.0,0.0,0.0,0.0,0.0,0.0,0.0,0.0,0.0,0.0,0.0,0.0,0.0,0.0,0.0,0.0,0.0,0.0,0.0,0.0,0.0,0.0,0.0,0.0,0.0,0.0,0.0,0.0,0.0,0.0,0.0,0.0,0.0,1.0864,1.0903,1.0737,0.0,0.0,0.0,0.0,0.0,0.0,0.9382,0.9373,0.0,0.0,0.0,0.0,0.0,0.0,0.0,0.0,0.0,0.0,0.0,0.0,0.0,0.0,0.0,0.0,0.0,0.0,0.0,0.0,0.0,0.0,0.0,0.0,0.0,0.0,0.0,0.0,0.0,0.0,0.0,0.0,0.0,0.0,0.0,0.0,0.0,0.0,0.0,0.0,0.0,0.0,0.0,0.0,0.0,0.0,0.0,0.0,0.0,0.0,0.0,0.0,0.0,0.0,0.0,2.1719,2.3753,2.48,2.4833,2.5234,2.4657,2.2995,2.2828,2.1667,0.0,0.0,0.0,0.0,0.0,0.0,0.0,0.0,0.0,0.0,0.0,0.0,0.0,0.0,0.0,0.0,0.0,0.0,0.0,0.0,0.0,0.0,0.0,0.0,0.0,0.0,0.0,0.0,0.0,0.0,0.0,0.0,0.0,0.0,0.0,0.0,0.0,0.0,0.0,0.0,0.0,1.1004,1.0724,1.0875,0.0,0.0,0.0,0.0,1.0235,0.9967,0.0,0.0,0.0,0.0,0.0,0.0,0.0,0.0,0.0,0.0,0.0,0.0,0.0,0.0,0.0,0.0,0.0,0.0,0.0,0.0,0.0,0.0,0.0,0.0,0.0,0.0,0.0,0.0,0.0,0.0,0.0,0.0,0.0,0.0,0.0,0.0,0.0,0.0,0.0,0.0,0.0,0.0,0.0,0.0,0.0,0.0,0.0,0.0,0.0,0.0,0.0,0.0,0.0,0.0,0.0,0.0,2.2243,2.3898,2.48,2.48,2.485,2.4104,2.2472,2.2377,2.138,0.0,0.0,0.0,0.0,0.0,0.0,0.0,0.0,0.0,0.0,0.0,0.0,0.0,0.0,0.0,0.0,0.0,0.0,0.0,0.0,0.0,0.0,0.0,0.0,0.0,0.0,0.0,0.0,0.0,0.0,0.0,0.0,0.0,0.0,0.0,0.0,0.0,0.0,0.0,0.0,0.0,1.0754,1.0717,1.0666,1.0602,0.0,0.0,0.0,1.0276,1.0349,0.0,0.0,0.0,0.0,0.0,0.0,0.0,0.0,0.0,0.0,0.0,0.0,0.0,0.0,0.0,0.0,0.0,0.0,0.0,0.0,0.0,0.0,0.0,0.0,0.0,0.0,0.0,0.0,0.0,0.0,0.0,0.0,0.0,0.0,0.0,0.0,0.0,0.0,0.0,0.0,0.0,0.0,0.0,0.0,0.0,0.0,0.0,0.0,0.0,0.0,0.0,0.0,0.0,0.0,0.0,2.172,2.1895,2.3502,2.4356,2.433,2.3998,2.3346,2.2347,2.1604,2.0728,0.0,0.0,0.0,0.0,0.0,0.0,0.0,0.0,0.0,0.0,0.0,0.0,0.0,0.0,0.0,0.0,0.0,0.0,0.0,0.0,0.0,0.0,0.0,0.0,0.0,0.0,0.0,0.0,0.0,0.0,0.0,0.0,0.0,0.0,0.0,0.0,0.0,0.0,0.0,0.0,0.0,0.0,1.0855,1.0686,0.0,0.0,0.0,1.0347,1.0759,0.0,0.0,0.0,0.0,0.0,0.0,0.0,0.0,0.0,0.0,0.0,0.0,0.0,0.0,0.0,0.0,0.0,0.0,0.0,0.0,0.0,0.0,0.0,0.0,0.0,0.0,0.0,0.0,0.0,0.0,0.0,0.0,0.0,0.0,0.0,0.0,0.0,0.0,0.0,0.0,0.0,0.0,0.0,0.0,0.0,0.0,0.0,0.0,0.0,0.0,0.0,0.0,0.0,0.0,0.0,0.0,0.0,2.1744,2.3226,2.3929,2.3778,2.3321,2.2694,2.1895,2.091,0.0,0.0,0.0,0.0,0.0,0.0,0.0,0.0,0.0,0.0,0.0,0.0,0.0,0.0,0.0,0.0,0.0,0.0,0.0,0.0,0.0,0.0,0.0,0.0,0.0,0.0,0.0,1.5157,0.0,0.0,0.0,0.0,0.0,0.0,0.0,0.0,0.0,0.0,0.0,0.0,0.0,0.0,1.1562,1.1133,1.0864,1.0645,0.0,0.0,1.0534,1.1071,1.1378,1.178,0.0,0.0,0.0,0.0,0.0,0.0,0.0,0.0,0.0,0.0,0.0,0.0,0.0,0.0,0.0,0.0,0.0,0.0,0.0,0.0,0.0,0.0,0.0,0.0,0.0,0.0,0.0,0.0,0.0,0.0,0.0,0.0,0.0,0.0,0.0,0.0,0.0,0.0,0.0,0.0,0.0,0.0,0.0,0.0,0.0,0.0,0.0,0.0,0.0,0.0,0.0,0.0,0.0,0.0,0.0,2.2268,2.3401,2.3697,2.3195,2.312,2.2368,2.0867,2.0553,2.0028,0.0,0.0,0.0,0.0,0.0,0.0,0.0,0.0,0.0,0.0,0.0,0.0,0.0,0.0,0.0,0.0,0.0,0.0,0.0,0.0,0.0,0.0,0.0,0.0,0.0,0.0,0.0,0.0,0.0,0.0,0.0,0.0,0.0,0.0,0.0,0.0,0.0,0.0,0.0,0.0,0.0,1.215,1.1626,1.1279,1.0884,0.0,0.0,1.0752,1.0981,1.1594,1.2121,1.2365,0.0,0.0,0.0,0.0,0.0,0.0,0.0,0.0,0.0,0.0,0.0,0.0,0.0,0.0,0.0,0.0,0.0,0.0,0.0,0.0,0.0,0.0,0.0,0.0,0.0,0.0,0.0,0.0,0.0,0.0,0.0,0.0,0.0,0.0,0.0,0.0,0.0,0.0,0.0,0.0,0.0,0.0,0.0,0.0,0.0,0.0,0.0,0.0,0.0,0.0,0.0,0.0,0.0,2.256,2.2322,2.3045,2.3321,2.3095,2.2443,2.182,2.1219,2.0194,1.978,0.0,0.0,0.0,0.0,0.0,0.0,0.0,0.0,0.0,0.0,0.0,0.0,0.0,0.0,0.0,0.0,0.0,0.0,0.0,0.0,0.0,0.0,0.0,0.0,0.0,0.0,0.0,0.0,1.3408,1.2544,1.1564,0.0,0.0,0.0,0.0,0.0,0.0,0.0,0.0,0.0,0.0,1.2806,1.2509,1.1752,0.0,0.0,1.088,1.0886,1.1094,1.1671,1.2095,1.2113,1.233,0.0,0.0,0.0,0.0,0.0,0.0,0.0,0.0,0.0,0.0,0.0,0.0,0.0,0.0,0.0,0.0,0.0,0.0,0.0,0.0,0.0,0.0,0.0,0.0,0.0,0.0,0.0,0.0,0.0,0.0,0.0,0.0,0.0,0.0,0.0,0.0,0.0,0.0,0.0,0.0,0.0,0.0,0.0,0.0,0.0,0.0,0.0,0.0,0.0,0.0,0.0,0.0,2.3125,2.2543,2.292,2.3095,2.3095,2.2046,2.1418,2.1245,1.9939,1.953,0.0,0.0,0.0,0.0,0.0,0.0,0.0,0.0,0.0,0.0,0.0,0.0,0.0,0.0,0.0,0.0,0.0,0.0,0.0,0.0,0.0,0.0,0.0,0.0,0.0,0.0,0.0,0.0,1.3443,1.2496,1.1511,0.0,0.0,0.0,0.0,0.0,0.0,0.0,0.0,0.0,0.0,1.3512,1.3184,1.2421,1.1798,1.1572,1.1429,1.138,1.1577,1.208,1.2423,1.2306,0.0,0.0,0.0,0.0,0.0,0.0,0.0,0.0,0.0,0.0,0.0,0.0,0.0,0.0,0.0,0.0,0.0,0.0,0.0,0.0,0.0,0.0,0.0,0.0,0.0,0.0,0.0,0.0,0.0,0.0,2.8072,0.0,0.0,0.0,0.0,0.0,0.0,0.0,0.0,0.0,0.0,0.0,0.0,0.0,0.0,0.0,0.0,0.0,0.0,0.0,0.0,0.0,0.0,2.3678,2.3095,2.3095,2.3095,2.307,2.2071,2.127,2.0742,1.9737,1.9303,1.9425,0.0,0.0,0.0,0.0,0.0,0.0,0.0,0.0,0.0,0.0,0.0,0.0,0.0,0.0,0.0,0.0,0.0,0.0,0.0,0.0,0.0,0.0,0.0,0.0,0.0,0.0,1.4825,1.3891,1.3301,0.0,0.0,0.0,0.0,0.0,0.0,0.0,0.0,0.0,0.0,1.4581,1.4313,1.3607,1.3298,1.2864,1.2188,1.217,1.2319,1.2447,1.2909,1.3243,0.0,0.0,0.0,0.0,0.0,0.0,0.0,0.0,0.0,0.0,0.0,0.0,0.0,0.0,0.0,0.0,0.0,0.0,0.0,0.0,0.0,0.0,0.0,0.0,0.0,0.0,0.0,2.9503,2.9503,0.0,0.0,0.0,0.0,0.0,0.0,0.0,0.0,0.0,0.0,0.0,2.6499,2.6499,0.0,0.0,0.0,0.0,0.0,0.0,0.0,0.0,0.0,0.0,0.0,0.0,2.3904,2.3703,2.3296,2.3095,2.3095,2.2397,2.1769,2.1245,2.0542,2.0117,1.9939,0.0,0.0,0.0,0.0,0.0,0.0,0.0,0.0,0.0,0.0,0.0,0.0,0.0,0.0,0.0,0.0,0.0,0.0,0.0,0.0,0.0,0.0,0.0,0.0,0.0,1.5697,0.0,0.0,0.0,0.0,0.0,0.0,0.0,0.0,0.0,0.0,0.0,1.5312,1.5085,1.5154,1.5016,1.4496,1.3916,1.341,0.0,0.0,0.0,0.0,0.0,0.0,0.0,0.0,0.0,0.0,0.0,0.0,0.0,0.0,1.0605,1.0352,1.0157,1.004,0.9941,0.0,0.0,0.0,0.0,0.0,0.0,0.0,0.0,0.0,0.0,0.0,0.0,0.0,0.0,0.0,0.0,3.008,0.0,0.0,0.0,0.0,0.0,0.0,0.0,0.0,2.767,2.7369,2.7077,2.7077,2.7077,0.0,2.7077,2.6565,0.0,0.0,0.0,0.0,0.0,0.0,0.0,0.0,2.4381,2.4004,2.3627,2.3321,2.3095,2.2569,2.2146,2.1769,2.1069,2.0521,2.0144,2.0372,2.0747,0.0,0.0,0.0,0.0,0.0,0.0,0.0,0.0,0.0,0.0,0.0,0.0,0.0,0.0,0.0,0.0,0.0,0.0,0.0,0.0,0.0,0.0,0.0,1.6459,0.0,0.0,0.0,0.0,0.0,0.0,0.0,0.0,0.0,1.5603,1.5671,1.5671,1.5492,1.5559,1.5491,1.5153,0.0,0.0,0.0,0.0,0.0,0.0,0.0,1.3866,1.3716,1.3355,1.3029,1.2807,1.2373,1.2021,1.1911,0.0,0.0,1.041,1.0196,1.0079,1.0059,0.9902,0.9803,0.9802,0.9745,0.9671,0.0,0.0,0.0,0.0,0.0,0.0,0.0,0.0,3.1411,3.1135,0.0,3.0658,0.0,0.0,0.0,0.0,0.0,0.0,0.0,0.0,2.8373,2.8122,2.8097,2.8072,2.8097,2.8122,2.8072,2.7795,2.7304,2.6801,0.0,0.0,0.0,0.0,0.0,0.0,2.5084,2.4104,2.4029,2.3728,2.3145,2.2594,2.2322,2.2272,2.1295,2.0518,2.0066,2.0067,2.0297,2.0823,2.0944,0.0,0.0,0.0,0.0,0.0,0.0,0.0,0.0,0.0,0.0,0.0,0.0,0.0,0.0,0.0,0.0,0.0,0.0,0.0,0.0,1.787,0.0,0.0,0.0,0.0,0.0,0.0,0.0,0.0,0.0,0.0,1.5808,1.5782,1.5826,1.5804,0.0,0.0,0.0,0.0,1.5017,1.4743,1.4697,1.4697,1.4628,1.4903,1.4994,1.4811,0.0,0.0,1.3408,1.2892,1.2554,1.2417,1.1967,1.1371,1.0508,1.0273,1.0137,1.0098,1.004,1.0,1.0019,1.0059,1.0079,3.4625,0.0,0.0,0.0,0.0,3.3169,3.2943,3.2566,3.2139,3.1913,3.1738,3.1336,0.0,0.0,0.0,0.0,0.0,0.0,2.9327,2.8888,2.8737,2.8461,2.8122,2.8122,2.8122,2.8122,2.8122,2.8021,2.7871,2.772,2.7243,2.6499,0.0,0.0,0.0,0.0,2.5435,2.5109,2.4381,2.3929,2.3753,2.317,2.2669,2.2322,2.1619,2.1018,2.0518,2.0598,2.0499,2.0144,2.0523,0.0,0.0,0.0,0.0,0.0,0.0,0.0,0.0,0.0,0.0,0.0,0.0,0.0,0.0,0.0,0.0,0.0,0.0,0.0,1.8207,1.8109,1.8038,0.0,0.0,0.0,0.0,0.0,0.0,0.0,0.0,0.0,1.6765,1.6443,1.6154,0.0,0.0,1.5981,1.5693,1.5491,1.5311,1.5154,0.0,0.0,0.0,1.5176,1.5244,1.5154,1.4473,1.374,1.323,1.287,1.2554,1.2437,1.2201,1.1855,1.133,1.0917,1.0584,1.0351,1.0215,1.0235,1.0215,1.0235,1.0235,3.7036,3.5956,3.5077,3.4605,3.455,3.455,3.4374,3.4022,3.3696,3.3169,3.2541,3.2215,3.1637,3.0909,3.0934,0.0,0.0,0.0,3.0131,2.9565,2.9565,2.9302,2.88,2.8775,2.8775,2.8775,2.8775,2.8649,2.8423,2.8386,2.7996,2.7153,0.0,0.0,2.6801,2.6273,2.5812,2.5586,2.4958,2.4431,2.4004,2.3396,2.2844,2.2322,2.1995,2.1568,2.1043,2.1098,2.072,1.9861,2.0578,2.1017,0.0,0.0,0.0,0.0,0.0,0.0,0.0,0.0,0.0,0.0,0.0,1.9608,0.0,0.0,0.0,0.0,1.951,1.9183,1.8832,1.8832,0.0,0.0,0.0,0.0,0.0,0.0,0.0,1.8142,1.7698,1.7446,1.7561,1.7332,1.6868,1.6225,1.6219,1.6175,1.5937,0.0,1.5714,1.558,1.5513,1.5468,1.5492,1.5559,1.5559,1.5514,1.4766,1.4093,1.3755,1.3276,1.2885,1.2742,1.2578,1.2344,1.1917,1.1602,1.1209,1.0664,1.0527,1.0488,1.0352,1.0312,1.0312,3.9044,3.7889,3.5855,3.5232,3.5683,3.5683,3.5708,3.5683,3.5608,3.4776,3.337,3.3287,3.2591,3.1537,3.1461,0.0,3.1386,3.1386,3.111,3.0683,3.0633,3.0357,2.9854,2.9804,2.9779,2.9779,2.9779,2.9528,2.8963,2.8963,2.8712,2.8247,2.767,2.7369,2.7304,2.6826,2.6273,2.5686,2.5611,2.5084,2.4079,2.3471,2.292,2.2472,2.2397,2.2121,2.1594,2.1543,2.1066,2.0087,2.1077,2.166,2.1574,0.0,0.0,0.0,0.0,0.0,0.0,0.0,0.0,0.0,0.0,0.0,0.0,0.0,0.0,0.0,1.9886,0.0,1.9811,1.9836,0.0,0.0,0.0,1.9626,1.952,1.9028,1.8758,1.8859,0.0,0.0,0.0,0.0,1.7804,1.6688,1.6514,1.6424,1.6296,1.6203,1.6132,1.6022,1.6022,1.5957,1.5848,1.5913,1.5935,1.576,1.5311,1.4812,1.4513,1.3907,1.3409,1.3174,1.3021,1.2754,1.2344,1.2242,1.1989,1.117,1.0957,1.0781,1.0469,1.0332,1.0332,3.9295,3.8592,3.7638,3.7287,3.7412,3.7437,3.7437,3.7337,3.6533,3.5977,3.5575,3.47,3.3721,3.2684,3.2215,3.1788,3.1386,3.1386,3.1311,3.1185,3.0809,3.0557,3.0407,3.0005,2.9779,2.9779,2.9779,2.9729,2.9603,2.9578,2.9528,2.9377,2.8825,2.8122,2.7293,2.7178,2.6851,2.6298,2.5812,2.5285,2.46,2.4048,2.3728,2.3602,2.3145,2.2644,2.2146,2.2121,2.1917,2.149,2.1521,2.1731,2.2068,2.1799,0.0,0.0,0.0,0.0,0.0,0.0,0.0,0.0,0.0,2.1584,2.1159,0.0,2.1091,0.0,2.0715,2.0314,1.9836,2.0214,0.0,0.0,2.0437,2.0437,2.0384,1.9858,1.9533,1.9559,1.9108,1.8783,1.8807,1.8455,1.808,1.7804,1.7335,1.6948,1.6813,1.6446,1.62,1.6178,1.6156,1.6156,1.6113,1.6134,1.6069,1.576,1.5424,1.5017,1.4396,1.3905,1.3478,1.3186,1.2992,1.2856,1.2734,1.2734,1.252,1.1969,1.1365,1.0858,1.0781,1.0508,1.0332,3.9948,3.922,3.8894,3.8743,3.8743,3.8492,3.8391,3.8316,3.7462,3.6857,3.6355,3.5203,3.4374,3.3771,3.3219,3.2792,3.2491,3.224,3.2014,3.1738,3.1461,3.1085,3.0568,3.0306,3.003,2.9779,2.9779,2.9779,2.9779,2.9779,2.9779,2.9779,2.9478,2.8875,2.8047,2.777,2.7369,2.6876,2.6047,2.546,2.5159,2.4657,2.4255,2.4004,2.3703,2.3221,2.2669,2.2644,2.2594,2.2493,2.2293,2.2351,2.2643,2.2239,2.217,0.0,0.0,0.0,0.0,0.0,0.0,0.0,0.0,0.0,0.0,0.0,2.1493,0.0,2.1245,0.0,2.0589,2.0867,2.1043,2.1069,2.1043,2.0968,2.0717,2.039,2.0087,1.9836,1.956,1.9359,1.9334,1.9108,1.8907,1.8907,1.8407,1.7886,1.7542,1.7095,1.6747,1.6747,1.6501,1.6328,1.6328,1.6328,1.6197,1.5891,1.558,1.5131,1.4419,1.3905,1.3478,1.3182,1.2988,1.2915,1.2915,1.2915,1.2817,1.252,1.195,1.1385,1.0996,1.0702,1.0527,4.0752,3.9798,3.9722,3.9697,3.9647,3.9195,3.902,3.8969,3.8291,3.7387,3.6329,3.5353,3.4831,3.4801,3.4324,3.4048,3.3872,3.3395,3.2867,3.234,3.224,3.1712,3.0834,3.0683,3.0357,2.9905,2.9829,2.9779,2.9779,2.9779,2.9779,2.9779,2.9779,2.9553,2.9013,2.8549,2.7971,2.7293,2.6314,2.5787,2.5711,2.5184,2.4707,2.423,2.4054,2.3778,2.3246,2.3145,2.3145,2.3195,2.3221,2.3246,2.3296,2.2869,2.2883,0.0,2.3082,0.0,0.0,0.0,0.0,0.0,0.0,0.0,0.0,2.1694,2.1669,2.1594,2.1594,2.1568,2.1521,2.1543,2.1594,2.1594,2.1594,2.1393,2.0968,2.0842,2.0591,2.0062,2.0012,2.0012,1.9936,1.9911,1.9911,1.9736,1.9334,1.8907,1.8456,1.7854,1.7451,1.7423,1.6898,1.6479,1.6479,1.65,1.6371,1.6066,1.5714,1.5244,1.4512,1.3952,1.3478,1.3162,1.3012,1.2915,1.2915,1.2915,1.2915,1.2876,1.252,1.2008,1.1348,1.1034,1.0859,4.0899,4.0325,3.9873,3.9697,3.9697,3.9572,3.9546,3.9471,3.8442,3.7387,3.6405,3.6157,3.5805,3.5357,3.5232,3.4751,3.3922,3.3796,3.3445,3.2893,3.2441,3.2114,3.1863,3.1009,3.0518,3.0432,3.0005,2.9779,2.9779,2.9779,2.9779,2.9779,2.9779,2.9729,2.9628,0.0,0.0,0.0,2.7067,2.6776,2.6323,2.5737,2.5385,2.5285,2.4456,0.0,2.3828,2.3346,2.3321,2.3803,2.3828,0.0,0.0,0.0,0.0,0.0,0.0,0.0,0.0,0.0,0.0,0.0,2.2979,2.2824,2.2794,2.2794,2.2619,2.2196,2.2171,2.197,2.1543,2.1895,2.2171,2.2146,2.2146,2.2121,2.1995,2.1619,2.132,2.1219,2.1167,2.0991,2.0591,2.0541,2.0339,1.9911,1.971,1.9635,1.9484,1.8631,1.7903,1.7473,1.6948,1.655,1.65,1.655,1.6442,1.6066,1.5736,1.5244,1.4535,1.3975,1.3501,1.3162,1.3012,1.2915,1.2915,1.2915,1.2915,1.2915,1.2837,1.2598,1.2067,1.168,1.133,4.1254,0.0,4.0224,3.9948,0.0,3.9697,3.9697,3.9647,3.8793,3.7814,3.6759,3.6531,3.6254,3.5931,3.5633,3.5207,3.463,3.4148,3.3746,3.3445,3.2893,3.2491,3.219,3.1662,3.1135,3.0568,3.0331,3.0055,2.9804,2.9779,2.9779,2.9779,2.9779,2.9779,2.9779,2.9779,2.9227,2.8097,2.7821,2.7454,2.6927,2.6565,2.6163,2.5611,0.0,0.0,0.0,0.0,0.0,0.0,0.0,0.0,0.0,0.0,0.0,2.4431,2.4625,2.455,2.3998,2.4224,2.4249,2.3948,2.3948,2.3697,2.3145,2.3095,2.2995,2.2719,2.2694,2.2569,2.2318,2.2543,2.2694,2.2694,2.2694,2.2594,2.2318,2.2071,2.1794,2.1543,2.1493,2.1368,2.1144,2.0842,2.0591,2.0289,1.9962,1.9811,1.9736,1.9133,1.8381,1.7877,1.7576,1.7328,1.7303,1.7074,1.6838,1.6433,1.5926,1.5289,1.4628,1.4116,1.3665,1.3238,1.3065,1.2988,1.2915,1.2915,1.2915,1.2915,1.2915,1.2856,1.2578,1.2207,1.1758,4.158,4.0651,4.0551,4.0199,3.9697,3.9697,3.9697,3.9647,0.0,0.0,0.0,3.6757,3.6505,3.638,3.5906,3.5583,3.5433,3.45,3.3972,3.3872,3.3345,3.2817,3.2365,3.2265,3.1763,3.0909,3.0708,3.0382,2.9955,2.9854,2.9779,2.9779,2.9779,2.9779,2.9779,2.9779,2.9578,2.9038,2.8487,2.7921,2.7354,2.7329,2.6791,2.5787,2.5636,2.541,2.4983,2.4858,2.4825,2.4958,2.4958,2.5008,2.5076,2.5109,2.5059,2.4926,2.5059,2.5034,2.4833,2.4908,2.4876,2.48,2.48,2.4399,2.3471,2.3396,2.3396,2.3396,2.3396,2.3371,2.3271,2.3271,2.3221,2.312,2.3095,2.292,2.2518,2.2472,2.2268,2.187,2.1845,2.1744,2.1672,2.1295,2.0867,2.0666,2.0289,1.9886,1.9761,1.9334,1.8807,1.843,1.8179,1.8154,1.8129,1.7827,1.7387,1.6915,1.6279,1.5563,1.488,1.4372,1.3905,1.343,1.3234,1.3089,1.2968,1.2939,1.2915,1.2915,1.2915,1.2915,1.2876,1.2598,1.2207,4.1781,4.1125,4.0701,4.0199,3.9697,3.9697,3.9697,3.9647,3.9094,3.829,3.7186,3.7111,3.6857,3.6405,3.6329,3.5981,3.5458,3.4831,3.4349,0.0,3.3319,3.3061,3.296,3.2441,3.2139,3.1913,3.106,3.0583,3.0457,3.003,2.9779,2.9779,2.9779,2.9779,2.9779,2.9779,2.9754,2.9654,2.9063,2.8298,2.7318,2.7329,2.6992,2.6399,2.5862,2.5561,2.5485,2.5084,2.5001,2.546,2.5485,2.5711,2.6223,2.6248,2.6013,2.5561,2.5971,2.5845,2.4901,2.5234,2.5285,2.485,2.48,2.47,2.4575,2.455,2.455,2.455,2.4531,2.4349,2.3954,2.3879,2.3653,2.3195,2.3095,2.307,2.297,2.2945,2.292,2.2794,2.2869,2.2644,2.2217,2.2096,2.1644,2.0943,2.0691,2.0415,1.9911,1.9359,1.9008,1.8832,1.8481,1.8254,1.8304,1.8179,1.7858,1.7244,1.68,1.6192,1.5382,1.481,1.4276,1.3787,1.3433,1.319,1.3065,1.2964,1.2915,1.2915,1.2915,1.2915,1.2915,1.2817,1.2641,4.2108,4.13,4.1,4.0475,3.9697,3.9697,3.9697,3.9672,3.9421,3.8693,3.7638,3.7312,3.6933,3.643,3.6405,3.6279,3.5956,3.5429,3.4831,3.4324,3.3771,3.3413,3.3111,3.2817,3.2516,3.219,3.1738,3.1145,3.0633,3.0357,3.0105,2.9804,2.9779,2.9779,2.9779,2.9779,2.9779,2.9779,2.9528,2.9001,2.8197,2.8172,2.7921,2.7369,2.7092,2.6967,2.6942,2.6741,2.6716,2.6942,2.6666,2.665,2.6901,2.665,2.6373,2.6122,2.6348,2.6273,2.577,2.5937,2.5996,2.5737,2.5745,2.5711,2.5711,2.5159,2.48,2.48,2.48,2.4675,2.4456,2.418,2.3879,2.3627,2.3296,2.3095,2.3095,2.3095,2.3095,2.3095,2.3095,2.2995,2.2769,2.2498,2.2196,2.1594,2.137,2.0918,2.039,2.0087,1.9786,1.9484,1.9233,1.9108,1.9058,1.8782,1.8483,1.8112,1.7601,1.6952,1.6125,1.5544,1.4918,1.4159,1.3692,1.3358,1.3138,1.3012,1.2939,1.2915,1.2915,1.2915,1.2915,1.2915,1.2837,4.2233,4.1275,4.115,4.0601,3.9722,3.9697,3.9697,3.9672,3.9546,3.8944,3.8015,3.7563,3.6985,3.643,3.6405,3.6405,3.6329,3.578,3.5257,3.4806,3.4223,3.3671,3.3269,3.3187,3.2842,3.2416,3.229,3.1788,3.1035,3.0859,3.0507,3.003,2.998,2.9905,2.9779,2.9779,2.9779,2.9779,2.9779,2.9503,2.8913,2.8888,2.8637,2.8147,2.8097,2.8122,2.8122,2.8122,2.8122,2.8097,2.7695,2.7469,2.7444,2.7102,2.6876,2.6851,2.6851,2.6801,2.67,2.6675,2.6625,2.6499,2.6499,2.6474,2.6424,2.5686,2.5184,2.5184,2.5234,2.5159,2.4983,2.4657,2.4305,2.418,2.3772,2.3496,2.3346,2.3296,2.3246,2.3145,2.3095,2.3095,2.3045,2.2744,2.2447,2.2246,2.1845,2.1317,2.0968,2.0817,2.049,2.0163,1.9911,1.9761,1.9786,1.9484,1.9108,1.8909,1.8388,1.7677,1.6955,1.6362,1.5681,1.4755,1.4039,1.3594,1.3234,1.2992,1.2939,1.2915,1.2915,1.2915,1.2915,1.2915,1.2895,4.1882,4.125,4.0774,4.0249,3.9722,3.9697,3.9697,3.9622,3.917,3.8592,3.8015,3.7965,3.7312,3.6505,3.6405,3.6405,3.6355,3.5805,3.5483,3.5307,3.4374,3.3872,3.3746,3.3319,3.3043,3.2918,3.2491,3.219,3.1964,3.1512,3.1035,3.0583,3.0493,3.0281,2.9854,2.9804,2.9804,2.9779,2.9779,2.9528,2.8938,2.8888,2.8674,2.8122,2.8122,2.8122,2.8172,2.8122,2.8122,2.8122,2.8072,2.8021,2.8021,2.7971,2.7946,2.7921,2.7921,2.7745,2.7268,2.7193,2.7027,2.6549,2.6524,2.6499,2.6499,2.6399,2.6323,2.6273,2.6298,2.6047,2.5611,2.5435,2.5159,2.4782,2.4632,2.4449,2.4004,2.3929,2.3703,2.3145,2.3145,2.3095,2.3095,2.302,2.2819,2.2447,2.202,2.1619,2.1418,2.1119,2.0817,2.0566,2.0214,1.9886,1.9811,1.9786,1.9484,1.9108,1.8884,1.8388,1.7727,1.6931,1.608,1.5446,1.4542,1.3784,1.3382,1.3118,1.2915,1.2915,1.2915,1.2915,1.2915,1.2915,1.2915,4.163,4.0852,4.0601,4.0199,3.9722,3.9697,3.9697,3.9647,3.912,3.8542,3.799,3.7663,3.7086,3.643,3.6405,3.6405,3.638,3.6132,3.5855,3.5483,3.5006,3.448,3.3922,3.3696,3.3395,3.3093,3.2817,3.2541,3.2164,3.1662,3.1286,3.111,3.1085,3.0809,3.0306,3.0281,3.0131,2.9804,2.9779,2.9679,2.9478,2.9428,2.9327,2.9151,2.9101,2.9101,2.9101,2.9101,2.9101,2.9076,2.88,2.8562,2.8599,2.8298,2.8122,2.8122,2.8122,2.7996,2.777,2.777,2.7544,2.7027,2.6977,2.6851,2.6524,2.6499,2.6499,2.6499,2.6499,2.6373,2.6147,2.5812,2.5511,2.5285,2.4976,2.4732,2.4531,2.4205,2.3879,2.3653,2.3321,2.312,2.3095,2.3095,2.302,2.2794,2.2573,2.2322,2.202,2.1769,2.1518,2.1245,2.0968,2.0489,2.0012,1.9811,1.9685,1.9534,1.9434,1.9158,1.8462,1.7727,1.6908,1.603,1.4936,1.4039,1.3478,1.3234,1.3012,1.2964,1.2915,1.2915,1.2915,1.2915,1.2915,4.1379,4.0551,4.035,4.0074,3.9697,3.9697,3.9597,3.9396,3.8868,3.8316,3.7739,3.7186,3.6782,3.6455,3.6405,3.6405,3.6405,3.6405,3.6157,3.578,3.5583,3.5102,3.4374,3.4173,3.3922,3.3596,3.3545,3.3244,3.2667,3.2114,3.1788,3.1637,3.1612,3.1336,3.0859,3.0708,3.0432,3.0055,2.988,2.9779,2.9779,2.9779,2.9779,2.9779,2.9779,2.9779,2.9779,2.9779,2.9779,2.9779,2.9377,2.9176,2.9151,2.8775,2.8574,2.8574,2.8574,2.8499,2.8311,2.8323,2.8097,2.7595,2.7519,2.7268,2.6851,2.6725,2.665,2.6499,2.6499,2.6499,2.6449,2.6122,2.5862,2.5812,2.5485,2.5234,2.5034,2.4657,2.4406,2.4205,2.3873,2.3496,2.3371,2.3221,2.307,2.307,2.307,2.2995,2.2594,2.2397,2.2121,2.1769,2.1594,2.1142,2.0413,2.0162,2.0062,1.9987,1.9962,1.9584,1.9108,1.8437,1.7654,1.6643,1.5422,1.4432,1.3713,1.3354,1.3061,1.2964,1.2915,1.2915,1.2915,1.2915,1.2915,4.1053,4.0475,3.9948,3.9747,3.9697,3.9697,3.9396,3.8969,3.8341,3.7739,3.7262,3.6684,3.6455,3.6405,3.6405,3.6405,3.6405,3.6405,3.638,3.6279,3.5805,3.5483,3.5382,3.4951,3.465,3.45,3.45,3.4248,3.3721,3.3244,3.2717,3.2215,3.219,3.1913,3.1386,3.0934,3.0633,3.0532,3.0105,2.9804,2.9804,2.9804,2.9779,2.9779,2.9779,2.9779,2.9779,2.9779,2.9779,2.9779,2.9729,2.9729,2.9729,2.9679,2.9628,2.9654,2.9679,2.9453,2.8976,2.89,2.8612,2.8172,2.8072,2.7846,2.7318,2.7243,2.7077,2.6575,2.6575,2.6549,2.6499,2.6424,2.6373,2.6373,2.6399,2.6122,2.5611,2.546,2.5285,2.4908,2.4625,2.4349,2.4004,2.3446,2.3296,2.3221,2.317,2.312,2.3045,2.2644,2.2343,2.2221,2.192,2.1521,2.1395,2.0916,2.0691,2.049,2.0162,1.9811,1.9482,1.9031,1.8165,1.7288,1.6091,1.5037,1.4074,1.3498,1.3158,1.2988,1.2939,1.2939,1.2968,1.292,1.292,4.0749,3.9973,3.9772,3.9697,3.9697,3.9697,3.9572,3.9295,3.8391,3.7889,3.7563,3.6807,3.6405,3.6405,3.6405,3.6405,3.6405,3.6405,3.6405,3.6405,3.6157,3.5881,3.5483,3.5282,3.5052,3.4705,3.468,3.4449,3.3947,3.3671,3.3319,3.2842,3.2767,3.2491,3.1989,3.1738,3.1486,3.1085,3.0583,3.0306,3.0256,2.998,2.9779,2.9779,2.9779,2.9779,2.9779,2.9779,2.9779,2.9779,2.9779,2.9779,2.9779,2.9779,2.9779,2.9779,2.9779,2.9704,2.9503,2.9478,2.9227,2.8725,2.8612,2.8398,2.7921,2.7795,2.7595,2.7153,2.7027,2.6901,2.6575,2.6499,2.6499,2.6499,2.6499,2.6449,2.6172,2.5871,2.5511,2.531,2.5026,2.47,2.4525,2.4299,2.4199,2.4148,2.3898,2.3728,2.3572,2.317,2.2819,2.2794,2.2673,2.2548,2.2518,2.1719,2.1144,2.0792,2.0465,2.0163,1.9834,1.9232,1.8412,1.7894,1.6797,1.5677,1.4701,1.3666,1.3326,1.3061,1.3017,1.3041,1.3094,1.3094,1.3089,4.0427,3.9902,3.9826,3.9903,3.9955,3.9852,3.9751,3.9473,3.8668,3.8191,3.7889,3.7211,3.6933,3.6885,3.6958,3.6807,3.6656,3.6505,3.6405,3.6405,3.6405,3.6182,3.5881,3.5759,3.5629,3.5278,3.5006,3.4776,3.4424,3.4073,3.3721,3.337,3.3169,3.2893,3.2516,3.2315,3.2014,3.1612,3.1135,3.0809,3.0608,3.0256,2.9955,2.9829,2.9779,2.9779,2.9779,2.9779,2.9779,2.9779,2.9779,2.9779,2.9779,2.9779,2.9779,2.9779,2.9779,2.9779,2.9779,2.9779,2.9628,2.9214,2.9164,2.8976,2.8448,2.8373,2.8097,2.7695,2.7544,2.7369,2.7092,2.7027,2.6952,2.6801,2.6751,2.6751,2.6725,2.6389,2.6113,2.5896,2.541,2.5134,2.5034,2.4876,2.4775,2.48,2.4481,2.428,2.4205,2.3772,2.3371,2.3371,2.317,2.302,2.2945,2.2397,2.1895,2.1518,2.0842,2.0515,2.0112,1.9483,1.8882,1.8383,1.7519,1.6382,1.5241,1.4121,1.3553,1.3266,1.3118,1.3142,1.3218,1.3314,1.3358,3.9928,4.0134,4.0083,4.0236,4.0415,4.0185,3.9804,3.9398,3.9095,3.8617,3.8165,3.7989,3.7863,3.7914,3.7814,3.7638,3.7086,3.6707,3.6455,3.6405,3.6405,3.6405,3.6329,3.6329,3.6329,3.6204,3.578,3.5483,3.5307,3.4525,3.4022,3.3822,3.3445,3.3219,3.3068,3.2641,3.2315,3.2114,3.1687,3.1185,3.0708,3.0608,3.0331,2.9943,2.9843,2.9856,2.9818,2.9779,2.9779,2.9779,2.9779,2.9779,2.9779,2.9779,2.9779,2.9779,2.9779,2.9779,2.9779,2.9779,2.9779,2.9679,2.9754,2.9478,2.9051,2.8888,2.8662,2.8222,2.8097,2.8072,2.8021,2.7946,2.777,2.7394,2.7293,2.7329,2.7268,2.7268,2.7042,2.6499,2.5946,2.5636,2.5511,2.531,2.5084,2.5059,2.4876,2.4775,2.4757,2.4356,2.4054,2.3853,2.3602,2.3321,2.3195,2.3045,2.2719,2.2318,2.1468,2.0867,2.0514,1.9984,1.943,1.8875,1.8001,1.6899,1.5731,1.4667,1.4014,1.3683,1.3516,1.3447,1.3576,1.3718,1.3695,4.0389,4.0618,4.044,4.0542,4.0744,4.0491,4.0236,4.0058,3.965,3.922,3.8867,3.8438,3.8163,3.8064,3.799,3.7713,3.7186,3.6985,3.6782,3.648,3.643,3.6405,3.6405,3.6405,3.6405,3.638,3.6207,3.5906,3.5483,3.5132,3.4831,3.45,3.4299,3.3997,3.3646,3.3445,3.3219,3.2767,3.224,3.1863,3.1637,3.1105,3.073,3.0567,3.0329,3.0216,3.0177,2.9972,2.9779,2.9779,2.9779,2.9779,2.9779,2.9779,2.9779,2.9779,2.9779,2.9779,2.9779,2.9779,2.9779,2.9779,2.9779,2.9729,2.9553,2.9503,2.9252,2.8712,2.8637,2.8512,2.8197,2.8122,2.8072,2.7871,2.7846,2.7846,2.7795,2.7519,2.7102,2.6625,2.6348,2.6248,2.6197,2.5937,2.5862,2.5871,2.5586,2.536,2.5285,2.4908,2.4381,2.4079,2.3778,2.3521,2.3346,2.3195,2.2945,2.2644,2.202,2.1395,2.0991,2.0588,2.0005,1.9271,1.8388,1.7393,1.6232,1.5369,1.4776,1.4337,1.4261,1.4198,1.4178,1.4163,1.4163,4.1147,4.1471,4.1348,4.1348,4.1448,4.1198,4.1047,4.092,4.0484,4.0103,3.9852,3.942,3.9043,3.8768,3.8668,3.8316,3.7814,3.7613,3.7186,3.6732,3.6455,3.6405,3.6405,3.6405,3.6405,3.6405,3.6405,3.6182,3.5855,3.5583,3.5307,3.5031,3.4781,3.455,3.4198,3.3997,3.3696,3.3345,3.2902,3.2542,3.2306,3.1945,3.1584,3.1279,3.1048,3.0867,3.0648,3.042,3.0174,2.9945,2.9843,2.9779,2.9779,2.9779,2.9779,2.9779,2.9779,2.9779,2.9779,2.9779,2.9779,2.9779,2.9779,2.9779,2.9779,2.9779,2.9578,2.9327,2.9252,2.9101,2.8825,2.875,2.8725,2.875,2.8549,2.8423,2.8348,2.7921,2.7394,2.7002,2.6801,2.67,2.6549,2.6499,2.6499,2.6424,2.6197,2.5946,2.5812,2.5435,2.4983,2.4506,2.4155,2.3879,2.3521,2.3321,2.312,2.2844,2.2523,2.202,2.1594,2.1217,2.0709,1.984,1.8975,1.8002,1.6882,1.6286,1.5717,1.539,1.5046,1.4939,1.489,1.4741,1.4719,4.2141,4.2555,4.2555,4.2533,4.2484,4.2289,4.2016,4.1796,4.1544,4.1243,4.0969,4.0616,4.0338,4.0083,3.9701,3.9246,3.8869,3.8291,3.7764,3.7236,3.681,3.6631,3.6556,3.6556,3.6505,3.643,3.6405,3.6405,3.6304,3.5881,3.5533,3.5508,3.5177,3.4801,3.47,3.4248,3.4022,3.3815,3.3561,3.3183,3.2784,3.2993,3.2852,3.2058,3.2069,3.1871,3.1505,3.1345,3.0931,3.024,2.9932,2.9779,2.9779,2.9779,2.9779,2.9779,2.9779,2.9779,2.9779,2.9779,2.9779,2.9779,2.9779,2.9779,2.9779,2.9779,2.9754,2.9704,2.9704,2.9704,2.9679,2.9654,2.9654,2.9679,2.9252,2.9001,2.8838,2.8423,2.7946,2.7469,2.7329,2.7153,2.665,2.6575,2.6499,2.6474,2.6424,2.6373,2.6298,2.5937,2.5686,2.5234,2.4707,2.4406,2.4073,2.3653,2.3477,2.3296,2.2949,2.2472,2.202,2.1619,2.1139,2.0261,1.9548,1.859,1.7789,1.7209,1.6651,1.6218,1.5942,1.5734,1.5563,1.5475,1.5337,4.3712,4.3566,4.3396,4.3328,4.328,4.3232,4.306,4.2846,4.2749,4.2431,4.199,4.1571,4.1047,4.0389,4.0134,3.9575,3.9045,3.8768,3.8341,3.7839,3.7663,3.7312,3.7036,3.696,3.6807,3.6505,3.6531,3.6405,3.6405,3.6232,3.6132,3.6157,3.5931,3.568,3.5307,3.5107,3.465,3.4042,3.399,3.3801,3.352,3.3621,3.3767,3.3806,3.3572,3.3342,3.3143,3.262,3.1691,3.055,3.0019,2.9779,2.9843,2.9843,2.9856,2.9856,2.9818,2.9779,2.9779,2.9779,2.9779,2.9779,2.9779,2.9779,2.9779,2.9779,2.9779,2.9779,2.9779,2.9779,2.9779,2.9779,2.9779,2.9779,2.9603,2.9377,2.8988,2.8762,2.8499,2.7971,2.757,2.7329,2.7102,2.6801,2.66,2.6575,2.6549,2.6549,2.6549,2.6373,2.6072,2.5711,2.5259,2.4983,2.4657,2.413,2.3828,2.3753,2.3351,2.2744,2.2297,2.1845,2.1234,2.0496,2.0109,1.9317,1.8732,1.8147,1.7617,1.7091,1.7016,1.6894,1.6479,1.6219,1.6072,4.5091,4.4712,4.4573,4.448,4.4415,4.4415,4.4275,4.4012,4.3871,4.3539,4.3012,4.2409,4.172,4.0997,4.0618,4.0109,3.9576,3.9222,3.8894,3.8591,3.8416,3.804,3.7663,3.7513,3.7337,3.7111,3.7084,3.691,3.6807,3.6757,3.6631,3.643,3.6405,3.6182,3.5881,3.5558,3.5299,3.478,3.4571,3.4349,3.4484,3.4518,3.4674,3.4893,3.4772,3.4558,3.4182,3.3421,3.2397,3.1403,3.0786,3.0495,3.047,3.0266,3.0164,3.019,3.0011,2.9934,2.9895,2.9856,2.9779,2.9779,2.9779,2.9779,2.9779,2.9779,2.9779,2.9779,2.9779,2.9779,2.9779,2.9779,2.9779,2.9779,2.9779,2.9654,2.9302,2.9327,2.9026,2.8537,2.8172,2.7846,2.767,2.7318,2.7193,2.7143,2.7027,2.6952,2.6851,2.665,2.6458,2.6105,2.5745,2.541,2.5134,2.4682,2.4079,2.3979,2.3627,2.3045,2.2619,2.2171,2.1763,2.1203,2.0692,2.0158,1.954,1.8982,1.8543,1.8206,1.8168,1.7936,1.7484,1.6976,1.6848,4.6413,4.5882,4.5882,4.5747,4.5549,4.5595,4.5384,4.5173,4.4972,4.4602,4.4087,4.33,4.2604,4.1845,4.1372,4.092,4.0592,4.003,3.965,3.9448,3.9272,3.8894,3.8416,3.819,3.799,3.7864,3.7965,3.7688,3.7312,3.7211,3.6958,3.6631,3.6505,3.6405,3.6301,3.5927,3.5814,3.5734,3.5296,3.5227,3.5526,3.5527,3.5628,3.5997,3.5903,3.551,3.4932,3.4242,3.3488,3.2616,3.1993,3.1708,3.1604,3.1227,3.0917,3.0777,3.0509,3.0253,3.0088,2.9895,2.9779,2.9779,2.9779,2.9818,2.9818,2.9856,2.9895,2.9972,2.9895,2.9972,3.0011,2.9934,2.9972,2.9972,2.9934,2.9856,2.9856,2.9818,2.9578,2.9063,2.8938,2.8637,2.8373,2.8147,2.8072,2.7645,2.753,2.7425,2.7284,2.7101,2.6873,2.6535,2.6198,2.5795,2.5544,2.5234,2.4607,2.413,2.3753,2.3271,2.2995,2.2648,2.2447,2.2038,2.145,2.0816,2.0158,1.9702,1.9327,1.8984,1.8768,1.8628,1.8437,1.7896,1.7597,4.7414,4.6447,4.6403,4.6269,4.609,4.6269,4.6225,4.5972,4.5882,4.5566,4.5064,4.4369,4.3614,4.2846,4.236,4.1918,4.1498,4.1191,4.1015,4.0564,4.0514,4.0159,3.9601,3.907,3.8492,3.8191,3.8015,3.7939,3.7789,3.7536,3.7184,3.7033,3.6704,3.6499,3.659,3.6489,3.6442,3.6496,3.6251,3.6332,3.6518,3.635,3.6538,3.7214,3.7173,3.6898,3.6549,3.6164,3.5806,3.511,3.3884,3.309,3.301,3.2761,3.2354,3.1808,3.1306,3.0803,3.0253,3.0023,2.9779,2.9818,2.9856,2.9856,3.0011,3.0049,3.0203,3.0394,3.0508,3.0546,3.0634,3.0584,3.0508,3.047,3.0368,3.0254,3.0216,3.0011,2.9781,2.9591,2.924,2.89,2.875,2.8435,2.8309,2.8184,2.8116,2.7997,2.784,2.7656,2.7385,2.7156,2.6755,2.6384,2.6013,2.5678,2.5034,2.4431,2.3979,2.3602,2.3296,2.2995,2.2719,2.2468,2.2167,2.1503,2.0844,2.0345,1.9966,1.9643,1.9322,1.9129,1.8908,1.8535,1.8236,4.8074,4.6917,4.6961,4.6873,4.6756,4.6873,4.6844,4.6712,4.658,4.6269,4.5776,4.5155,4.4509,4.3776,4.3375,4.2991,4.2604,4.2311,4.194,4.1495,4.1322,4.1121,4.087,4.026,3.965,3.8944,3.8818,3.8743,3.8541,3.8337,3.8032,3.7574,3.7172,3.6941,3.69,3.6922,3.7093,3.7313,3.7224,3.7334,3.7779,3.7449,3.7318,3.7929,3.7929,3.7672,3.7289,3.726,3.7183,3.6821,3.5958,3.5102,3.4646,3.4285,3.3805,3.336,3.259,3.1902,3.1241,3.0675,3.0367,3.0113,3.0088,3.0164,3.0254,3.0318,3.0546,3.0748,3.0898,3.0985,3.1172,3.1172,3.106,3.0936,3.0835,3.0759,3.0634,3.0356,3.0088,3.0037,2.9809,2.9644,2.9403,2.9137,2.9125,2.9238,2.9091,2.8969,2.8841,2.863,2.8125,2.7773,2.7385,2.6967,2.6578,2.6072,2.5435,2.4858,2.4356,2.4004,2.3678,2.3321,2.2995,2.2719,2.2468,2.2167,2.1556,2.1081,2.0607,2.0231,1.9905,1.9607,1.9308,1.8958,1.8733,4.8566,4.7429,4.7339,4.7309,4.7309,4.7309,4.7266,4.7266,4.7062,4.6712,4.6314,4.5866,4.5293,4.4741,4.4387,4.4106,4.3823,4.3444,4.2985,4.2501,4.2382,4.2115,4.1842,4.1492,4.1017,4.0134,3.9956,3.9829,3.9675,3.9471,3.9107,3.8412,3.7884,3.7698,3.7479,3.7294,3.7658,3.8281,3.8185,3.8455,3.9011,3.8699,3.8406,3.8502,3.8755,3.8658,3.8429,3.8409,3.837,3.8196,3.8234,3.7624,3.6741,3.5958,3.5404,3.5143,3.4142,3.3269,3.2496,3.1876,3.1332,3.0778,3.0727,3.0791,3.0855,3.1137,3.1389,3.1468,3.1612,3.1736,3.1773,3.1809,3.17,3.1553,3.1442,3.132,3.1198,3.0861,3.0722,3.0482,3.0405,3.029,3.0278,3.015,3.0228,3.0279,3.0143,2.9991,2.9835,2.9673,2.924,2.8621,2.8187,2.7361,2.6901,2.6527,2.5862,2.535,2.4796,2.433,2.3954,2.3452,2.307,2.2995,2.2744,2.2443,2.2117,2.1613,2.1189,2.0817,2.0415,2.0036,1.971,1.9409,1.9158,4.885,4.8087,4.7519,4.7309,4.7309,4.7309,4.7309,4.7309,4.7266,4.7062,4.6756,4.6491,4.618,4.5837,4.5611,4.5384,4.5018,4.4712,4.4359,4.3937,4.3748,4.3464,4.284,4.2695,4.2257,4.1644,4.1345,4.1167,4.0835,4.0522,4.0259,3.9819,3.8973,3.8522,3.8568,3.8412,3.8637,3.9284,3.9404,3.9786,4.0039,3.9733,3.9378,3.9538,3.9877,4.0079,4.0138,4.0206,4.0068,3.9568,3.966,3.9276,3.8509,3.7659,3.6958,3.6222,3.5398,3.4612,3.3826,3.318,3.2686,3.2385,3.2137,3.215,3.2306,3.2592,3.276,3.287,3.2927,3.2945,3.2988,3.281,3.2712,3.2632,3.2417,3.22,3.2128,3.1909,3.1579,3.1209,3.1086,3.0898,3.0898,3.0898,3.0936,3.1048,3.1098,3.0963,3.0823,3.0744,3.0564,2.9835,2.9061,2.8082,2.7122,2.6824,2.6409,2.5894,2.5329,2.4639,2.4186,2.3527,2.3145,2.307,2.297,2.2769,2.2418,2.2071,2.1644,2.1194,2.0792,2.039,2.0037,1.971,1.9409,4.894,4.8237,4.7578,4.7309,4.7309,4.7309,4.7309,4.7309,4.7309,4.7179,4.6931,4.68,4.6624,4.6403,4.6314,4.609,4.5882,4.5747,4.5446,4.5127,4.4943,4.4712,4.4125,4.4031,4.389,4.3606,4.3368,4.2744,4.211,4.175,4.1554,4.125,4.0499,4.0106,4.014,4.0083,4.0087,4.0504,4.0805,4.1055,4.117,4.0656,4.055,4.0681,4.0832,4.0956,4.0965,4.108,4.0969,4.0702,4.0718,4.0368,3.9832,3.9202,3.8481,3.7696,3.6855,3.6095,3.5298,3.4624,3.4012,3.3572,3.3378,3.3262,3.3417,3.3684,3.4125,3.4316,3.414,3.4065,3.4059,3.3775,3.3542,3.3409,3.3234,3.3094,3.296,3.2846,3.2489,3.2055,3.1836,3.1653,3.1458,3.1495,3.1569,3.169,3.1946,3.1902,3.1809,3.1779,3.1756,3.0841,2.9908,2.8875,2.7934,2.7437,2.7087,2.6557,2.5874,2.521,2.4551,2.3997,2.3457,2.312,2.302,2.2945,2.2769,2.2418,2.1995,2.1568,2.1119,2.0691,2.0365,2.0012,1.9761,4.9,4.8461,4.7638,4.7309,4.7309,4.7309,4.7309,4.7309,4.7309,4.7222,4.7019,4.6975,4.6887,4.6785,4.6712,4.6624,4.6447,4.6447,4.624,4.6016,4.5882,4.5776,4.5566,4.5429,4.5173,4.4961,4.4989,4.4545,4.3511,4.3102,4.2931,4.2697,4.2269,4.1828,4.1671,4.1526,4.1713,4.188,4.2137,4.2222,4.1951,4.1784,4.1733,4.1704,4.1577,4.1594,4.1722,4.1837,4.1765,4.1615,4.1504,4.1265,4.0726,4.0427,4.004,3.9276,3.8385,3.7537,3.6845,3.6143,3.5515,3.5134,3.4739,3.4596,3.4618,3.5017,3.5349,3.5752,3.5518,3.5251,3.5235,3.4773,3.4485,3.4266,3.414,3.3922,3.3756,3.3618,3.3444,3.3058,3.2739,3.2489,3.2309,3.2237,3.2345,3.2417,3.2632,3.2846,3.2765,3.2891,3.264,3.1709,3.076,2.9719,2.8837,2.8237,2.7866,2.7433,2.6641,2.5865,2.5218,2.4608,2.4059,2.3513,2.312,2.302,2.2895,2.2794,2.2393,2.197,2.1418,2.1041,2.084,2.0489,2.0137,4.9269,4.909,4.7818,4.7309,4.7309,4.7309,4.7309,4.7309,4.7309,4.7309,4.7193,4.7236,4.7222,4.7179,4.7179,4.7179,4.7135,4.7092,4.6887,4.6712,4.6668,4.6447,4.6151,4.6135,4.5972,4.5882,4.5792,4.5401,4.4823,4.4527,4.4387,4.4208,4.3538,4.3018,4.3192,4.2992,4.2693,4.2965,4.2983,4.2798,4.2614,4.2662,4.2712,4.2763,4.2832,4.2862,4.2802,4.2781,4.2701,4.2321,4.2291,4.1961,4.1414,4.1265,4.1235,4.0591,3.9593,3.8389,3.8211,3.7625,3.7214,3.6834,3.6497,3.6443,3.6319,3.6467,3.6798,3.752,3.7005,3.6582,3.64,3.6006,3.5742,3.5439,3.5127,3.4797,3.4583,3.4427,3.4261,3.3991,3.3618,3.3409,3.3234,3.3199,3.3164,3.3234,3.3368,3.3514,3.3618,3.3652,3.3492,3.2582,3.1771,3.0754,3.0004,2.9362,2.8831,2.841,2.7505,2.6616,2.5981,2.5332,2.4563,2.4039,2.3593,2.3246,2.3195,2.3045,2.2769,2.2393,2.1945,2.1669,2.1443,2.1041,2.0616,4.876,4.8626,4.7698,4.7309,4.7309,4.7309,4.7309,4.7309,4.7309,4.7309,4.7309,4.7309,4.7309,4.7309,4.7309,4.7309,4.7309,4.7309,4.7266,4.7179,4.7106,4.6975,4.6887,4.68,4.6712,4.6624,4.6624,4.6624,4.6195,4.5702,4.5384,4.5417,4.4989,4.471,4.4715,4.4694,4.4556,4.4327,4.3913,4.3407,4.3148,4.313,4.314,4.314,4.325,4.329,4.329,4.329,4.32,4.294,4.291,4.2611,4.2141,4.1931,4.1803,4.1324,4.0718,4.0165,3.9917,3.9177,3.8735,3.8409,3.8007,3.7577,3.7663,3.7783,3.7915,3.8348,3.7824,3.7535,3.7393,3.6961,3.6759,3.6487,3.6153,3.5857,3.552,3.5263,3.5064,3.4767,3.4467,3.4259,3.402,3.3819,3.3756,3.3888,3.3957,3.4128,3.4128,3.4094,3.3871,3.3425,3.267,3.1886,3.1288,3.0682,3.0029,2.9421,2.8427,2.762,2.6848,2.6127,2.5338,2.4614,2.4129,2.3834,2.3627,2.3301,2.292,2.2694,2.2523,2.2246,2.1945,2.1518,2.1142,4.8177,4.7997,4.7519,4.7309,4.7309,4.7309,4.7309,4.7309,4.7309,4.7309,4.7309,4.7309,4.7309,4.7309,4.7309,4.7309,4.7309,4.7309,4.7309,4.7309,4.7309,4.7266,4.7222,4.7266,4.7266,4.7309,4.7179,4.7135,4.6975,4.6624,4.624,4.6358,4.5958,4.5913,4.5987,4.596,4.5771,4.4993,4.4554,4.3942,4.3429,4.329,4.329,4.329,4.329,4.329,4.329,4.329,4.329,4.326,4.323,4.3,4.2671,4.2581,4.2462,4.2132,4.1816,4.1778,4.1288,4.0633,4.0077,3.9639,3.9145,3.8614,3.8538,3.8679,3.8723,3.8921,3.8595,3.8328,3.8151,3.7818,3.7555,3.7411,3.7228,3.6901,3.6599,3.6276,3.5908,3.5486,3.5217,3.4949,3.4685,3.4361,3.4298,3.4467,3.4601,3.4668,3.4635,3.4534,3.4409,3.4119,3.3709,3.3082,3.2597,3.1956,3.1318,3.052,2.9523,2.8665,2.7916,2.6971,2.6033,2.539,2.4779,2.4217,2.3879,2.3471,2.3095,2.292,2.2769,2.2673,2.2397,2.197,2.1619,4.7908,4.7369,4.7339,4.7309,4.7309,4.7309,4.7309,4.7309,4.7309,4.7309,4.7309,4.7309,4.7309,4.7309,4.7309,4.7309,4.7309,4.7309,4.7309,4.7309,4.7309,4.7309,4.7309,4.7309,4.7309,4.7309,4.7309,4.7309,4.7266,4.7179,4.6931,4.6844,4.6624,4.6535,4.6535,4.655,4.615,4.5437,4.4953,4.4322,4.3668,4.3349,4.329,4.329,4.329,4.329,4.329,4.329,4.329,4.329,4.329,4.329,4.312,4.309,4.297,4.291,4.2841,4.2811,4.2514,4.1722,4.1109,4.0766,4.0178,3.9453,3.9247,3.9076,3.9156,3.9265,3.905,3.9116,3.8973,3.8775,3.8322,3.8202,3.8023,3.7664,3.7391,3.7233,3.6798,3.6293,3.5963,3.5718,3.5418,3.5125,3.4756,3.4861,3.4931,3.4968,3.5063,3.4997,3.5001,3.4872,3.4639,3.4251,3.3914,3.3258,3.2532,3.1668,3.0772,2.9903,2.9109,2.8061,2.6791,2.6174,2.5588,2.4855,2.413,2.3753,2.3452,2.3195,2.302,2.2869,2.2769,2.2498,2.2096,4.7549,4.7309,4.7309,4.7309,4.7309,4.7309,4.7309,4.7309,4.7309,4.7309,4.7309,4.7309,4.7309,4.7309,4.7309,4.7309,4.7309,4.7309,4.7309,4.7309,4.7309,4.7309,4.7309,4.7309,4.7309,4.7309,4.7309,4.7309,4.7309,4.7309,4.7266,4.7135,4.7048,4.7048,4.7048,4.6945,4.6496,4.5913,4.5359,4.4713,4.4097,4.3469,4.329,4.329,4.329,4.329,4.329,4.329,4.329,4.329,4.329,4.329,4.329,4.329,4.329,4.329,4.329,4.329,4.32,4.2414,4.1786,4.1181,4.0599,4.0085,3.9861,3.9563,3.9361,3.9373,3.9433,3.9463,3.9313,3.9134,3.8985,3.896,3.8721,3.8362,3.8147,3.7958,3.763,3.7024,3.6786,3.6637,3.6309,3.5948,3.5522,3.5218,3.5258,3.5294,3.5294,3.5294,3.5261,3.5228,3.503,3.4964,3.4653,3.4139,3.3657,3.2818,3.1924,3.1022,3.0062,2.8757,2.7641,2.704,2.6407,2.5651,2.495,2.4217,2.3728,2.3427,2.3195,2.307,2.297,2.2869,2.2623,4.7309,4.7309,4.7309,4.7309,4.7309,4.7309,4.7309,4.7309,4.7309,4.7309,4.7309,4.7309,4.7309,4.7309,4.7309,4.7309,4.7309,4.7309,4.7309,4.7309,4.7309,4.7309,4.7309,4.7309,4.7309,4.7309,4.7309,4.7309,4.7309,4.7309,4.7309,4.7266,4.7309,4.7266,4.7266,4.7279,4.698,4.6322,4.5873,4.5244,4.4616,4.4227,4.3947,4.3917,4.3798,4.3648,4.3589,4.3499,4.329,4.329,4.329,4.329,4.329,4.329,4.329,4.3319,4.329,4.329,4.317,4.294,4.2342,4.1803,4.1414,4.1025,4.0636,4.0247,4.0187,3.9762,3.9738,3.9649,3.9523,3.9313,3.932,3.9164,3.9194,3.8925,3.8811,3.8656,3.8237,3.7789,3.7609,3.743,3.6858,3.6406,3.5866,3.5502,3.5356,3.5392,3.5392,3.5392,3.5359,3.5294,3.5228,3.5228,3.5201,3.4809,3.4389,3.379,3.2918,3.1956,3.0899,2.9592,2.853,2.7872,2.721,2.6477,2.5804,2.5122,2.4305,2.3577,2.3346,2.3095,2.307,2.2995,2.3105,4.7309,4.7309,4.7309,4.7309,4.7309,4.7309,4.7309,4.7309,4.7309,4.7309,4.7309,4.7309,4.7309,4.7309,4.7309,4.7309,4.7309,4.7309,4.7309,4.7309,4.7309,4.7309,4.7309,4.7309,4.7309,4.7309,4.7309,4.7309,4.7309,4.7309,4.7309,4.7309,4.7309,4.7309,4.7309,4.7309,4.698,4.6399,4.6279,4.5813,4.5394,4.5095,4.4945,4.4825,4.4526,4.4287,4.4227,4.3738,4.3589,4.3678,4.3529,4.3529,4.3618,4.3499,4.3439,4.3409,4.3319,4.329,4.329,4.326,4.291,4.244,4.2081,4.1841,4.1512,4.1242,4.0973,4.0427,4.0367,4.0068,3.9768,3.9463,3.9493,3.9403,3.9403,3.9343,3.9194,3.917,3.8721,3.8482,3.8362,3.8123,3.7494,3.6896,3.6267,3.5845,3.5609,3.5489,3.5519,3.5457,3.5424,3.5392,3.5359,3.5359,3.5392,3.5424,3.5123,3.4552,3.3856,3.2886,3.1858,3.0676,2.9675,2.8833,2.7984,2.7256,2.6667,2.6063,2.5154,2.423,2.3401,2.312,2.3095,2.3125,2.3241,4.7309,4.7309,4.7309,4.7309,4.7309,4.7309,4.7309,4.7309,4.7309,4.7309,4.7309,4.7309,4.7309,4.7309,4.7309,4.7309,4.7309,4.7309,4.7309,4.7309,4.7309,4.7309,4.7309,4.7309,4.7309,4.7309,4.7309,4.7309,4.7309,4.7309,4.7309,4.7309,4.7309,4.7309,4.7309,4.7309,4.713,4.692,4.6591,4.613,4.5933,4.5574,4.5364,4.5364,4.5125,4.4975,4.4915,4.4317,4.4127,4.4347,4.4227,4.4167,4.4317,4.4287,4.3988,4.3828,4.3678,4.329,4.329,4.326,4.32,4.294,4.2611,4.2381,4.2081,4.1632,4.1332,4.1183,4.1055,4.0696,4.0277,4.0127,4.0008,3.9493,3.9403,3.9403,3.9313,3.9349,3.917,3.914,3.902,3.8631,3.8063,3.7494,3.6866,3.6237,3.5938,3.5609,3.5519,3.5519,3.5457,3.5457,3.5457,3.5457,3.5489,3.5489,3.5489,3.5096,3.452,3.3822,3.2757,3.1696,3.0832,2.9991,2.8985,2.8011,2.7419,2.6746,2.5807,2.4912,2.4109,2.3452,2.3371,2.3362,2.339,4.7309,4.7309,4.7309,4.7309,4.7309,4.7309,4.7309,4.7309,4.7309,4.7309,4.7309,4.7309,4.7309,4.7309,4.7309,4.7309,4.7309,4.7309,4.7309,4.7309,4.7309,4.7309,4.7309,4.7309,4.7309,4.7309,4.7309,4.7309,4.7309,4.7309,4.7309,4.7309,4.7309,4.7309,4.7309,4.7309,4.7279,4.713,4.686,4.6711,4.6561,4.6322,4.6082,4.5992,4.5843,4.5663,4.5454,4.5185,4.4855,4.5065,4.5035,4.4885,4.5065,4.4975,4.4646,4.4466,4.4077,4.3708,4.3678,4.3349,4.329,4.323,4.288,4.2731,4.2671,4.2402,4.2043,4.1833,4.1782,4.1324,4.0905,4.0756,4.0307,3.9798,3.9493,3.9523,3.9373,3.9409,3.9409,3.9373,3.9313,3.896,3.8571,3.8093,3.7524,3.6896,3.6267,3.5938,3.5609,3.5519,3.5489,3.5489,3.5489,3.5489,3.5489,3.5489,3.5489,3.5489,3.5001,3.4424,3.3817,3.2812,3.1977,3.1114,3.0143,2.9201,2.8206,2.7352,2.6453,2.5582,2.4798,2.421,2.3753,2.3781,2.3948,4.7309,4.7309,4.7309,4.7309,4.7309,4.7309,4.7309,4.7309,4.7309,4.7309,4.7309,4.7309,4.7309,4.7309,4.7309,4.7309,4.7309,4.7309,4.7309,4.7309,4.7309,4.7309,4.7309,4.7309,4.7309,4.7309,4.7309,4.7309,4.7309,4.7309,4.7309,4.7309,4.7309,4.7309,4.7309,4.7309,4.7309,4.7249,4.7189,4.71,4.701,4.71,4.695,4.683,4.6591,4.6381,4.6142,4.5753,4.5514,4.5484,4.5394,4.5394,4.5394,4.5364,4.5334,4.5095,4.4616,4.4407,4.4067,4.3648,4.3379,4.3319,4.326,4.326,4.317,4.2991,4.2761,4.2521,4.2372,4.1953,4.1534,4.1085,4.0606,4.0187,3.9798,3.9649,3.9433,3.9373,3.9373,3.9373,3.9373,3.917,3.8781,3.8362,3.8153,3.7614,3.6985,3.6417,3.6058,3.5549,3.5519,3.5489,3.5489,3.5489,3.5489,3.5489,3.5489,3.5489,3.5362,3.4904,3.4357,3.3844,3.3062,3.2162,3.1292,3.027,2.9041,2.7991,2.7097,2.6335,2.5794,2.5033,2.4596,2.479,2.4962,4.7309,4.7309,4.7309,4.7309,4.7309,4.7309,4.7309,4.7309,4.7309,4.7309,4.7309,4.7309,4.7309,4.7309,4.7309,4.7309,4.7309,4.7309,4.7309,4.7309,4.7309,4.7309,4.7309,4.7309,4.7309,4.7309,4.7309,4.7309,4.7309,4.7309,4.7309,4.7309,4.7309,4.7309,4.7309,4.7309,4.7309,4.7309,4.7309,4.7309,4.7309,4.7309,4.7309,4.7189,4.71,4.692,4.677,4.6352,4.6202,4.6561,4.6202,4.6172,4.6711,4.6292,4.5933,4.5334,4.5035,4.4855,4.4407,4.4137,4.3798,4.3439,4.3319,4.329,4.329,4.326,4.317,4.303,4.291,4.2521,4.2162,4.1713,4.1205,4.0726,4.0337,4.0098,3.9918,3.9798,3.9768,3.9553,3.9523,3.9313,3.899,3.896,3.8721,3.8272,3.7764,3.7135,3.6537,3.6028,3.5549,3.5519,3.5489,3.5489,3.5489,3.5489,3.5489,3.5489,3.5362,3.5299,3.5029,3.4515,3.3942,3.3157,3.2164,3.088,2.9544,2.8702,2.8109,2.7629,2.7066,2.6207,2.5563,2.5858,2.6018,4.7309,4.7309,4.7309,4.7309,4.7309,4.7309,4.7309,4.7309,4.7309,4.7309,4.7309,4.7309,4.7309,4.7309,4.7309,4.7309,4.7309,4.7309,4.7309,4.7309,4.7309,4.7309,4.7309,4.7309,4.7309,4.7309,4.7309,4.7309,4.7309,4.7309,4.7309,4.7309,4.7309,4.7309,4.7309,4.7309,4.7309,4.7309,4.7309,4.7309,4.7309,4.7309,4.7309,4.7309,4.7309,4.7309,4.7279,4.68,4.698,4.7249,4.68,4.686,4.7249,4.686,4.6651,4.6142,4.5813,4.5603,4.5214,4.4556,4.4167,4.3738,4.3469,4.3319,4.329,4.329,4.326,4.32,4.32,4.311,4.2821,4.247,4.1863,4.1294,4.0965,4.0636,4.0457,4.0277,4.0098,3.9858,3.9679,3.9463,3.9343,3.9403,3.9284,3.8871,3.8422,3.7943,3.7225,3.6567,3.5938,3.5549,3.5519,3.5489,3.5489,3.5489,3.5489,3.5489,3.5457,3.5427,3.5367,3.5123,3.4547,3.3763,3.2922,3.1691,3.0529,2.9947,2.9357,2.8823,2.8308,2.7658,2.7114,2.7082,2.7188,4.7309,4.7309,4.7309,4.7309,4.7309,4.7309,4.7309,4.7309,4.7309,4.7309,4.7309,4.7309,4.7309,4.7309,4.7309,4.7309,4.7309,4.7309,4.7309,4.7309,4.7309,4.7309,4.7309,4.7309,4.7309,4.7309,4.7309,4.7309,4.7309,4.7309,4.7309,4.7309,4.7309,4.7309,4.7309,4.7309,4.7309,4.7309,4.7309,4.7309,4.7309,4.7309,4.7309,4.7309,4.7309,4.7309,4.7309,4.7279,4.7309,4.7309,4.7309,4.7279,4.7249,4.7249,4.7189,4.707,4.6621,4.6292,4.5873,4.5274,4.4736,4.4287,4.3838,4.3648,4.3648,4.3379,4.3319,4.329,4.326,4.326,4.306,4.2821,4.2372,4.1953,4.1632,4.1302,4.0965,4.0846,4.0726,4.0427,4.0038,3.9858,3.9679,3.9709,3.9403,3.9164,3.899,3.8571,3.7973,3.7225,3.6567,3.5848,3.5579,3.5519,3.5489,3.5489,3.5489,3.5489,3.5489,3.5489,3.5459,3.5307,3.5155,3.4339,3.3467,3.2685,3.1722,3.1025,3.0334,2.9672,2.9251,2.9017,2.8753,2.8484,2.842,4.7309,4.7309,4.7309,4.7309,4.7309,4.7309,4.7309,4.7309,4.7309,4.7309,4.7309,4.7309,4.7309,4.7309,4.7309,4.7309,4.7309,4.7309,4.7309,4.7309,4.7309,4.7309,4.7309,4.7309,4.7309,4.7309,4.7309,4.7309,4.7309,4.7309,4.7309,4.7309,4.7309,4.7309,4.7309,4.7339,4.7399,4.7339,4.7399,4.7369,4.7309,4.7309,4.7309,4.7309,4.7309,4.7309,4.7309,4.7309,4.7309,4.7309,4.7309,4.7309,4.7309,4.7309,4.7309,4.7279,4.71,4.68,4.6411,4.5891,4.5514,4.5155,4.4796,4.4496,4.4167,4.3629,4.3319,4.3319,4.329,4.329,4.326,4.312,4.291,4.2581,4.2291,4.1931,4.1572,4.1482,4.1354,4.0965,4.0516,4.0277,4.0098,3.9828,3.9493,3.9343,3.9313,3.905,3.8571,3.7943,3.7315,3.6596,3.5759,3.5579,3.5519,3.5489,3.5489,3.5489,3.5489,3.5489,3.5489,3.5397,3.5277,3.4737,3.4014,3.3376,3.2715,3.188,3.1188,3.0643,3.0208,3.0001,2.9984,2.978,2.9723,4.7309,4.7309,4.7309,4.7309,4.7309,4.7309,4.7309,4.7309,4.7309,4.7309,4.7309,4.7309,4.7309,4.7309,4.7309,4.7309,4.7309,4.7309,4.7309,4.7309,4.7309,4.7309,4.7309,4.7309,4.7309,4.7309,4.7309,4.7309,4.7309,4.7309,4.7309,4.7309,4.7309,4.7339,4.7369,4.7519,4.7578,4.7339,4.7578,4.7549,4.7399,4.7309,4.7309,4.7309,4.7309,4.7309,4.7309,4.7309,4.7309,4.7309,4.7309,4.7309,4.7309,4.7309,4.7309,4.7309,4.7249,4.716,4.68,4.6471,4.6202,4.5873,4.5394,4.4945,4.4855,4.4377,4.3838,4.3738,4.3349,4.329,4.329,4.317,4.311,4.294,4.2851,4.2641,4.2342,4.2162,4.2013,4.1811,4.1362,4.0905,4.0666,4.0307,4.0008,3.9828,3.9768,3.9403,3.899,3.8571,3.7973,3.7345,3.6477,3.5759,3.5519,3.5489,3.5489,3.5489,3.5489,3.5489,3.5489,3.5489,3.534,3.4978,3.4646,3.4371,3.3644,3.2897,3.2386,3.1927,3.1435,3.0971,3.1007,3.098,3.0774,4.7309,4.7309,4.7309,4.7309,4.7309,4.7309,4.7309,4.7309,4.7309,4.7309,4.7309,4.7309,4.7309,4.7309,4.7309,4.7309,4.7309,4.7309,4.7309,4.7309,4.7309,4.7309,4.7309,4.7309,4.7309,4.7309,4.7309,4.7309,4.7309,4.7309,4.7309,4.7309,4.7399,4.7459,4.7638,4.7967,4.8237,4.7967,4.7967,4.7878,4.7638,4.7339,4.7309,4.7309,4.7309,4.7309,4.7309,4.7309,4.7309,4.7309,4.7309,4.7309,4.7309,4.7309,4.7309,4.7309,4.7309,4.7279,4.713,4.68,4.6591,4.6292,4.5783,4.5544,4.5484,4.5155,4.4616,4.4167,4.3738,4.3409,4.3409,4.3319,4.329,4.323,4.323,4.323,4.3,4.2761,4.2611,4.247,4.2081,4.1564,4.1265,4.0876,4.0546,4.0367,4.0068,3.9672,3.9313,3.896,3.8512,3.7883,3.7135,3.6477,3.5818,3.5489,3.5489,3.5489,3.5489,3.5489,3.5489,3.5489,3.5489,3.5459,3.5155,3.4882,3.4612,3.404,3.3554,3.3101,3.2573,3.2104,3.2045,3.1988,3.1694,4.7309,4.7309,4.7309,4.7309,4.7309,4.7309,4.7309,4.7309,4.7309,4.7309,4.7309,4.7309,4.7309,4.7309,4.7309,4.7309,4.7309,4.7309,4.7309,4.7309,4.7309,4.7309,4.7369,4.7459,4.7339,4.7339,4.7369,4.7339,4.7309,4.7309,4.7339,4.7369,4.7938,4.8087,4.8207,4.8596,4.9,4.8716,4.8416,4.8327,4.8027,4.7698,4.7339,4.7309,4.7309,4.7309,4.7309,4.7309,4.7309,4.7309,4.7309,4.7309,4.7309,4.7309,4.7309,4.7309,4.7309,4.7309,4.7189,4.707,4.695,4.695,4.6561,4.6441,4.6322,4.607,4.5574,4.5035,4.4556,4.3888,4.3708,4.3499,4.3379,4.3319,4.326,4.326,4.314,4.311,4.309,4.2851,4.2581,4.2282,4.2141,4.1624,4.1025,4.0786,4.0397,4.0038,3.9619,3.929,3.899,3.8392,3.7764,3.7105,3.6417,3.5669,3.5489,3.5489,3.5489,3.5489,3.5489,3.5489,3.5489,3.5489,3.5489,3.5307,3.5036,3.4765,3.4526,3.4012,3.3539,3.3213,3.3123,3.2884,3.2497]}]]